Date StartTime U_cm/s V_cm/s W_cm/s Ustd_cm/s Vstd_cm/s Wstd_cm/s Uvar_(cm/s)^2 Vvar_(cm/s)^2 Wvar_(cm/s)^2 KE_(m/s)^2 TurbulentKE_(m/s)^2 HorizWindSpeed_cm/s FrictionSpeec_cm/s DragCoef SpeedOfSound_m/s SonicTemperature_C Pressure_mb 
04/17/2014  00:00:00      -45.895      -28.395       -9.616       20.325       10.204       11.219      413.124      104.116      125.870        0.182        0.032       53.968        8.724        0.026      339.464       12.815      858.892
04/17/2014  00:01:00      -33.551       -6.107        1.816       15.622       14.900        9.781      244.055      221.999       95.664        0.086        0.028       34.102        9.117        0.071      339.380       12.674      858.896
04/17/2014  00:02:00       -2.255       33.495        2.963       15.375       17.234        9.531      236.377      297.026       90.840        0.088        0.031       33.571        7.140        0.045      339.452       12.795      858.903
04/17/2014  00:03:00      -13.280       98.926      -19.779       10.295       15.537       11.529      105.985      241.387      132.925        0.542        0.024       99.813        9.772        0.010      339.520       12.910      858.909
04/17/2014  00:04:00      -16.594      161.743      -27.067       16.182       34.002       11.391      261.869     1156.163      129.753        1.436        0.077      162.592       10.624        0.004      339.501       12.876      858.915
04/17/2014  00:05:00        6.341      220.399      -36.677       19.497       29.989       11.653      380.125      899.337      135.789        2.569        0.071      220.490       13.611        0.004      339.400       12.705      858.915
04/17/2014  00:06:00       12.866      211.222      -38.320       26.402       25.319       14.243      697.062      641.071      202.867        2.389        0.077      211.613       11.940        0.003      339.360       12.637      858.906
04/17/2014  00:07:00       30.263      215.672      -36.027       33.509       31.963       14.360     1122.872     1021.663      206.207        2.554        0.118      217.785       11.620        0.003      339.492       12.859      858.887
04/17/2014  00:08:00       53.531      140.343      -10.209       43.006       65.627       40.539     1849.513     4306.860     1643.397        1.523        0.390      150.205       39.688        0.070      339.639       13.110      858.867
04/17/2014  00:09:00       40.523      110.091       -8.796       32.545       48.947       26.505     1059.163     2395.794      702.536        0.900        0.208      117.312       26.288        0.050      339.644       13.118      858.847
04/17/2014  00:10:00       21.693       95.606      -12.814       35.564       50.252       24.952     1264.778     2525.229      622.627        0.709        0.221       98.036       26.431        0.073      339.796       13.377      858.833
04/17/2014  00:11:00        0.246      123.566      -23.169       48.050       48.363       26.802     2308.760     2338.983      718.370        1.058        0.268      123.566       27.737        0.050      340.029       13.768      858.820
04/17/2014  00:12:00      -99.741       66.737      -17.663       74.418      130.287       32.247     5537.991    16974.649     1039.889        1.913        1.178      120.009       45.288        0.142      340.017       13.747      858.811
04/17/2014  00:13:00      -78.950        1.880      -11.080       37.839       41.196       22.267     1431.811     1697.131      495.827        0.499        0.181       78.972       17.169        0.047      340.249       14.140      858.812
04/17/2014  00:14:00      -91.311       52.259      -15.180       44.136       66.473       30.779     1947.972     4418.633      947.338        0.931        0.366      105.207       29.417        0.078      340.201       14.059      858.814
04/17/2014  00:15:00     -139.433       52.442      -24.514       46.314       40.376       36.868     2144.995     1630.212     1359.234        1.396        0.257      148.969       31.878        0.046      340.224       14.095      858.804
04/17/2014  00:16:00     -144.921        7.679      -17.368       48.028       54.778       33.507     2306.690     3000.580     1122.687        1.390        0.321      145.124       14.902        0.011      340.152       13.975      858.794
04/17/2014  00:17:00     -137.453       12.518      -16.333       46.896       35.372       32.165     2199.280     1251.146     1034.584        1.190        0.224      138.022       22.460        0.026      340.104       13.895      858.797
04/17/2014  00:18:00     -104.351        6.992      -15.773       60.177       49.329       27.675     3621.281     2433.327      765.912        0.900        0.341      104.585       29.837        0.081      340.063       13.825      858.793
04/17/2014  00:19:00      -80.920       -8.657        7.196       53.625       38.702       37.241     2875.606     1497.878     1386.899        0.622        0.288       81.382       27.064        0.111      340.112       13.908      858.784
04/17/2014  00:20:00     -110.560       68.641      -24.099       64.032       74.408       40.925     4100.090     5536.606     1674.834        1.441        0.566      130.135       40.458        0.097      340.188       14.034      858.777
04/17/2014  00:21:00      -67.001       12.730        2.703       66.959       66.929       27.115     4483.561     4479.487      735.239        0.718        0.485       68.200       30.398        0.199      340.099       13.886      858.760
04/17/2014  00:22:00      -13.577      -19.165        9.103       50.973       27.820       20.065     2598.285      773.974      402.609        0.220        0.189       23.486       12.843        0.299      340.098       13.883      858.769
04/17/2014  00:23:00      -10.605       -4.230        0.650       40.381       24.202       19.627     1630.626      585.725      385.200        0.137        0.130       11.417       23.775        4.337      340.154       13.978      858.775
04/17/2014  00:24:00      -62.806       47.293      -13.367       36.341       17.345       20.451     1320.639      300.847      418.226        0.420        0.102       78.621       16.103        0.042      340.219       14.089      858.780
04/17/2014  00:25:00      -18.115       39.444      -11.212       40.291       43.145       25.667     1623.398     1861.489      658.819        0.308        0.207       43.405       30.977        0.509      340.291       14.209      858.788
04/17/2014  00:26:00      -69.917       45.701       -9.944       26.939       33.480       19.107      725.697     1120.894      365.094        0.464        0.111       83.529       12.374        0.022      340.381       14.361      858.808
04/17/2014  00:27:00      -16.214       68.791       -8.522       33.215       44.286       21.940     1103.225     1961.230      481.356        0.431        0.177       70.676       20.867        0.087      340.281       14.193      858.815
04/17/2014  00:28:00        3.873       50.554       -0.275       20.747       27.117       14.836      430.437      735.319      220.114        0.198        0.069       50.702       11.839        0.055      340.292       14.210      858.816
04/17/2014  00:29:00       33.229       29.570       -5.770       26.863       30.664       22.006      721.608      940.295      484.261        0.208        0.107       44.480       19.974        0.202      340.213       14.078      858.807
04/17/2014  00:30:00       -3.953       -7.356        7.200       14.426       21.367       21.571      208.121      456.548      465.288        0.063        0.056        8.351       18.273        4.788      340.219       14.089      858.798
04/17/2014  00:31:00        1.117      -17.658        2.490       24.722       19.201       12.058      611.170      368.684      145.389        0.072        0.056       17.693        9.026        0.260      340.142       13.958      858.795
04/17/2014  00:32:00       11.898       30.940       -6.292       25.761       37.181       24.168      663.613     1382.426      584.075        0.188        0.132       33.148       18.442        0.310      340.140       13.954      858.789
04/17/2014  00:33:00      -21.359        3.632       -7.625       23.998       20.292       22.549      575.896      411.748      508.457        0.101        0.075       21.665       13.258        0.374      340.194       14.047      858.799
04/17/2014  00:34:00       -0.851      -38.588       -7.795       13.666       17.855       18.287      186.753      318.804      334.398        0.120        0.042       38.597        7.872        0.042      340.202       14.059      858.793
04/17/2014  00:35:00        2.447      -26.829      -11.655       16.325       18.218       11.425      266.496      331.910      130.542        0.080        0.036       26.940        6.828        0.064      340.212       14.077      858.799
04/17/2014  00:36:00       -1.154      -53.117      -11.540       22.727       26.404       12.410      516.504      697.187      154.017        0.216        0.068       53.129       12.306        0.054      340.089       13.871      858.800
04/17/2014  00:37:00       15.819       -9.488       -6.518       15.092       14.102       11.798      227.781      198.874      139.193        0.047        0.028       18.446       11.323        0.377      339.971       13.669      858.819
04/17/2014  00:38:00       13.350      -27.949       11.277       21.787       30.726       24.661      474.673      944.099      608.179        0.156        0.101       30.973       21.648        0.488      339.869       13.499      858.831
04/17/2014  00:39:00        7.272       -1.290       46.997       33.915       39.196       26.220     1150.251     1536.336      687.506        0.282        0.169        7.385       27.109       13.475      339.690       13.197      858.836
04/17/2014  00:40:00       50.116     -101.779      -21.435       40.586       45.283       31.043     1647.201     2050.547      963.645        0.899        0.233      113.449       29.189        0.066      339.741       13.283      858.849
04/17/2014  00:41:00       63.030      -65.762      -18.617       30.737       34.300       19.131      944.792     1176.456      365.996        0.557        0.124       91.090       18.956        0.043      339.665       13.154      858.872
04/17/2014  00:42:00        0.010       24.705       49.859       20.527       31.371       24.041      421.371      984.134      577.950        0.254        0.099       24.705       20.822        0.710      339.530       12.925      858.883
04/17/2014  00:43:00       24.613      -32.517       34.538       38.156       67.489       32.211     1455.893     4554.813     1037.563        0.495        0.352       40.782       45.834        1.263      339.622       13.082      858.900
04/17/2014  00:44:00       84.193     -156.209      -18.086       29.501       36.124       20.821      870.337     1304.934      433.497        1.721        0.130      177.453       18.006        0.010      339.758       13.312      858.883
04/17/2014  00:45:00       44.686     -121.397       -6.308       38.476       45.775       36.304     1480.391     2095.380     1317.963        1.083        0.245      129.361       20.970        0.026      339.849       13.464      858.860
04/17/2014  00:46:00       39.547      -26.557       21.135       39.152       80.205       37.113     1532.910     6432.824     1377.385        0.603        0.467       47.637       46.840        0.967      339.742       13.284      858.864
04/17/2014  00:47:00       23.248      -42.902       17.690       27.756       51.025       27.877      770.383     2603.596      777.105        0.342        0.208       48.796       25.596        0.275      339.690       13.197      858.847
04/17/2014  00:48:00       59.932     -126.283      -15.685       31.455       33.197       21.267      989.447     1102.013      452.267        1.116        0.127      139.783       14.050        0.010      339.785       13.356      858.806
04/17/2014  00:49:00       24.692      -19.963       17.636       31.863       56.988       36.801     1015.219     3247.609     1354.349        0.347        0.281       31.752       42.837        1.820      339.744       13.287      858.814
04/17/2014  00:50:00       13.268       32.599       12.298       22.773       23.206       29.093      518.607      538.497      846.415        0.165        0.095       35.196       16.275        0.214      339.808       13.393      858.829
04/17/2014  00:51:00      -12.502      -29.508      -11.970       27.600       19.980       13.024      761.740      399.210      169.628        0.125        0.067       32.047       10.025        0.098      339.825       13.423      858.844
04/17/2014  00:52:00        1.980      -59.567      -13.058       26.232       22.677       15.146      688.105      514.269      229.396        0.258        0.072       59.600       15.500        0.068      339.880       13.516      858.841
04/17/2014  00:53:00       -8.863      -44.694        5.584       24.242       30.514       17.839      587.698      931.105      318.218        0.197        0.092       45.564       17.828        0.153      339.876       13.510      858.845
04/17/2014  00:54:00      -15.240        8.234       -3.353       14.852       13.542       20.413      220.578      183.377      416.683        0.057        0.041       17.322       11.289        0.425      339.746       13.291      858.855
04/17/2014  00:55:00      -34.195      -59.613       -6.606       25.925       28.522       14.957      672.119      813.494      223.720        0.324        0.085       68.724        5.950        0.007      339.875       13.509      858.844
04/17/2014  00:56:00      -39.606      -41.237       14.014       46.914       48.379       21.089     2200.939     2340.524      444.741        0.422        0.249       57.176       24.519        0.184      339.738       13.277      858.824
04/17/2014  00:57:00      -48.609      -29.755       -1.971       41.000       32.038       18.284     1681.031     1026.421      334.289        0.315        0.152       56.993       13.722        0.058      339.804       13.390      858.811
04/17/2014  00:58:00      -73.818      -61.864        0.267       47.536       29.293       20.041     2259.635      858.095      401.658        0.640        0.176       96.314       15.621        0.026      339.705       13.221      858.814
04/17/2014  00:59:00      -56.506      -82.295       -0.667       37.355       27.480       21.867     1395.362      755.150      478.174        0.630        0.131       99.826       23.012        0.053      339.653       13.134      858.823
04/17/2014  01:00:00      -85.324      -69.300       -2.199       37.589       23.873       24.590     1412.906      569.911      604.681        0.734        0.129      109.921       21.306        0.038      339.546       12.955      858.826
04/17/2014  01:01:00      -66.528      -72.228        0.183       51.830       41.553       22.958     2686.338     1726.630      527.085        0.729        0.247       98.198       17.483        0.032      339.522       12.912      858.838
04/17/2014  01:02:00      -53.114      -96.336        0.190       44.323       49.502       26.697     1964.572     2450.449      712.739        0.861        0.256      110.008       27.166        0.061      339.430       12.759      858.848
04/17/2014  01:03:00     -108.715      -66.638       -6.523       63.294       39.877       30.042     4006.076     1590.165      902.528        1.140        0.325      127.514       28.341        0.049      339.341       12.607      858.853
04/17/2014  01:04:00     -139.175      -85.173       -2.220       71.564       53.222       29.239     5121.339     2832.566      854.904        1.772        0.440      163.169       28.297        0.030      339.222       12.405      858.868
04/17/2014  01:05:00      -88.119      -66.154        4.043       58.563       30.624       24.659     3429.656      937.800      608.091        0.857        0.249      110.188        5.865        0.003      339.186       12.347      858.866
04/17/2014  01:06:00      -29.661      -79.748       -2.560       32.739       40.647       22.352     1071.829     1652.218      499.592        0.523        0.161       85.086       14.659        0.030      339.224       12.410      858.862
04/17/2014  01:07:00      -83.492      -37.902        1.584       53.643       42.821       23.477     2877.536     1833.631      551.148        0.684        0.263       91.692       17.741        0.037      339.220       12.403      858.872
04/17/2014  01:08:00      -98.317      -46.612       -6.466       36.245       26.364       18.414     1313.675      695.085      339.069        0.711        0.117      108.806       10.023        0.008      339.146       12.279      858.891
04/17/2014  01:09:00      -16.409      -60.179        7.229       43.561       34.985       20.525     1897.583     1223.978      421.265        0.374        0.177       62.376       20.729        0.110      339.168       12.315      858.882
04/17/2014  01:10:00      -12.258      -92.233       10.867       44.762       44.634       20.397     2003.657     1992.180      416.046        0.659        0.221       93.044       24.840        0.071      339.283       12.510      858.872
04/17/2014  01:11:00      -84.596      -39.665       -1.954       49.977       47.062       22.440     2497.750     2214.787      503.555        0.697        0.261       93.434       29.068        0.097      339.651       13.131      858.877
04/17/2014  01:12:00     -151.681      -28.182      -19.734       41.472       32.811       21.004     1719.913     1076.589      441.184        1.371        0.162      154.277       20.451        0.018      339.495       12.869      858.888
04/17/2014  01:13:00      -83.774      -59.404       -3.803       45.042       38.703       17.004     2028.810     1497.931      289.148        0.719        0.191      102.698       15.301        0.022      339.429       12.756      858.891
04/17/2014  01:14:00      -57.174     -134.411       -6.352       73.849       64.567       40.341     5453.647     4168.943     1627.421        1.631        0.563      146.066       38.680        0.070      339.215       12.394      858.879
04/17/2014  01:15:00      -69.904     -118.321        1.283       70.972       61.475       43.827     5037.016     3779.207     1920.820        1.481        0.537      137.428       41.233        0.090      339.066       12.145      858.882
04/17/2014  01:16:00      -70.055     -113.164       -5.565       83.367       57.873       34.768     6950.132     3349.296     1208.819        1.462        0.575      133.093       23.505        0.031      339.022       12.069      858.873
04/17/2014  01:17:00      -66.857     -127.296       -4.704       57.087       46.094       32.161     3258.908     2124.680     1034.343        1.356        0.321      143.785       24.458        0.029      339.002       12.037      858.872
04/17/2014  01:18:00      -82.804      -96.500      -11.464       81.297       45.864       33.912     6609.174     2103.538     1150.051        1.308        0.493      127.157       28.222        0.049      339.035       12.093      858.869
04/17/2014  01:19:00      -52.967     -136.821      -15.644       44.810       51.797       31.920     2007.970     2682.972     1018.871        1.374        0.285      146.716       20.083        0.019      339.007       12.046      858.872
04/17/2014  01:20:00      -62.353      -73.910        8.974       67.531       62.502       32.105     4560.413     3906.546     1030.735        0.946        0.475       96.698       31.550        0.106      339.038       12.095      858.874
04/17/2014  01:21:00      -64.110      -32.552        5.760       47.586       40.543       18.154     2264.399     1643.719      329.551        0.472        0.212       71.901       17.051        0.056      339.107       12.213      858.904
04/17/2014  01:22:00      -82.927      -72.037        2.665       38.982       38.391       23.313     1519.628     1473.880      543.494        0.780        0.177      109.846       19.045        0.030      338.934       11.923      858.915
04/17/2014  01:23:00      -50.455      -70.899        1.134       41.555       36.780       22.530     1726.850     1352.801      507.617        0.558        0.179       87.020       22.139        0.065      338.923       11.904      858.898
04/17/2014  01:24:00      -61.505      -79.927       -4.621       25.986       69.067       19.668      675.246     4770.255      386.834        0.801        0.292      100.852       12.587        0.016      339.181       12.339      858.879
04/17/2014  01:25:00     -131.852      -47.576       -8.206       35.404       32.352       22.973     1253.414     1046.672      527.760        1.127        0.141      140.173       17.753        0.016      339.035       12.094      858.885
04/17/2014  01:26:00      -45.747      -49.663        6.176       59.349       27.245       25.550     3522.323      742.291      652.825        0.476        0.246       67.522       27.253        0.163      338.945       11.941      858.884
04/17/2014  01:27:00      -43.573      -28.847        5.262       47.684       26.026       20.775     2273.758      677.340      431.614        0.307        0.169       52.256       25.737        0.243      338.876       11.825      858.875
04/17/2014  01:28:00      -69.692      -45.264       -1.153       32.458       21.791       19.831     1053.522      474.846      393.275        0.441        0.096       83.101       19.239        0.054      338.884       11.839      858.878
04/17/2014  01:29:00      -83.127      -36.963      -12.332       17.889       25.384       12.760      319.999      644.366      162.820        0.478        0.056       90.974        7.489        0.007      338.839       11.765      858.890
04/17/2014  01:30:00      -77.839      -24.697       -4.223       26.348       14.986       13.245      694.221      224.586      175.424        0.389        0.055       81.662       14.585        0.032      338.877       11.827      858.906
04/17/2014  01:31:00      -60.244      -36.920       -2.795       19.539       21.986       16.101      381.772      483.380      259.228        0.306        0.056       70.657       10.760        0.023      339.036       12.094      858.927
04/17/2014  01:32:00      -42.707      -12.218        1.569       45.095       20.869       19.532     2033.538      435.500      381.514        0.241        0.143       44.420       23.841        0.288      338.975       11.992      858.941
04/17/2014  01:33:00      -84.639      -21.032       -5.522       27.045       24.841       17.713      731.438      617.067      313.743        0.465        0.083       87.213       12.488        0.021      339.074       12.157      858.933
04/17/2014  01:34:00     -103.130      -23.058       -6.546       35.119       29.025       21.024     1233.331      842.460      441.998        0.686        0.126      105.676       19.181        0.033      339.075       12.161      858.931
04/17/2014  01:35:00      -85.354       -7.402      -10.176       24.837       37.158       17.627      616.885     1380.705      310.708        0.488        0.115       85.674       10.902        0.016      339.196       12.365      858.922
04/17/2014  01:36:00     -110.798        3.464      -11.687       39.025       35.781       21.749     1522.986     1280.309      472.999        0.785        0.164      110.852       19.167        0.030      339.215       12.396      858.913
04/17/2014  01:37:00      -98.900       -7.904      -15.499       25.804       25.048       15.530      665.839      627.399      241.172        0.581        0.077       99.216       10.373        0.011      339.197       12.365      858.895
04/17/2014  01:38:00     -118.092      -21.992      -11.362       42.165       38.490       24.760     1777.908     1481.511      613.053        0.921        0.194      120.123       25.364        0.045      339.120       12.236      858.878
04/17/2014  01:39:00      -77.326      -19.969       -5.091       30.607       33.497       14.409      936.766     1122.053      207.607        0.433        0.113       79.863        9.118        0.013      339.208       12.383      858.872
04/17/2014  01:40:00      -73.042       10.573       -1.336       38.540       34.345       25.725     1485.343     1179.580      661.775        0.439        0.166       73.803       23.402        0.101      339.605       13.054      858.870
04/17/2014  01:41:00      -80.477       52.065      -16.738       29.240       26.618       20.821      854.990      708.520      433.511        0.573        0.100       95.851       16.356        0.029      339.903       13.556      858.869
04/17/2014  01:42:00      -81.661       44.122      -13.623       29.595       29.243       19.529      875.886      855.142      381.365        0.546        0.106       92.819       16.236        0.031      339.685       13.188      858.883
04/17/2014  01:43:00      -60.246       18.032       -7.080       24.694       19.558       19.027      609.817      382.525      362.033        0.268        0.068       62.887       12.605        0.040      339.873       13.506      858.887
04/17/2014  01:44:00      -70.250      -14.806       -5.852       18.774       37.785       14.128      352.467     1427.739      199.594        0.358        0.099       71.794        9.792        0.019      339.436       12.766      858.896
04/17/2014  01:45:00     -122.296      -40.840      -13.396       29.497       26.776       16.621      870.047      716.946      276.258        0.933        0.093      128.936       14.459        0.013      338.762       11.633      858.902
04/17/2014  01:46:00     -101.054      -22.650      -10.854       41.478       27.478       14.539     1720.447      755.016      211.395        0.676        0.134      103.562       15.577        0.023      338.788       11.678      858.904
04/17/2014  01:47:00      -73.935      -23.242      -12.090       12.475       17.462        9.064      155.632      304.927       82.151        0.335        0.027       77.502        1.971        0.001      338.907       11.877      858.902
04/17/2014  01:48:00      -55.287      -28.064       -5.129        9.216       12.369        6.542       84.939      152.982       42.793        0.208        0.014       62.001        6.396        0.011      338.909       11.881      858.891
04/17/2014  01:49:00      -74.008      -45.538       -4.245       34.877       26.379       11.638     1216.386      695.839      135.447        0.481        0.102       86.896       12.027        0.019      338.925       11.908      858.876
04/17/2014  01:50:00      -67.619      -36.192        0.506       45.179       18.884       15.171     2041.103      356.622      230.168        0.425        0.131       76.696       18.451        0.058      338.836       11.759      858.862
04/17/2014  01:51:00      -19.766      -28.025       -5.432       33.733       15.999       14.242     1137.946      255.967      202.835        0.140        0.080       34.294       15.676        0.209      338.883       11.836      858.844
04/17/2014  01:52:00      -24.215      -23.990       -2.053       21.124       14.680       15.810      446.234      215.495      249.944        0.104        0.046       34.086        9.447        0.077      338.843       11.769      858.838
04/17/2014  01:53:00      -15.164      -52.711        2.615       12.837       12.655       12.600      164.797      160.161      158.760        0.175        0.024       54.849        8.209        0.022      339.069       12.150      858.837
04/17/2014  01:54:00       -2.840      -59.358      -12.722       19.597       24.277       20.796      384.052      589.374      432.478        0.255        0.070       59.425       11.632        0.038      339.008       12.048      858.835
04/17/2014  01:55:00       -6.068      -29.638      -10.637       22.080       16.487        9.476      487.539      271.828       89.795        0.094        0.042       30.252        5.466        0.033      339.112       12.221      858.836
04/17/2014  01:56:00       -6.415      -10.966       11.547       22.088       19.194       13.474      487.897      368.415      181.556        0.067        0.052       12.705       11.873        0.873      339.033       12.089      858.838
04/17/2014  01:57:00       -5.429      -32.343       -7.852       13.955       15.871       13.333      194.730      251.873      177.775        0.088        0.031       32.796       11.742        0.128      339.108       12.216      858.844
04/17/2014  01:58:00      -16.795      -20.297       -0.790       13.940       31.776       10.529      194.310     1009.704      110.853        0.100        0.066       26.344       11.549        0.192      339.086       12.177      858.846
04/17/2014  01:59:00       -4.404      -25.129       -0.533       18.775       17.005       15.761      352.482      289.175      248.413        0.077        0.045       25.512       13.550        0.282      339.204       12.376      858.847
04/17/2014  02:00:00      -32.448      -14.610        2.674       27.324       16.055        9.820      746.581      257.757       96.426        0.119        0.055       35.586       10.226        0.083      339.031       12.085      858.861
04/17/2014  02:01:00      -39.648      -35.594        3.333       24.412       23.417       21.273      595.935      548.347      452.541        0.222        0.080       53.281       19.192        0.130      338.978       11.997      858.867
04/17/2014  02:02:00      -23.175      -39.258        0.354       26.789       22.929       17.096      717.637      525.754      292.272        0.181        0.077       45.588       15.879        0.121      339.002       12.037      858.866
04/17/2014  02:03:00      -76.426     -133.071       -4.883       34.375       34.555       20.968     1181.630     1194.080      439.647        1.319        0.141      153.456       15.492        0.010      338.920       11.899      858.850
04/17/2014  02:04:00      -69.391     -125.002       -3.568       54.496       56.304       29.503     2969.808     3170.185      870.441        1.373        0.351      142.971       25.184        0.031      338.835       11.758      858.828
04/17/2014  02:05:00      -85.394      -83.708       -3.600       68.570       51.915       34.919     4701.819     2695.117     1219.310        1.146        0.431      119.579       37.830        0.100      338.686       11.506      858.810
04/17/2014  02:06:00     -124.541      -78.689       -4.448       37.831       36.743       30.864     1431.209     1350.057      952.561        1.273        0.187      147.317       13.045        0.008      338.617       11.389      858.788
04/17/2014  02:07:00     -105.157     -101.931       -7.328       38.865       40.519       24.348     1510.517     1641.779      592.846        1.262        0.187      146.451       26.896        0.034      338.577       11.323      858.773
04/17/2014  02:08:00     -105.139     -100.231      -10.893       31.461       37.359       17.713      989.777     1395.695      313.761        1.196        0.135      145.260       11.878        0.007      338.515       11.219      858.762
04/17/2014  02:09:00      -96.417      -48.458        0.825       33.806       23.446       22.274     1142.823      549.693      496.147        0.692        0.109      107.909       12.305        0.013      338.525       11.236      858.746
04/17/2014  02:10:00      -94.044      -77.824       -5.337       63.274       26.410       27.922     4003.643      697.487      779.657        1.020        0.274      122.069       32.415        0.071      338.546       11.271      858.746
04/17/2014  02:11:00      -86.022      -52.202        8.318       53.898       40.083       29.445     2905.004     1606.666      866.984        0.779        0.269      100.622       28.398        0.080      338.457       11.123      858.738
04/17/2014  02:12:00     -143.006     -111.816       -3.111       67.143       53.697       35.484     4508.161     2883.372     1259.122        2.081        0.433      181.532       36.405        0.040      338.350       10.940      858.728
04/17/2014  02:13:00     -147.240      -66.541       -9.166       46.635       44.156       30.817     2174.827     1949.786      949.702        1.563        0.254      161.578       27.033        0.028      338.322       10.895      858.703
04/17/2014  02:14:00     -130.058      -93.141       -6.443       39.252       37.722       25.406     1540.683     1422.978      645.456        1.462        0.180      159.970       16.301        0.010      338.384       10.999      858.692
04/17/2014  02:15:00     -114.190      -43.338       -3.328       45.491       22.601       19.060     2069.440      510.789      363.272        0.894        0.147      122.137       19.501        0.025      338.426       11.068      858.671
04/17/2014  02:16:00     -118.631      -79.544      -11.586       47.772       37.242       25.262     2282.210     1386.961      638.176        1.242        0.215      142.830       27.937        0.038      338.457       11.121      858.656
04/17/2014  02:17:00     -134.964      -61.289       -3.657       47.674       39.549       24.160     2272.811     1564.115      583.723        1.320        0.221      148.228       26.682        0.032      338.303       10.862      858.663
04/17/2014  02:18:00      -88.584        3.005       -0.755       56.458       36.921       30.741     3187.547     1363.169      945.005        0.668        0.275       88.635       30.057        0.115      338.328       10.905      858.674
04/17/2014  02:19:00     -128.608      -23.500       -2.485       27.764       54.027       17.509      770.862     2918.874      306.558        1.055        0.200      130.737       10.512        0.006      338.172       10.642      858.681
04/17/2014  02:20:00     -127.767      -36.374      -17.160       23.549       21.830       13.145      554.568      476.565      172.786        0.957        0.060      132.844       10.386        0.006      338.199       10.687      858.676
04/17/2014  02:21:00     -107.759      -34.512      -10.737       35.363       29.204       17.314     1250.566      852.867      299.791        0.766        0.120      113.151       17.559        0.024      338.304       10.864      858.671
04/17/2014  02:22:00      -49.975      -60.202       -1.187       34.186       31.864       17.500     1168.654     1015.301      306.243        0.431        0.125       78.242       16.768        0.046      338.363       10.963      858.671
04/17/2014  02:23:00      -53.423      -31.697        4.825       32.219       25.321       19.447     1038.049      641.136      378.178        0.297        0.103       62.119       18.126        0.085      338.376       10.985      858.670
04/17/2014  02:24:00      -70.573      -20.855      -13.988       18.918       10.148       11.798      357.888      102.972      139.194        0.311        0.030       73.590        7.211        0.010      338.271       10.811      858.657
04/17/2014  02:25:00      -49.666      -27.705       -3.857       12.760       15.267       12.041      162.820      233.079      144.975        0.189        0.027       56.871        6.634        0.014      338.393       11.013      858.642
04/17/2014  02:26:00      -50.861      -32.181       -6.607       19.186       15.023       12.096      368.107      225.698      146.319        0.220        0.037       60.187        5.259        0.008      338.487       11.173      858.640
04/17/2014  02:27:00      -25.257      -40.117       -5.351       30.492       14.472       16.916      929.736      209.441      286.153        0.185        0.071       47.405       15.188        0.103      338.473       11.148      858.643
04/17/2014  02:28:00        5.332      -33.599        7.499       21.281       13.765       16.486      452.878      189.477      271.794        0.106        0.046       34.019       13.059        0.147      338.453       11.113      858.640
04/17/2014  02:29:00       -6.548      -31.601        4.549       22.025       19.842       11.953      485.084      393.711      142.877        0.104        0.051       32.272       10.738        0.111      338.448       11.106      858.640
04/17/2014  02:30:00      -43.664      -27.647        2.170       23.646       20.405       13.051      559.155      416.348      170.325        0.191        0.057       51.681       13.565        0.069      338.333       10.914      858.640
04/17/2014  02:31:00      -61.428      -46.851       -1.056       13.696       16.265       11.497      187.575      264.561      132.186        0.328        0.029       77.256        5.450        0.005      338.326       10.901      858.649
04/17/2014  02:32:00      -44.329      -13.672       -7.546       16.566       11.224        9.780      274.416      125.971       95.645        0.135        0.025       46.390       10.426        0.051      338.262       10.795      858.652
04/17/2014  02:33:00      -20.484      -19.224       10.053       24.856       18.737       13.946      617.801      351.079      194.503        0.103        0.058       28.092        8.056        0.082      338.305       10.868      858.651
04/17/2014  02:34:00      -54.803      -36.944        1.443       33.900       22.054       16.944     1149.189      486.365      287.116        0.315        0.096       66.092       17.448        0.070      338.220       10.724      858.656
04/17/2014  02:35:00      -49.162      -71.522       -0.433       35.272       27.481       18.199     1244.147      755.187      331.213        0.493        0.117       86.788       14.016        0.026      338.244       10.763      858.656
04/17/2014  02:36:00       -8.968      -41.378        9.582       25.949       24.401       19.741      673.354      595.406      389.718        0.177        0.083       42.338       20.996        0.246      338.265       10.799      858.660
04/17/2014  02:37:00      -34.696      -51.790        4.252       29.314       23.674       16.542      859.335      560.477      273.641        0.280        0.085       62.338       14.341        0.053      338.212       10.711      858.648
04/17/2014  02:38:00      -48.608      -51.623       -1.984       23.642       26.314       20.622      558.945      692.413      425.256        0.335        0.084       70.906       15.799        0.050      338.195       10.681      858.629
04/17/2014  02:39:00      -34.577      -26.850        3.342       36.632       24.891       18.676     1341.916      619.565      348.797        0.212        0.116       43.778       19.128        0.191      338.147       10.601      858.613
04/17/2014  02:40:00      -47.598      -45.058       -5.355       37.933       22.453       15.668     1438.942      504.134      245.483        0.326        0.109       65.542       13.310        0.041      338.156       10.616      858.590
04/17/2014  02:41:00      -51.473      -66.425        5.704       45.245       43.081       28.191     2047.104     1855.933      794.709        0.590        0.235       84.034       28.745        0.117      338.058       10.453      858.565
04/17/2014  02:42:00      -95.964      -78.855        0.197       24.823       24.891       17.221      616.175      619.580      296.550        0.848        0.077      124.207        6.737        0.003      338.084       10.496      858.543
04/17/2014  02:43:00      -71.381      -49.160        6.233       52.249       25.619       22.192     2729.911      656.308      492.486        0.571        0.194       86.672       22.960        0.070      338.129       10.570      858.527
04/17/2014  02:44:00      -62.722      -43.321        3.557       35.550       26.872       26.248     1263.771      722.083      688.976        0.425        0.134       76.229       24.972        0.107      338.039       10.422      858.526
04/17/2014  02:45:00      -54.424      -43.877        4.405       32.417       24.140       19.886     1050.884      582.732      395.471        0.347        0.101       69.908       17.880        0.065      338.016       10.384      858.512
04/17/2014  02:46:00      -77.269      -53.033       -1.407       36.319       19.995       18.046     1319.102      399.789      325.675        0.541        0.102       93.718       21.390        0.052      338.005       10.363      858.500
04/17/2014  02:47:00      -58.586      -32.650       -2.226       30.605       15.024       17.384      936.648      225.724      302.215        0.298        0.073       67.070       15.063        0.050      338.023       10.394      858.496
04/17/2014  02:48:00      -49.073      -27.207        0.810       21.504       15.712       11.365      462.423      246.862      129.173        0.199        0.042       56.110        8.216        0.021      338.088       10.502      858.494
04/17/2014  02:49:00      -16.740      -22.869       -0.217       19.529       15.386        7.284      381.383      236.733       53.057        0.074        0.034       28.341        4.650        0.027      338.202       10.694      858.495
04/17/2014  02:50:00      -44.490      -41.810       -1.952       20.238       18.665       14.366      409.572      348.378      206.392        0.235        0.048       61.053       10.198        0.028      338.157       10.618      858.488
04/17/2014  02:51:00      -23.018      -40.101        5.112       26.091       22.735       15.707      680.735      516.862      246.703        0.180        0.072       46.238       16.335        0.125      338.067       10.468      858.476
04/17/2014  02:52:00      -50.264      -39.814        1.370       22.395       19.665       19.522      501.557      386.700      381.100        0.269        0.063       64.121       16.031        0.063      338.080       10.489      858.453
04/17/2014  02:53:00      -46.514      -37.330       -1.608       34.052       22.020       13.857     1159.537      484.902      192.010        0.270        0.092       59.641       13.171        0.049      338.031       10.407      858.434
04/17/2014  02:54:00      -37.734      -27.171        8.609       39.849       24.309       22.439     1587.939      590.945      503.529        0.246        0.134       46.499       16.659        0.128      337.991       10.339      858.414
04/17/2014  02:55:00      -59.871      -57.372        3.621       41.163       30.334       22.511     1694.407      920.122      506.742        0.500        0.156       82.922       19.684        0.056      338.004       10.361      858.398
04/17/2014  02:56:00     -103.771      -57.936       -3.456       31.401       25.466       15.752      986.003      648.524      248.115        0.801        0.094      118.848       12.146        0.010      338.038       10.418      858.366
04/17/2014  02:57:00      -76.711      -42.172       -1.998       29.069       23.538       13.878      845.022      554.018      192.608        0.463        0.080       87.539       13.149        0.023      338.039       10.420      858.351
04/17/2014  02:58:00      -71.457      -40.441        2.513       36.921       20.084       16.155     1363.151      403.355      260.969        0.439        0.101       82.107       18.167        0.049      337.988       10.335      858.357
04/17/2014  02:59:00      -49.354      -43.254       -5.907       33.054       21.234       16.432     1092.587      450.885      270.023        0.308        0.091       65.625       19.624        0.089      337.944       10.259      858.376
04/17/2014  03:00:00      -50.750      -65.041       -1.540       23.639       18.949       15.793      558.799      359.049      249.427        0.399        0.058       82.498       12.844        0.024      338.056       10.448      858.395
04/17/2014  03:01:00      -57.771      -48.318        2.378       27.037       21.056       18.331      730.995      443.366      336.041        0.359        0.076       75.314       14.856        0.039      338.045       10.430      858.405
04/17/2014  03:02:00      -50.862      -61.189        5.930       43.318       42.291       24.715     1876.413     1788.559      610.833        0.532        0.214       79.567       26.827        0.114      338.021       10.391      858.407
04/17/2014  03:03:00      -53.104      -42.727       -1.542       54.828       41.188       27.208     3006.076     1696.472      740.301        0.504        0.272       68.159       27.072        0.158      337.958       10.284      858.401
04/17/2014  03:04:00      -19.489      -40.064       12.787       34.062       36.670       22.771     1160.221     1344.662      518.496        0.259        0.151       44.553       12.593        0.080      337.966       10.297      858.396
04/17/2014  03:05:00      -19.926      -51.209        4.436       43.776       27.309       25.222     1916.330      745.805      636.126        0.317        0.165       54.949       15.085        0.075      337.939       10.253      858.394
04/17/2014  03:06:00      -34.449      -48.215       18.993       48.183       36.510       25.366     2321.612     1332.996      643.456        0.408        0.215       59.258       26.009        0.193      337.896       10.180      858.395
04/17/2014  03:07:00      -66.298      -55.339        4.550       49.626       39.747       30.582     2462.722     1579.833      935.281        0.623        0.249       86.359       28.915        0.112      337.831       10.070      858.406
04/17/2014  03:08:00      -60.849      -55.149        7.933       57.447       45.347       31.879     3300.179     2056.347     1016.276        0.659        0.319       82.122       26.671        0.105      337.789       10.001      858.417
04/17/2014  03:09:00      -43.306      -58.051        9.146       57.396       41.692       31.101     3294.289     1738.193      967.261        0.566        0.300       72.424       24.842        0.118      337.786        9.997      858.411
04/17/2014  03:10:00      -98.869      -90.538       -3.889       54.605       34.063       26.909     2981.722     1160.281      724.110        1.143        0.243      134.060       26.875        0.040      337.706        9.862      858.396
04/17/2014  03:11:00      -95.755      -96.382       -0.101       41.861       36.485       24.140     1752.321     1331.121      582.724        1.106        0.183      135.862        9.522        0.005      337.676        9.812      858.374
04/17/2014  03:12:00      -99.149     -100.020       -4.598       48.002       43.883       31.384     2304.158     1925.695      984.930        1.253        0.261      140.835       32.254        0.052      337.605        9.693      858.356
04/17/2014  03:13:00      -86.360      -89.824        0.755       51.960       40.167       22.670     2699.825     1613.396      513.949        1.018        0.241      124.605       29.113        0.055      337.621        9.719      858.350
04/17/2014  03:14:00      -61.631      -67.961        6.452       46.457       44.263       24.068     2158.223     1959.235      579.279        0.658        0.235       91.745       26.104        0.081      337.619        9.715      858.342
04/17/2014  03:15:00      -97.236      -63.655        0.911       43.900       24.003       22.819     1927.224      576.132      520.710        0.827        0.151      116.219       23.083        0.039      337.635        9.741      858.331
04/17/2014  03:16:00      -84.639      -79.350        1.202       38.610       28.678       22.497     1490.705      822.407      506.129        0.814        0.141      116.018       18.248        0.025      337.676        9.810      858.321
04/17/2014  03:17:00     -108.346      -80.655       -5.998       35.773       28.100       20.511     1279.710      789.594      420.682        1.038        0.124      135.071       16.409        0.015      337.647        9.763      858.328
04/17/2014  03:18:00      -82.279      -78.316       -3.141       32.919       37.672       25.619     1083.662     1419.170      656.348        0.804        0.158      113.592       23.520        0.043      337.621        9.718      858.348
04/17/2014  03:19:00      -12.898      -28.193       10.018       32.520       27.537       19.155     1057.548      758.277      366.906        0.162        0.109       31.004       13.175        0.181      337.647        9.762      858.352
04/17/2014  03:20:00      -37.416      -21.670        4.883       26.553       20.637       20.764      705.051      425.901      431.152        0.173        0.078       43.238       17.986        0.173      337.633        9.739      858.359
04/17/2014  03:21:00      -75.371      -26.841        3.021       27.728       18.032       14.669      768.860      325.152      215.181        0.386        0.065       80.008       16.699        0.044      337.555        9.608      858.351
04/17/2014  03:22:00      -60.917      -43.665       -2.884       24.977       20.638       15.994      623.845      425.910      255.810        0.347        0.065       74.950        8.229        0.012      337.593        9.672      858.353
04/17/2014  03:23:00      -80.620      -52.004       -9.980       24.858       27.194       13.027      617.907      739.523      169.691        0.542        0.076       95.938       11.974        0.016      337.629        9.734      858.339
04/17/2014  03:24:00      -86.586      -36.726      -10.262       19.093       18.403       11.779      364.549      338.655      138.748        0.490        0.042       94.053       11.354        0.015      337.607        9.697      858.330
04/17/2014  03:25:00      -46.566      -20.569       -2.307       26.114       13.644       20.648      681.925      186.156      426.341        0.195        0.065       50.906       15.776        0.096      337.629        9.731      858.319
04/17/2014  03:26:00      -42.765      -15.035        1.867       24.840       16.109       12.297      617.010      259.511      151.222        0.154        0.051       45.331        5.898        0.017      337.742        9.921      858.321
04/17/2014  03:27:00      -31.259       13.814       -3.908       28.991       19.454       11.115      840.494      378.452      123.535        0.126        0.067       34.175        8.681        0.065      337.706        9.862      858.321
04/17/2014  03:28:00       -4.200      -11.655        6.181       13.862       13.140        8.676      192.155      172.659       75.266        0.032        0.022       12.388        5.735        0.214      337.722        9.889      858.319
04/17/2014  03:29:00      -44.001      -36.877       -1.776       15.419       12.515       13.586      237.760      156.629      184.589        0.194        0.029       57.411        8.254        0.021      337.639        9.749      858.316
04/17/2014  03:30:00      -52.196      -12.227       -8.670       16.553       15.913       12.773      274.016      253.222      163.152        0.182        0.035       53.609        5.404        0.010      337.618        9.714      858.325
04/17/2014  03:31:00      -67.362      -19.175      -14.136       15.978       16.152        9.496      255.296      260.900       90.174        0.286        0.030       70.038        8.230        0.014      337.660        9.786      858.312
04/17/2014  03:32:00      -83.631      -12.367      -13.992       12.618       11.600        9.400      159.225      134.551       88.353        0.386        0.019       84.540        5.348        0.004      337.545        9.592      858.291
04/17/2014  03:33:00      -95.245       -8.544      -16.908       16.102        9.514        9.172      259.259       90.510       84.123        0.493        0.022       95.627        4.080        0.002      337.638        9.747      858.272
04/17/2014  03:34:00      -98.999      -22.620       -7.857       20.927       18.178       11.778      437.947      330.441      138.725        0.564        0.045      101.550        9.698        0.009      337.641        9.752      858.269
04/17/2014  03:35:00      -65.158      -34.119        3.274       23.113       25.941       14.907      534.202      672.948      222.217        0.342        0.071       73.551       12.763        0.030      337.684        9.827      858.265
04/17/2014  03:36:00      -89.568      -40.332       -2.752       31.508       26.536       14.230      992.771      704.136      202.488        0.578        0.095       98.230       13.343        0.018      337.645        9.760      858.255
04/17/2014  03:37:00      -84.965      -16.382       -7.054       34.231       23.097       16.918     1171.795      533.478      286.213        0.476        0.100       86.530       14.770        0.029      337.626        9.728      858.246
04/17/2014  03:38:00      -57.848      -15.958       -0.595       40.938       29.267       21.175     1675.899      856.552      448.381        0.329        0.149       60.009       23.202        0.149      337.483        9.488      858.251
04/17/2014  03:39:00      -64.522      -32.163       -6.447       23.906       20.556       17.057      571.493      422.558      290.938        0.326        0.064       72.093       14.858        0.042      337.524        9.556      858.265
04/17/2014  03:40:00      -79.816      -33.212       -8.917       19.565       21.525       11.296      382.782      463.321      127.601        0.426        0.049       86.450        8.272        0.009      337.439        9.413      858.289
04/17/2014  03:41:00      -88.054      -34.297       -9.298       24.928       22.499       15.353      621.392      506.214      235.730        0.519        0.068       94.497       12.388        0.017      337.320        9.215      858.311
04/17/2014  03:42:00      -73.923      -23.311        0.415       19.169       22.078       13.213      367.468      487.437      174.595        0.352        0.051       77.512       11.846        0.023      337.305        9.191      858.327
04/17/2014  03:43:00      -65.702      -36.972       -5.229       26.929       26.095       16.247      725.168      680.931      263.949        0.369        0.084       75.390       12.410        0.027      337.299        9.180      858.341
04/17/2014  03:44:00      -98.408      -25.625       -4.171       18.133       19.825       15.066      328.797      393.027      226.997        0.565        0.047      101.689        9.704        0.009      337.255        9.106      858.359
04/17/2014  03:45:00      -87.758      -32.378       -4.084       18.740       20.416       15.495      351.198      416.823      240.097        0.489        0.050       93.541        9.702        0.011      337.240        9.082      858.367
04/17/2014  03:46:00     -104.339      -24.568       -7.989       24.703       19.369       12.824      610.218      375.158      164.453        0.635        0.057      107.192       11.914        0.012      337.214        9.037      858.356
04/17/2014  03:47:00     -101.285      -18.215       -5.291       25.414       20.693       15.986      645.864      428.204      255.549        0.597        0.066      102.910       12.302        0.014      337.205        9.022      858.357
04/17/2014  03:48:00      -89.113      -30.708       -5.750       40.035       20.501       18.458     1602.788      420.294      340.691        0.564        0.118       94.255       21.728        0.053      337.184        8.987      858.357
04/17/2014  03:49:00     -105.147      -61.027       -2.531       35.004       31.093       20.039     1225.312      966.758      401.555        0.869        0.130      121.573       21.063        0.030      337.178        8.976      858.370
04/17/2014  03:50:00      -69.694      -46.545        6.062       54.512       34.209       20.199     2971.597     1170.284      408.019        0.580        0.227       83.807       23.572        0.079      337.249        9.095      858.397
04/17/2014  03:51:00      -91.428      -32.012        0.896       37.588       27.633       17.284     1412.850      763.577      298.739        0.593        0.124       96.870       18.989        0.038      337.289        9.163      858.399
04/17/2014  03:52:00      -97.502      -52.721       -1.420       28.934       28.741       17.410      837.183      826.020      303.120        0.713        0.098      110.843       13.562        0.015      337.341        9.250      858.397
04/17/2014  03:53:00      -93.453      -47.073       -3.924       49.876       30.888       16.295     2487.647      954.057      265.511        0.734        0.185      104.639       18.026        0.030      337.412        9.368      858.387
04/17/2014  03:54:00     -121.420      -31.172        0.384       26.958       35.797       17.157      726.741     1281.450      294.346        0.901        0.115      125.358       13.019        0.011      337.308        9.194      858.380
04/17/2014  03:55:00     -105.164      -46.012       -4.628       28.121       25.841       15.463      790.796      667.735      239.100        0.745        0.085      114.790        9.470        0.007      337.307        9.194      858.388
04/17/2014  03:56:00      -63.310      -50.850        4.400       55.147       27.015       22.726     3041.165      729.810      516.469        0.545        0.214       81.203       20.193        0.062      337.371        9.299      858.398
04/17/2014  03:57:00      -54.250      -46.607        4.923       43.360       32.138       23.600     1880.122     1032.838      556.972        0.430        0.173       71.521       19.338        0.073      337.389        9.329      858.415
04/17/2014  03:58:00      -74.214      -54.297       -4.036       26.419       28.249       14.026      697.955      798.016      196.741        0.508        0.085       91.956       10.846        0.014      337.316        9.208      858.437
04/17/2014  03:59:00      -72.160      -47.428        7.456       33.933       32.206       19.966     1151.464     1037.246      398.647        0.505        0.129       86.351       18.291        0.045      337.412        9.370      858.440
04/17/2014  04:00:00      -87.923      -58.761       -1.846       42.197       27.977       22.355     1780.585      782.702      499.762        0.712        0.153      105.751       21.081        0.040      337.351        9.266      858.421
04/17/2014  04:01:00      -57.358      -41.405       -0.963       36.722       23.111       21.996     1348.514      534.127      483.827        0.369        0.118       70.741       22.724        0.103      337.336        9.240      858.402
04/17/2014  04:02:00      -98.859      -46.599       -4.452       24.765       20.169       15.056      613.292      406.775      226.670        0.661        0.062      109.291       15.402        0.020      337.331        9.234      858.393
04/17/2014  04:03:00      -93.149       -4.244      -11.000       30.734       23.403       18.691      944.576      547.714      349.370        0.533        0.092       93.246       17.330        0.035      337.194        9.004      858.389
04/17/2014  04:04:00     -113.271       -7.597       -8.692       32.670       26.259       20.257     1067.312      689.548      410.365        0.756        0.108      113.525       21.868        0.037      337.098        8.842      858.388
04/17/2014  04:05:00     -103.129      -39.057       -6.847       39.805       27.274       17.515     1584.408      743.856      306.758        0.742        0.132      110.277       16.960        0.024      337.102        8.849      858.379
04/17/2014  04:06:00      -99.806      -13.643      -10.605       35.868       20.012       18.361     1286.530      400.467      337.115        0.614        0.101      100.734       19.662        0.038      337.068        8.791      858.360
04/17/2014  04:07:00     -117.296       -9.312       -7.192       43.001       24.030       23.230     1849.074      577.453      539.624        0.843        0.148      117.665       26.399        0.050      337.021        8.712      858.351
04/17/2014  04:08:00     -126.397       -9.403       -6.285       28.679       27.895       17.061      822.490      778.154      291.066        0.900        0.095      126.746       17.522        0.019      337.029        8.726      858.338
04/17/2014  04:09:00     -113.146      -33.794       -7.471       27.291       21.774       19.331      744.810      474.099      373.671        0.780        0.080      118.085       15.187        0.017      337.063        8.784      858.327
04/17/2014  04:10:00      -91.549      -33.321        2.349       22.412       28.902       14.748      502.280      835.311      217.491        0.553        0.078       97.425       10.138        0.011      336.929        8.559      858.316
04/17/2014  04:11:00      -98.124      -28.963       -3.826       26.880       25.374       13.499      722.526      643.854      182.229        0.601        0.077      102.309        9.161        0.008      337.032        8.730      858.307
04/17/2014  04:12:00      -83.063      -29.436        1.169       34.138       27.898       19.897     1165.413      778.307      395.898        0.505        0.117       88.124       14.574        0.027      336.987        8.656      858.299
04/17/2014  04:13:00     -119.508      -47.489      -11.237       23.674       23.819       17.749      560.449      567.335      315.034        0.905        0.072      128.597        9.564        0.006      336.896        8.504      858.280
04/17/2014  04:14:00     -121.828       -2.058       -8.434       32.722       28.320       18.463     1070.756      802.032      340.893        0.857        0.111      121.846       18.512        0.023      336.866        8.454      858.261
04/17/2014  04:15:00     -103.720      -14.153       -5.014       40.954       31.398       22.328     1677.190      985.847      498.542        0.707        0.158      104.682       23.104        0.049      336.839        8.410      858.233
04/17/2014  04:16:00     -118.174      -17.976       -8.080       32.133       26.419       19.803     1032.535      697.938      392.170        0.824        0.106      119.533       17.620        0.022      336.809        8.360      858.230
04/17/2014  04:17:00     -127.005      -22.014      -10.139       26.888       26.811       15.492      722.983      718.817      239.989        0.920        0.084      128.899       13.176        0.010      336.873        8.466      858.238
04/17/2014  04:18:00      -88.743      -50.595       -6.133       48.032       26.297       20.259     2307.071      691.532      410.445        0.694        0.170      102.153       20.576        0.041      336.892        8.498      858.243
04/17/2014  04:19:00     -108.906      -30.681       -5.447       44.075       27.563       21.484     1942.583      759.720      461.560        0.800        0.158      113.145       25.197        0.050      336.831        8.396      858.259
04/17/2014  04:20:00     -105.759      -23.829        1.059       35.483       35.858       24.003     1259.056     1285.791      576.124        0.744        0.156      108.410       21.015        0.038      336.779        8.311      858.259
04/17/2014  04:21:00     -111.394      -10.510       -3.612       52.864       26.605       26.412     2794.574      707.804      697.618        0.837        0.210      111.889       30.330        0.073      336.810        8.362      858.264
04/17/2014  04:22:00     -129.973       -8.611      -10.420       29.918       21.060       17.012      895.058      443.526      289.408        0.935        0.081      130.258       10.789        0.007      336.830        8.394      858.272
04/17/2014  04:23:00      -98.571      -14.751       -2.265       46.691       26.649       20.350     2180.014      710.148      414.132        0.662        0.165       99.669       18.011        0.033      336.857        8.440      858.276
04/17/2014  04:24:00      -68.578      -19.166       -0.255       39.928       28.560       17.652     1594.255      815.698      311.609        0.390        0.136       71.206       18.818        0.070      336.910        8.528      858.275
04/17/2014  04:25:00     -115.312      -30.415       -8.037       36.435       29.884       18.713     1327.502      893.041      350.183        0.843        0.129      119.256       18.717        0.025      336.962        8.614      858.269
04/17/2014  04:26:00     -108.669      -15.328       -4.557       32.817       26.848       17.701     1076.931      720.840      313.309        0.709        0.106      109.744       16.114        0.022      336.948        8.593      858.269
04/17/2014  04:27:00      -76.093      -27.508        4.404       34.073       24.637       19.652     1160.978      607.006      386.193        0.436        0.108       80.912       20.346        0.063      336.962        8.614      858.260
04/17/2014  04:28:00      -97.771      -16.939       -3.242       35.078       20.997       16.464     1230.444      440.893      271.075        0.590        0.097       99.227       15.544        0.025      336.987        8.656      858.262
04/17/2014  04:29:00      -76.241      -17.008        5.004       29.327       18.513       16.422      860.080      342.718      269.688        0.380        0.074       78.115       15.161        0.038      337.029        8.726      858.242
04/17/2014  04:30:00      -78.425      -21.790        1.456       29.851       18.198       12.199      891.055      331.175      148.809        0.400        0.069       81.395       12.619        0.024      337.065        8.787      858.229
04/17/2014  04:31:00      -98.349      -21.229       -4.001       31.513       22.226       19.410      993.070      493.978      376.763        0.600        0.093      100.614       19.971        0.039      337.059        8.776      858.212
04/17/2014  04:32:00     -105.363      -37.835       -2.606       30.960       18.893       16.895      958.510      356.952      285.425        0.707        0.080      111.950       18.346        0.027      337.074        8.802      858.183
04/17/2014  04:33:00     -130.820      -39.845       -0.322       19.032       17.267       12.432      362.228      298.154      154.562        0.976        0.041      136.753       11.517        0.007      337.022        8.714      858.184
04/17/2014  04:34:00     -138.767      -27.783      -12.345       16.560       15.733       14.958      274.242      247.533      223.750        1.046        0.037      141.521       11.464        0.007      336.931        8.562      858.174
04/17/2014  04:35:00     -119.069      -36.155       -6.083       31.718       26.580       18.396     1006.032      706.508      338.427        0.879        0.103      124.438       14.902        0.014      336.944        8.584      858.159
04/17/2014  04:36:00     -127.159      -22.896       -5.012       34.471       22.160       19.133     1188.276      491.070      366.070        0.938        0.102      129.204       20.247        0.025      336.913        8.534      858.140
04/17/2014  04:37:00     -126.730      -10.604       -2.901       44.353       23.518       20.816     1967.184      553.115      433.309        0.957        0.148      127.173       21.431        0.028      336.890        8.496      858.126
04/17/2014  04:38:00     -152.276       15.993       -5.999       35.580       33.097       22.913     1265.917     1095.439      524.996        1.318        0.144      153.114       20.931        0.019      336.959        8.610      858.116
04/17/2014  04:39:00     -133.833       15.926       -1.752       36.479       30.021       15.746     1330.681      901.255      247.926        1.032        0.124      134.777       18.537        0.019      336.913        8.531      858.102
04/17/2014  04:40:00      -71.930      -14.019      -11.987       29.093       33.587       23.702      846.417     1128.094      561.772        0.402        0.127       73.284       15.392        0.044      336.953        8.598      858.092
04/17/2014  04:41:00      -88.261      -53.085       -2.421       39.773       34.847       21.981     1581.861     1214.313      483.179        0.695        0.164      102.995       19.817        0.037      336.969        8.625      858.081
04/17/2014  04:42:00      -72.469      -42.374       -0.958       64.401       34.730       24.904     4147.437     1206.191      620.204        0.651        0.299       83.948       25.035        0.089      336.879        8.476      858.064
04/17/2014  04:43:00     -123.267       10.013      -11.459       52.175       34.356       29.721     2722.204     1180.309      883.341        1.011        0.239      123.673       30.403        0.060      336.934        8.569      858.057
04/17/2014  04:44:00     -130.948       17.098      -17.453       38.560       35.988       22.964     1486.907     1295.144      527.356        1.053        0.165      132.059       17.264        0.017      337.025        8.720      858.048
04/17/2014  04:45:00     -120.344      -15.082       -7.302       26.389       30.798       21.392      696.391      948.498      457.617        0.843        0.105      121.285       13.484        0.012      336.941        8.581      858.039
04/17/2014  04:46:00     -118.605      -13.082      -11.927       44.924       40.944       24.740     2018.192     1676.409      612.082        0.934        0.215      119.324       25.040        0.044      336.939        8.576      858.035
04/17/2014  04:47:00     -124.838       17.086      -15.653       34.656       42.360       21.439     1201.068     1794.360      459.639        0.979        0.173      126.002       17.219        0.019      336.958        8.607      858.026
04/17/2014  04:48:00      -86.225      -11.255      -15.743       38.357       43.385       27.703     1471.230     1882.295      767.478        0.596        0.206       86.957       20.481        0.055      336.982        8.646      858.014
04/17/2014  04:49:00      -99.776      -25.155      -24.288       34.158       30.526       27.376     1166.802      931.826      749.446        0.701        0.142      102.898       17.719        0.030      336.918        8.540      858.010
04/17/2014  04:50:00      -89.665      -28.229       -3.930       28.871       38.080       20.909      833.517     1450.094      437.202        0.579        0.136       94.004        9.976        0.011      336.985        8.652      858.001
04/17/2014  04:51:00      -50.461        9.124       -2.813       32.006       28.103       16.015     1024.362      789.772      256.475        0.235        0.104       51.279       11.022        0.046      337.010        8.693      857.987
04/17/2014  04:52:00      -53.670       -9.651        1.123       19.183       15.957       19.561      367.970      254.617      382.625        0.199        0.050       54.531       14.795        0.074      337.023        8.717      857.980
04/17/2014  04:53:00      -10.841      -18.748       -0.814       11.443       12.902       10.990      130.952      166.473      120.779        0.044        0.021       21.657        4.568        0.044      337.097        8.840      857.976
04/17/2014  04:54:00      -42.485      -25.777       -4.750       22.195       18.539       10.899      492.614      343.708      118.799        0.172        0.048       49.693        6.837        0.019      336.975        8.635      857.968
04/17/2014  04:55:00      -71.900      -45.394       -5.115       16.895       17.618       10.584      285.432      310.406      112.016        0.398        0.035       85.031        4.961        0.003      336.919        8.541      857.972
04/17/2014  04:56:00      -74.193      -33.100       -8.525       15.972       12.327        7.959      255.097      151.954       63.342        0.357        0.024       81.242        4.913        0.004      336.952        8.599      857.965
04/17/2014  04:57:00      -51.726      -14.049       -4.600       15.101       14.173       10.782      228.030      200.864      116.258        0.172        0.027       53.600        8.810        0.027      337.026        8.721      857.956
04/17/2014  04:58:00      -69.687      -30.771       -5.134       14.987       15.049       11.703      224.623      226.480      136.965        0.321        0.029       76.178        5.353        0.005      337.051        8.764      857.954
04/17/2014  04:59:00      -54.383      -47.965        0.481       22.918       22.225       14.078      525.252      493.949      198.201        0.324        0.061       72.513       11.171        0.024      337.117        8.873      857.946
04/17/2014  05:00:00      -27.295      -37.998        3.598       28.635       23.043       17.598      819.967      530.968      309.696        0.193        0.083       46.785       15.617        0.111      337.252        9.102      857.942
04/17/2014  05:01:00       -6.212       -4.430       -0.803       15.880       15.806       13.827      252.169      249.814      191.175        0.038        0.035        7.630        6.327        0.688      337.168        8.960      857.940
04/17/2014  05:02:00      -54.053      -28.376        2.940       20.641       16.180       14.363      426.067      261.786      206.288        0.231        0.045       61.049        5.163        0.007      337.037        8.740      857.948
04/17/2014  05:03:00      -80.273      -55.470       -2.618       22.665       28.881       16.660      513.700      834.113      277.570        0.558        0.081       97.574        6.864        0.005      337.086        8.824      857.943
04/17/2014  05:04:00     -103.811      -70.277       -4.737       34.610       35.048       25.180     1197.869     1228.374      634.030        0.940        0.153      125.362       22.613        0.033      337.108        8.859      857.937
04/17/2014  05:05:00      -98.037      -80.046       -6.990       34.437       30.480       17.617     1185.936      929.030      310.346        0.925        0.121      126.565       15.838        0.016      337.123        8.886      857.944
04/17/2014  05:06:00      -77.048      -67.245       -1.951       52.289       31.289       23.649     2734.149      978.998      559.285        0.737        0.214      102.266       25.418        0.062      337.159        8.945      857.945
04/17/2014  05:07:00     -109.203      -96.041      -10.328       33.302       20.415       22.743     1109.029      416.752      517.244        1.165        0.102      145.427       21.317        0.021      337.190        8.998      857.941
04/17/2014  05:08:00      -86.700      -89.235       -1.942       35.164       33.230       18.403     1236.533     1104.236      338.676        0.908        0.134      124.417       19.360        0.024      337.155        8.938      857.937
04/17/2014  05:09:00      -50.482      -63.429        5.604       42.653       32.442       19.350     1819.312     1052.482      374.423        0.492        0.162       81.066       16.501        0.041      337.142        8.915      857.932
04/17/2014  05:10:00      -55.905      -61.894       -2.700       30.640       34.042       19.172      938.783     1158.858      367.552        0.471        0.123       83.404       22.570        0.073      337.178        8.978      857.928
04/17/2014  05:11:00      -80.368      -75.622       -4.229       28.754       30.942       15.081      826.774      957.433      227.443        0.710        0.101      110.353       11.534        0.011      337.144        8.919      857.906
04/17/2014  05:12:00      -53.746      -25.126        2.560       28.924       17.896       13.789      836.618      320.274      190.132        0.244        0.067       59.329       12.192        0.042      337.115        8.871      857.889
04/17/2014  05:13:00      -65.315      -15.327       -1.819       26.248       26.957       14.198      688.980      726.662      201.583        0.306        0.081       67.089        7.725        0.013      337.104        8.851      857.864
04/17/2014  05:14:00      -71.027        2.431       -3.116       28.787       20.239       14.886      828.694      409.605      221.603        0.326        0.073       71.068       15.086        0.045      336.999        8.677      857.853
04/17/2014  05:15:00     -123.190       -0.820      -12.239       28.056       21.548       13.968      787.123      464.321      195.106        0.839        0.072      123.193       10.568        0.007      336.823        8.383      857.841
04/17/2014  05:16:00     -109.184       -7.940       -2.849       42.273       24.849       20.263     1787.011      617.486      410.581        0.740        0.141      109.472       22.328        0.042      336.799        8.342      857.820
04/17/2014  05:17:00     -116.447       -6.124       -6.914       48.341       31.838       23.001     2336.897     1013.649      529.028        0.876        0.194      116.608       23.889        0.042      336.708        8.191      857.799
04/17/2014  05:18:00      -92.905      -23.626       -7.831       34.290       33.436       20.949     1175.811     1117.976      438.868        0.599        0.137       95.862       17.947        0.035      336.700        8.180      857.792
04/17/2014  05:19:00      -47.008      -32.507        3.698       37.504       18.641       14.751     1406.566      347.470      217.605        0.263        0.099       57.153       18.969        0.110      336.852        8.431      857.795
04/17/2014  05:20:00      -52.646      -24.532       -5.862       42.248       22.944       19.296     1784.914      526.406      372.351        0.305        0.134       58.081       24.230        0.174      336.799        8.342      857.795
04/17/2014  05:21:00      -62.649      -13.714       -2.349       29.100       20.804       17.500      846.833      432.798      306.248        0.285        0.079       64.132       16.827        0.069      336.769        8.293      857.786
04/17/2014  05:22:00      -55.348      -31.660       -1.950       31.093       17.731       11.654      966.793      314.394      135.808        0.274        0.071       63.763        6.839        0.012      336.764        8.285      857.772
04/17/2014  05:23:00      -64.242      -29.985       -1.431       18.303       22.523       15.853      335.013      507.305      251.307        0.306        0.055       70.895       12.307        0.030      336.743        8.250      857.761
04/17/2014  05:24:00      -61.488      -57.213       -5.406       40.862       22.782       13.032     1669.670      519.042      169.831        0.472        0.118       83.989       12.030        0.021      336.726        8.223      857.748
04/17/2014  05:25:00      -39.419      -45.748        5.041       45.397       29.639       20.934     2060.853      878.462      438.246        0.352        0.169       60.389       20.069        0.110      336.695        8.172      857.738
04/17/2014  05:26:00      -85.030      -35.182        1.047       36.891       29.829       16.911     1360.928      889.772      285.966        0.550        0.127       92.021       16.884        0.034      336.655        8.104      857.725
04/17/2014  05:27:00     -102.755      -22.049       -7.184       27.030       26.501       21.227      730.606      702.293      450.567        0.649        0.094      105.094       17.233        0.027      336.506        7.854      857.709
04/17/2014  05:28:00      -96.578      -25.831       -3.143       22.477       24.841       18.006      505.196      617.067      324.217        0.573        0.072       99.972       11.285        0.013      336.564        7.950      857.689
04/17/2014  05:29:00     -122.970      -24.768       -6.424       39.447       17.444       22.424     1556.050      304.282      502.841        0.907        0.118      125.440       24.634        0.039      336.386        7.653      857.669
04/17/2014  05:30:00     -107.424      -37.111       -5.830       28.816       24.855       16.706      830.350      617.793      279.093        0.734        0.086      113.653       14.160        0.016      336.390        7.660      857.663
04/17/2014  05:31:00      -78.183      -40.368       -6.879       44.906       23.420       20.157     2016.592      548.504      406.297        0.538        0.149       87.989       18.280        0.043      336.468        7.791      857.658
04/17/2014  05:32:00     -104.308      -24.339      -10.984       22.253       21.883       13.214      495.190      478.851      174.620        0.637        0.057      107.110       10.039        0.009      336.452        7.762      857.654
04/17/2014  05:33:00     -115.492      -60.204       -4.752       23.048       24.317       15.922      531.194      591.310      253.506        0.918        0.069      130.242       10.931        0.007      336.483        7.814      857.652
04/17/2014  05:34:00      -90.611      -55.946       -3.571       38.712       23.407       18.825     1498.649      547.900      354.362        0.688        0.120      106.491       18.925        0.032      336.448        7.757      857.654
04/17/2014  05:35:00      -75.557      -63.184       -5.003       26.930       19.810       16.025      725.199      392.428      256.814        0.555        0.069       98.494        8.625        0.008      336.600        8.010      857.657
04/17/2014  05:36:00      -99.644      -37.111       -0.820       27.098       22.804       15.768      734.318      520.009      248.642        0.640        0.075      106.331       16.004        0.023      336.632        8.064      857.654
04/17/2014  05:37:00      -59.730      -45.582        2.540       30.684       23.503       16.663      941.484      552.389      277.648        0.371        0.089       75.136       16.203        0.047      336.717        8.208      857.637
04/17/2014  05:38:00      -33.463      -28.767        5.694       39.586       20.390       18.478     1567.033      415.740      341.428        0.215        0.116       44.128       18.264        0.171      336.630        8.062      857.629
04/17/2014  05:39:00      -26.673      -26.532        5.061       32.012       26.995       16.650     1024.737      728.705      277.225        0.174        0.102       37.621       16.930        0.203      336.687        8.157      857.620
04/17/2014  05:40:00      -26.212      -23.546        7.929       33.115       24.620       20.811     1096.611      606.160      433.093        0.172        0.107       35.235       21.679        0.379      336.678        8.142      857.630
04/17/2014  05:41:00       -5.404      -21.304       17.271       27.070       21.948       17.917      732.770      481.727      321.009        0.116        0.077       21.979       14.756        0.451      336.675        8.137      857.637
04/17/2014  05:42:00      -34.914      -26.190       12.933       35.691       23.789       23.832     1273.883      565.928      567.980        0.224        0.120       43.645       24.960        0.327      336.627        8.056      857.627
04/17/2014  05:43:00      -64.204      -40.162       -2.738       27.958       19.096       16.591      781.626      364.642      275.275        0.358        0.071       75.731       12.130        0.026      336.575        7.969      857.621
04/17/2014  05:44:00      -78.618      -39.416       -0.487       23.977       19.069       14.841      574.910      363.619      220.264        0.445        0.058       87.945       12.775        0.021      336.472        7.797      857.620
04/17/2014  05:45:00      -66.436      -20.981        0.679       17.887       12.688       11.611      319.942      160.989      134.804        0.273        0.031       69.671        6.981        0.010      336.441        7.745      857.639
04/17/2014  05:46:00      -12.839      -14.373        3.838       18.678       15.997       11.823      348.852      255.907      139.784        0.057        0.037       19.272       11.107        0.332      336.455        7.769      857.643
04/17/2014  05:47:00      -13.872      -11.335        3.424       13.693        8.455       10.656      187.485       71.486      113.549        0.035        0.019       17.914        9.763        0.297      336.591        7.996      857.654
04/17/2014  05:48:00      -24.437      -22.029        2.498       17.654       13.521        9.404      311.665      182.821       88.437        0.084        0.029       32.900        8.224        0.062      336.536        7.905      857.646
04/17/2014  05:49:00      -62.605      -14.543       -4.068       15.701       12.644        9.676      246.534      159.863       93.618        0.232        0.025       64.271        7.476        0.014      336.565        7.952      857.639
04/17/2014  05:50:00      -56.075      -33.337       -0.983       27.219       15.796       13.043      740.881      249.516      170.115        0.271        0.058       65.236       12.160        0.035      336.561        7.947      857.649
04/17/2014  05:51:00      -61.574      -43.721       -5.909       26.846       13.476       10.569      720.723      181.604      111.701        0.338        0.051       75.518        7.060        0.009      336.491        7.828      857.658
04/17/2014  05:52:00      -38.118      -20.799       -2.549       28.665       19.137       14.918      821.655      366.214      222.561        0.165        0.071       43.423       18.872        0.189      336.568        7.958      857.670
04/17/2014  05:53:00      -47.699      -37.330       -2.920       21.947       11.190        9.743      481.693      125.218       94.930        0.219        0.035       60.570       10.778        0.032      336.540        7.911      857.684
04/17/2014  05:54:00      -62.166      -28.384       -3.489       20.635       16.656       14.488      425.811      277.430      209.902        0.280        0.046       68.340       11.156        0.027      336.520        7.877      857.700
04/17/2014  05:55:00      -62.327      -29.071       -4.669       21.726       27.108       11.708      472.010      734.851      137.087        0.305        0.067       68.774        8.119        0.014      336.533        7.899      857.707
04/17/2014  05:56:00      -61.154       -7.452       -0.517       40.943       15.447       11.795     1676.362      238.603      139.124        0.292        0.103       61.606       17.351        0.079      336.442        7.745      857.696
04/17/2014  05:57:00      -89.083      -11.138       -6.702       25.298       17.786       10.822      639.993      316.355      117.117        0.459        0.054       89.777       12.037        0.018      336.380        7.643      857.673
04/17/2014  05:58:00      -92.849      -10.167       -6.615       25.502       17.356       14.565      650.334      301.233      212.131        0.497        0.058       93.404       13.502        0.021      336.376        7.637      857.651
04/17/2014  05:59:00     -100.413      -14.132      -11.138       16.681       12.321       14.825      278.239      151.812      219.786        0.553        0.032      101.403       11.093        0.012      336.342        7.579      857.639
04/17/2014  06:00:00      -99.054      -30.672       -8.647       13.434       11.978        9.675      180.470      143.466       93.599        0.562        0.021      103.694        4.436        0.002      336.348        7.588      857.646
04/17/2014  06:01:00      -71.949      -33.651       -3.477       19.525       17.208       13.595      381.241      296.121      184.811        0.359        0.043       79.429       12.320        0.024      336.379        7.641      857.660
04/17/2014  06:02:00      -55.834      -19.437       -6.896       10.218       12.123        7.410      104.408      146.968       54.910        0.192        0.015       59.121        2.236        0.001      336.433        7.732      857.683
04/17/2014  06:03:00      -67.665      -10.317       -3.586       15.705       15.223        9.915      246.639      231.733       98.310        0.264        0.029       68.447        8.084        0.014      336.470        7.793      857.701
04/17/2014  06:04:00      -58.076      -13.936       -5.766       16.685       15.989       12.877      278.384      255.652      165.812        0.215        0.035       59.724       10.848        0.033      336.469        7.791      857.703
04/17/2014  06:05:00     -115.807      -19.064      -11.875       18.211       18.041       14.550      331.638      325.475      211.695        0.739        0.043      117.365        9.125        0.006      336.297        7.505      857.703
04/17/2014  06:06:00      -99.361       -6.327      -10.753       24.888       21.236       17.209      619.424      450.957      296.138        0.570        0.068       99.562       16.664        0.028      336.236        7.402      857.713
04/17/2014  06:07:00     -109.991       -3.281       -9.395       27.408       17.429       17.937      751.204      303.761      321.736        0.679        0.069      110.040       16.021        0.021      336.185        7.317      857.716
04/17/2014  06:08:00     -114.597      -11.471      -15.176       25.612       16.989       12.849      655.953      288.623      165.091        0.730        0.055      115.170       10.861        0.009      336.094        7.163      857.723
04/17/2014  06:09:00      -69.029       -9.411       -5.386       21.672       19.794       15.204      469.664      391.798      231.148        0.299        0.055       69.667       13.519        0.038      336.086        7.152      857.731
04/17/2014  06:10:00      -83.006      -18.673      -12.363       19.744       21.023       11.413      389.825      441.987      130.251        0.418        0.048       85.080        5.880        0.005      336.062        7.110      857.739
04/17/2014  06:11:00      -76.350      -33.017       -9.749       21.317       15.203       14.690      454.409      231.117      215.799        0.396        0.045       83.183       12.908        0.024      336.041        7.077      857.744
04/17/2014  06:12:00      -98.483      -19.878      -15.607       17.125       15.118       15.867      293.263      228.560      251.754        0.556        0.039      100.469       13.192        0.017      336.010        7.023      857.748
04/17/2014  06:13:00      -62.120      -29.686       -6.267       25.138       17.787       14.337      631.920      316.368      205.563        0.297        0.058       68.849       15.154        0.048      336.030        7.059      857.753
04/17/2014  06:14:00      -79.004       -9.855      -15.998       24.684       14.324       11.536      609.296      205.164      133.084        0.377        0.047       79.616        7.617        0.009      336.035        7.067      857.757
04/17/2014  06:15:00      -77.938      -12.506       -8.462       27.881       16.695       13.720      777.363      278.717      188.228        0.377        0.062       78.935       13.357        0.029      336.008        7.021      857.773
04/17/2014  06:16:00      -96.778      -14.267      -12.612       16.735       14.232       13.300      280.056      202.558      176.887        0.519        0.033       97.824       10.464        0.011      335.987        6.986      857.780
04/17/2014  06:17:00      -92.710       -9.513      -11.780       19.539       11.147       10.773      381.788      124.263      116.053        0.472        0.031       93.197        8.390        0.008      335.990        6.991      857.760
04/17/2014  06:18:00      -63.893      -18.353      -14.555       18.403       12.589       10.622      338.654      158.481      112.818        0.262        0.030       66.476        9.562        0.021      336.039        7.073      857.746
04/17/2014  06:19:00      -58.145      -21.352       -9.588       14.033       11.337        8.178      196.929      128.528       66.887        0.216        0.020       61.942        6.568        0.011      336.127        7.219      857.736
04/17/2014  06:20:00      -42.504      -15.971       -6.682       17.897       10.337        9.719      320.318      106.855       94.466        0.131        0.026       45.406        5.853        0.017      336.199        7.341      857.729
04/17/2014  06:21:00      -12.329       -8.604       -2.011       12.142       11.700        8.537      147.424      136.893       72.874        0.029        0.018       15.034        6.004        0.160      336.507        7.855      857.717
04/17/2014  06:22:00        8.701       -4.753        3.867        8.020        9.883        8.819       64.321       97.671       77.773        0.018        0.012        9.915        2.091        0.044      336.511        7.863      857.722
04/17/2014  06:23:00       10.265        8.413       -0.634       14.679        9.816       11.296      215.477       96.358      127.597        0.031        0.022       13.272        7.080        0.285      336.636        8.073      857.726
04/17/2014  06:24:00        9.404        7.851        6.491       13.334       10.811        7.430      177.786      116.880       55.207        0.027        0.017       12.250        6.130        0.250      336.658        8.108      857.725
04/17/2014  06:25:00      -10.582        6.360        1.275       12.364        7.966        7.742      152.879       63.453       59.944        0.022        0.014       12.346        7.357        0.355      336.595        8.004      857.714
04/17/2014  06:26:00      -37.327       -0.571       -3.315       12.103        8.951        9.286      146.487       80.120       86.224        0.086        0.016       37.331        3.439        0.008      336.365        7.618      857.698
04/17/2014  06:27:00      -32.619       -3.315       -2.286       12.076        7.086        7.048      145.826       50.210       49.668        0.066        0.012       32.787        4.433        0.018      336.414        7.700      857.700
04/17/2014  06:28:00      -24.095       -0.877       -0.861       12.789        8.188        6.269      163.546       67.040       39.304        0.043        0.013       24.111        4.174        0.030      336.421        7.711      857.703
04/17/2014  06:29:00      -33.459        0.678       -1.635        8.842        8.093        7.061       78.182       65.492       49.852        0.066        0.010       33.465        3.762        0.013      336.392        7.663      857.702
04/17/2014  06:30:00      -48.275       -3.627       -9.650       10.173        8.675        7.225      103.499       75.251       52.194        0.133        0.012       48.411        5.857        0.015      336.414        7.700      857.692
04/17/2014  06:31:00      -36.150       -0.625       -5.464        9.137        6.333        5.313       83.478       40.106       28.233        0.074        0.008       36.155        1.098        0.001      336.395        7.667      857.676
04/17/2014  06:32:00      -43.707       -9.961       -1.196       10.030        8.218        6.119      100.596       67.536       37.447        0.111        0.010       44.828        3.625        0.007      336.352        7.594      857.664
04/17/2014  06:33:00      -32.877       -6.750      -10.712       12.801        8.195        6.257      163.859       67.156       39.147        0.076        0.014       33.562        6.223        0.034      336.365        7.619      857.657
04/17/2014  06:34:00      -30.842       -9.418       -0.366       12.275        9.632        5.265      150.681       92.768       27.721        0.066        0.014       32.248        3.196        0.010      336.475        7.802      857.649
04/17/2014  06:35:00      -44.006        1.147       -5.528        6.658        6.216        6.059       44.322       38.633       36.709        0.104        0.006       44.021        2.241        0.003      336.356        7.602      857.648
04/17/2014  06:36:00      -67.386       -9.718       -8.159       18.312       12.820        6.443      335.337      164.348       41.518        0.262        0.027       68.083        3.607        0.003      336.331        7.561      857.651
04/17/2014  06:37:00      -71.904       -1.663       -6.108       12.645        9.468       10.565      159.886       89.644      111.623        0.279        0.018       71.923        8.017        0.012      336.310        7.525      857.656
04/17/2014  06:38:00      -62.942       -9.484       -4.929       10.574       10.266        9.525      111.808      105.391       90.727        0.219        0.015       63.652        6.228        0.010      336.369        7.623      857.675
04/17/2014  06:39:00      -62.853       -4.102      -11.814       12.675       10.790        7.094      160.649      116.415       50.329        0.222        0.016       62.987        3.836        0.004      336.275        7.468      857.691
04/17/2014  06:40:00      -71.464       -4.601      -10.450       11.323        8.444        9.420      128.205       71.306       88.730        0.276        0.014       71.612        3.075        0.002      336.194        7.332      857.702
04/17/2014  06:41:00      -81.916       -6.293      -11.035       16.312       10.342       11.081      266.084      106.964      122.787        0.368        0.025       82.157        4.256        0.003      336.236        7.402      857.709
04/17/2014  06:42:00      -84.942       -5.285      -10.713       14.759       12.859        9.784      217.828      165.344       95.717        0.392        0.024       85.106        8.750        0.011      336.208        7.355      857.706
04/17/2014  06:43:00      -94.658       -4.745       -9.516       19.387       11.716        9.597      375.864      137.272       92.104        0.484        0.030       94.776        8.959        0.009      336.202        7.343      857.695
04/17/2014  06:44:00      -88.127      -18.038       -9.639       26.715       13.110       12.374      713.668      171.862      153.114        0.461        0.052       89.954       13.811        0.024      336.223        7.381      857.690
04/17/2014  06:45:00      -94.053      -12.257       -7.817       18.243       18.995       13.813      332.805      360.798      190.787        0.497        0.044       94.848        9.683        0.010      336.175        7.300      857.693
04/17/2014  06:46:00      -76.280      -22.863       -1.324       23.610       15.426       14.242      557.448      237.964      202.830        0.367        0.050       79.632       13.056        0.027      336.266        7.453      857.692
04/17/2014  06:47:00      -39.165      -22.440       -6.984       27.067       19.412       15.678      732.636      376.823      245.788        0.172        0.068       45.138        5.909        0.017      336.310        7.526      857.695
04/17/2014  06:48:00      -33.126      -17.411        2.926       16.262       17.239       12.443      264.448      297.193      154.833        0.106        0.036       37.423        8.084        0.047      336.442        7.747      857.699
04/17/2014  06:49:00      -13.857       -8.029       -5.559        9.831       10.611        7.067       96.650      112.598       49.944        0.027        0.013       16.015        5.779        0.130      336.508        7.856      857.707
04/17/2014  06:50:00      -12.789        1.694       -2.476        6.975        4.126        5.129       48.651       17.020       26.305        0.013        0.005       12.901        2.205        0.029      336.697        8.173      857.707
04/17/2014  06:51:00      -22.361        5.044       -2.860        5.875        4.566        4.480       34.519       20.844       20.071        0.030        0.004       22.923        3.383        0.022      336.681        8.147      857.709
04/17/2014  06:52:00      -32.731       -8.253       -1.538       10.885       11.126        7.661      118.489      123.790       58.698        0.072        0.015       33.755        4.308        0.016      336.666        8.123      857.712
04/17/2014  06:53:00      -54.962       -6.988       -3.009       13.714       12.582        7.279      188.070      158.302       52.982        0.174        0.020       55.405        4.002        0.005      336.631        8.063      857.713
04/17/2014  06:54:00      -69.193      -13.382       -2.628       13.539       16.947       10.672      183.309      287.199      113.899        0.278        0.029       70.475        7.519        0.011      336.618        8.043      857.727
04/17/2014  06:55:00      -94.933      -19.484       -8.108       11.869       14.312       10.623      140.879      204.836      112.849        0.496        0.023       96.911        9.064        0.009      336.608        8.025      857.740
04/17/2014  06:56:00      -78.910      -35.700       -8.562       20.608       14.021        9.196      424.701      196.599       84.560        0.414        0.035       86.610        5.226        0.004      336.589        7.993      857.729
04/17/2014  06:57:00      -84.871      -16.367       -4.007       19.050       15.590        9.177      362.916      243.034       84.222        0.409        0.035       86.435        7.089        0.007      336.701        8.181      857.716
04/17/2014  06:58:00      -55.612      -18.662        1.743       13.543       14.929       10.412      183.414      222.880      108.400        0.198        0.026       58.660        6.528        0.012      336.733        8.234      857.713
04/17/2014  06:59:00      -52.642      -10.223       -1.754       13.050       11.802        8.706      170.294      139.292       75.787        0.163        0.019       53.626        5.689        0.011      336.760        8.279      857.709
04/17/2014  07:00:00      -65.529        5.114       -4.039       20.271        9.716        9.765      410.923       94.407       95.353        0.247        0.030       65.728       10.384        0.025      336.775        8.304      857.709
04/17/2014  07:01:00      -60.718       -7.239       -0.943       18.611       10.154        8.225      346.355      103.112       67.647        0.213        0.026       61.148        8.487        0.019      336.785        8.322      857.716
04/17/2014  07:02:00      -62.891       -2.192       -0.020       17.648       12.579        9.954      311.465      158.243       99.076        0.226        0.028       62.929        9.868        0.025      336.816        8.372      857.718
04/17/2014  07:03:00      -48.133       -1.547       -0.569       17.108       11.136        9.587      292.694      124.012       91.919        0.141        0.025       48.158        8.518        0.031      336.910        8.528      857.733
04/17/2014  07:04:00      -58.235      -16.242       -4.762       13.909       11.170        5.726      193.456      124.774       32.782        0.201        0.018       60.457        5.775        0.009      336.962        8.614      857.734
04/17/2014  07:05:00      -55.429       -8.950       -5.133        8.717       10.356        6.560       75.986      107.253       43.033        0.170        0.011       56.147        4.368        0.006      336.977        8.637      857.739
04/17/2014  07:06:00      -39.637      -14.375       -0.132        9.350       11.388        8.051       87.427      129.687       64.821        0.103        0.014       42.163        5.670        0.018      337.036        8.737      857.731
04/17/2014  07:07:00      -36.465       -2.481       -1.682       10.208        6.352        7.556      104.211       40.346       57.094        0.077        0.010       36.549        5.802        0.025      337.098        8.841      857.726
04/17/2014  07:08:00      -21.568        6.861        1.148        9.714       10.860       11.024       94.356      117.945      121.528        0.042        0.017       22.633        4.219        0.035      337.344        9.254      857.722
04/17/2014  07:09:00      -23.112       -8.140       -0.502        6.929        8.645        5.807       48.007       74.744       33.715        0.038        0.008       24.503        2.704        0.012      337.236        9.074      857.726
04/17/2014  07:10:00      -17.009       -1.244       -4.944        7.833        8.531        8.810       61.361       72.780       77.611        0.026        0.011       17.055        3.862        0.051      337.307        9.194      857.724
04/17/2014  07:11:00      -17.794        3.309        0.059        6.714        6.768       11.691       45.080       45.812      136.683        0.028        0.011       18.099        7.211        0.159      337.404        9.356      857.730
04/17/2014  07:12:00       14.448       23.791        9.580       14.363       15.333       12.417      206.308      235.097      154.176        0.073        0.030       27.834       11.870        0.182      337.523        9.556      857.743
04/17/2014  07:13:00       17.632       37.817       12.192       15.655       10.293       13.627      245.089      105.936      185.692        0.121        0.027       41.725        6.447        0.024      337.422        9.384      857.753
04/17/2014  07:14:00       21.210       34.442       15.290       13.040       12.303       10.040      170.049      151.366      100.806        0.115        0.021       40.449        5.691        0.020      337.414        9.372      857.763
04/17/2014  07:15:00       -4.406        9.390       14.709       15.117       11.687        8.268      228.515      136.578       68.364        0.038        0.022       10.372        5.305        0.262      337.714        9.876      857.777
04/17/2014  07:16:00      -30.948        1.450        5.986       10.808        6.413        7.936      116.805       41.123       62.981        0.061        0.011       30.982        4.210        0.018      337.327        9.226      857.794
04/17/2014  07:17:00      -22.374       -0.282        0.982       12.262       10.853        8.052      150.363      117.789       64.827        0.042        0.017       22.376        4.106        0.034      337.578        9.647      857.808
04/17/2014  07:18:00      -24.315       -9.705        2.091       13.184       14.003        8.773      173.805      196.078       76.961        0.057        0.022       26.181        8.092        0.096      337.488        9.496      857.805
04/17/2014  07:19:00      -10.796      -14.998        3.345       13.722       11.397       10.004      188.297      129.882      100.085        0.039        0.021       18.479        7.279        0.155      337.665        9.793      857.809
04/17/2014  07:20:00      -20.934       -4.378        2.767       11.361       12.112       10.490      129.075      146.698      110.044        0.043        0.019       21.387        8.883        0.173      337.599        9.681      857.803
04/17/2014  07:21:00      -26.772       -1.750        1.808       10.945       16.216       11.910      119.797      262.967      141.854        0.062        0.026       26.829        9.612        0.128      337.611        9.703      857.796
04/17/2014  07:22:00      -28.601      -25.828       -2.433       10.642       14.042        9.230      113.258      197.188       85.186        0.094        0.020       38.538        4.717        0.015      337.505        9.525      857.788
04/17/2014  07:23:00       -6.637      -25.370        1.815       10.155       11.861        8.798      103.121      140.689       77.410        0.051        0.016       26.224        7.185        0.075      337.530        9.566      857.784
04/17/2014  07:24:00      -20.367      -11.658        5.166       11.733       12.049       14.912      137.674      145.188      222.356        0.054        0.025       23.467        8.695        0.137      337.736        9.911      857.779
04/17/2014  07:25:00      -15.896       -2.722        3.941       11.085       10.343       10.785      122.876      106.971      116.314        0.031        0.017       16.127        7.200        0.199      337.759        9.950      857.769
04/17/2014  07:26:00      -31.667       -4.052        4.108       13.407       10.175        9.079      179.745      103.534       82.426        0.070        0.018       31.926        4.192        0.017      337.610        9.699      857.764
04/17/2014  07:27:00      -17.395       -9.018       -0.897       11.610       10.366        8.273      134.798      107.453       68.434        0.035        0.016       19.594        7.129        0.132      337.678        9.814      857.775
04/17/2014  07:28:00      -33.667       -4.893        2.246       18.171       10.172       10.675      330.202      103.479      113.954        0.085        0.027       34.021        8.657        0.065      337.684        9.825      857.780
04/17/2014  07:29:00       -3.043      -17.906        2.180        9.821       14.311        8.244       96.445      204.817       67.967        0.035        0.018       18.163        5.474        0.091      337.755        9.943      857.779
04/17/2014  07:30:00       -7.062      -22.075        9.726       14.250       15.203       11.090      203.069      231.138      122.994        0.059        0.028       23.177        7.848        0.115      337.929       10.234      857.788
04/17/2014  07:31:00      -26.163      -13.797       -8.329        7.445        8.154        7.650       55.426       66.485       58.527        0.056        0.009       29.578        1.987        0.005      337.690        9.835      857.780
04/17/2014  07:32:00      -22.369       -4.343       -2.101       10.406       10.515        6.568      108.291      110.575       43.143        0.039        0.013       22.786        2.912        0.016      337.783        9.992      857.782
04/17/2014  07:33:00      -15.060      -14.234        0.716        8.660        9.703        7.043       74.989       94.158       49.607        0.032        0.011       20.722        3.620        0.031      337.820       10.052      857.789
04/17/2014  07:34:00      -10.265        1.001        8.124       11.160       12.555       17.932      124.550      157.621      321.572        0.039        0.030       10.314        8.484        0.677      338.357       10.954      857.795
04/17/2014  07:35:00      -17.737       10.227       11.941       11.669       12.417       17.972      136.159      154.180      322.988        0.059        0.031       20.474       12.428        0.368      338.298       10.855      857.800
04/17/2014  07:36:00      -25.242        6.808       13.322       18.208       15.161       15.281      331.544      229.841      233.518        0.083        0.040       26.144       13.996        0.287      338.424       11.066      857.802
04/17/2014  07:37:00      -23.320       10.324       16.511       14.631       10.760       13.746      214.079      115.772      188.954        0.072        0.026       25.504       11.203        0.193      338.321       10.893      857.800
04/17/2014  07:38:00      -25.984       13.753        3.367       11.194        9.358       12.953      125.310       87.580      167.789        0.063        0.019       29.399       10.238        0.121      338.014       10.378      857.796
04/17/2014  07:39:00      -16.728       -2.513       -1.500       10.397        6.529        6.104      108.102       42.624       37.265        0.024        0.009       16.916        4.845        0.082      338.081       10.490      857.792
04/17/2014  07:40:00      -25.474      -31.740        2.535       11.392       24.872       15.738      129.784      618.593      247.677        0.133        0.050       40.698       13.021        0.102      337.952       10.275      857.791
04/17/2014  07:41:00      -13.887      -14.577       20.428       19.285       19.749       18.719      371.910      390.029      350.413        0.097        0.056       20.133        9.425        0.219      338.525       11.238      857.793
04/17/2014  07:42:00      -16.094       -1.656        8.787       11.756       10.655       12.874      138.199      113.532      165.740        0.038        0.021       16.179        7.657        0.224      338.330       10.908      857.797
04/17/2014  07:43:00        5.914        4.734       29.145       17.051       10.192       13.369      290.720      103.881      178.732        0.074        0.029        7.576        5.357        0.500      338.772       11.651      857.795
04/17/2014  07:44:00        4.451        9.416       27.861       12.209       15.460       16.121      149.050      239.027      259.884        0.077        0.032       10.415       10.230        0.965      338.491       11.178      857.786
04/17/2014  07:45:00      -13.366       -3.467       16.922       11.077       11.875       16.443      122.708      141.016      270.388        0.051        0.027       13.808       10.531        0.582      338.656       11.455      857.784
04/17/2014  07:46:00      -11.590       -3.356       20.925       13.928       19.769       20.363      194.001      390.799      414.632        0.079        0.050       12.066       14.610        1.466      338.477       11.156      857.781
04/17/2014  07:47:00       -7.823        6.940       12.944       19.678       12.960       15.919      387.206      167.964      253.401        0.054        0.040       10.458       15.854        2.298      338.340       10.925      857.785
04/17/2014  07:48:00       -6.250       -5.030        5.194       13.206       10.508       13.726      174.406      110.420      188.392        0.028        0.024        8.023        7.735        0.930      338.530       11.245      857.792
04/17/2014  07:49:00      -22.045       18.688       13.818       21.080       16.939       14.957      444.356      286.941      223.713        0.099        0.048       28.901        9.730        0.113      338.512       11.214      857.804
04/17/2014  07:50:00      -28.903       19.592       22.688       20.494       16.393       16.141      419.985      268.725      260.540        0.134        0.047       34.918        7.893        0.051      338.266       10.800      857.820
04/17/2014  07:51:00      -30.319       15.045        6.077       18.228       15.794       22.085      332.250      249.455      487.762        0.113        0.053       33.846       16.097        0.226      338.530       11.247      857.818
04/17/2014  07:52:00       30.292       33.955       24.272       43.224       32.987       29.587     1868.279     1088.143      875.414        0.324        0.192       45.503       16.070        0.125      338.402       11.029      857.809
04/17/2014  07:53:00       62.373       44.875       23.799       45.381       31.800       32.954     2059.408     1011.259     1085.942        0.531        0.208       76.839       28.641        0.139      338.233       10.744      857.803
04/17/2014  07:54:00       93.055       53.297       36.043       30.222       30.082       22.711      913.373      904.898      515.783        0.757        0.117      107.237       19.237        0.032      338.172       10.644      857.792
04/17/2014  07:55:00       82.021       40.655       27.456       27.948       28.807       24.899      781.085      829.837      619.936        0.568        0.112       91.544       15.796        0.030      338.121       10.558      857.785
04/17/2014  07:56:00       65.641       59.847       27.124       33.637       31.480       30.143     1131.481      990.961      908.623        0.583        0.152       88.828       10.309        0.013      338.348       10.938      857.777
04/17/2014  07:57:00       66.656       29.966       37.873       39.041       35.144       36.251     1524.206     1235.081     1314.162        0.542        0.204       73.082       23.127        0.100      338.615       11.386      857.773
04/17/2014  07:58:00       56.769       43.223       30.095       48.858       39.476       23.333     2387.115     1558.354      544.413        0.524        0.224       71.351       22.749        0.102      338.421       11.061      857.776
04/17/2014  07:59:00       51.567       38.244        5.946       22.776       21.386       24.225      518.733      457.345      586.859        0.286        0.078       64.201       16.483        0.066      338.128       10.568      857.780
04/17/2014  08:00:00        2.541       58.990       20.262       22.374       24.434       29.474      500.599      597.016      868.705        0.293        0.098       59.045       17.307        0.086      338.385       11.000      857.783
04/17/2014  08:01:00        0.176       48.429        3.850       20.196       37.117       33.695      407.887     1377.674     1135.361        0.264        0.146       48.430       30.772        0.404      338.478       11.156      857.783
04/17/2014  08:02:00        0.121      -19.505       21.274       20.109       32.871       23.230      404.379     1080.477      539.651        0.143        0.101       19.505       12.861        0.435      338.823       11.736      857.794
04/17/2014  08:03:00        4.552      -13.398       34.246       16.875       38.217       26.031      284.780     1460.524      677.632        0.190        0.121       14.150       21.575        2.325      338.924       11.907      857.808
04/17/2014  08:04:00       11.775       15.982       47.305       23.273       28.855       17.824      541.639      832.614      317.684        0.216        0.085       19.851       10.501        0.280      339.058       12.132      857.822
04/17/2014  08:05:00       36.320      -21.303       24.275       31.998       29.623       24.920     1023.853      877.523      621.024        0.244        0.126       42.106       16.653        0.156      338.649       11.444      857.830
04/17/2014  08:06:00       35.536       -5.300       18.165       21.995       35.913       28.227      483.779     1289.748      796.787        0.210        0.129       35.929       27.610        0.591      338.462       11.131      857.832
04/17/2014  08:07:00       30.323      -16.903        4.743       22.217       20.808       27.098      493.601      432.980      734.294        0.144        0.083       34.716       20.708        0.356      338.753       11.619      857.824
04/17/2014  08:08:00       25.067        5.877       27.719       17.639       21.572       21.609      311.150      465.334      466.963        0.134        0.062       25.747       17.467        0.460      338.762       11.634      857.809
04/17/2014  08:09:00       23.272       51.208        1.360       20.345       23.995       22.611      413.901      575.783      511.241        0.233        0.075       56.248       16.999        0.091      338.794       11.688      857.803
04/17/2014  08:10:00       42.615       59.147       -2.272       30.578       24.006       18.509      935.028      576.301      342.576        0.359        0.093       72.900       16.020        0.048      338.778       11.662      857.796
04/17/2014  08:11:00        8.856        8.116       24.441       21.336       19.032       21.416      455.228      362.202      458.652        0.101        0.064       12.013       12.166        1.026      339.257       12.466      857.788
04/17/2014  08:12:00       14.202       -0.934       10.476       26.544       24.722       32.409      704.587      611.154     1050.351        0.134        0.118       14.233       21.317        2.243      339.041       12.104      857.776
04/17/2014  08:13:00       12.388       -9.087       24.191       22.627       31.536       24.197      511.971      994.507      585.512        0.146        0.105       15.363       20.478        1.777      338.889       11.847      857.760
04/17/2014  08:14:00       13.297       10.556       30.568       26.069       30.279       14.880      679.614      916.835      221.423        0.152        0.091       16.977        8.051        0.225      339.160       12.305      857.745
04/17/2014  08:15:00       10.808       40.114       43.918       20.255       26.772       17.430      410.274      716.760      303.798        0.254        0.072       41.545       13.345        0.103      339.016       12.062      857.727
04/17/2014  08:16:00        9.805       36.250       40.823       30.014       27.606       18.924      900.837      762.078      358.110        0.255        0.101       37.553       14.094        0.141      339.195       12.362      857.725
04/17/2014  08:17:00       48.773       35.691       23.846       47.164       31.677       28.916     2224.457     1003.439      836.131        0.414        0.203       60.437       25.898        0.184      338.933       11.922      857.709
04/17/2014  08:18:00       89.329       33.541       13.511       44.515       36.587       30.689     1981.572     1338.624      941.801        0.677        0.213       95.419       21.805        0.052      338.843       11.770      857.706
04/17/2014  08:19:00       52.447       48.037       27.037       21.587       25.387       35.040      466.019      644.497     1227.775        0.406        0.117       71.121       10.357        0.021      338.804       11.704      857.712
04/17/2014  08:20:00        4.987        2.986       23.419       34.510       39.713       23.439     1190.947     1577.133      549.372        0.195        0.166        5.813       19.707       11.494      339.040       12.102      857.708
04/17/2014  08:21:00       47.217       27.486       29.653       55.106       52.560       26.871     3036.712     2762.528      722.050        0.519        0.326       54.635       18.977        0.121      338.942       11.938      857.692
04/17/2014  08:22:00       55.412       45.013       30.335       39.963       30.864       37.393     1597.038      952.613     1398.216        0.498        0.197       71.391       21.664        0.092      338.725       11.572      857.686
04/17/2014  08:23:00       18.910       10.172       14.810       22.400       40.899       24.148      501.754     1672.704      583.109        0.172        0.138       21.472       18.233        0.721      338.849       11.781      857.678
04/17/2014  08:24:00        4.986       -8.511        5.880       20.880       19.967       25.087      435.992      398.679      629.351        0.080        0.073        9.864       20.391        4.274      339.072       12.156      857.661
04/17/2014  08:25:00       22.729       25.719       27.467       31.495       28.582       21.794      991.958      816.930      474.990        0.211        0.114       34.323       18.109        0.278      339.553       12.967      857.642
04/17/2014  08:26:00       45.113       20.875       12.153       25.080       25.235       23.197      628.996      636.813      538.102        0.221        0.090       49.709       16.170        0.106      338.847       11.777      857.623
04/17/2014  08:27:00       27.925       14.175       22.042       21.933       21.240       18.130      481.045      451.130      328.704        0.136        0.063       31.317       14.440        0.213      339.238       12.436      857.600
04/17/2014  08:28:00       17.063       30.679        7.336       34.411       24.169       25.244     1184.112      584.148      637.255        0.185        0.120       35.105       16.211        0.213      339.291       12.525      857.584
04/17/2014  08:29:00       87.145       73.644       17.725       28.611       24.704       28.274      818.604      610.288      799.421        0.778        0.111      114.095       17.211        0.023      339.005       12.042      857.576
04/17/2014  08:30:00       86.087       68.134        8.143       19.308       27.703       22.946      372.805      767.449      526.497        0.689        0.083      109.787        9.857        0.008      338.770       11.646      857.566
04/17/2014  08:31:00       54.621       54.214       -4.099       21.343       19.630       25.516      455.542      385.325      651.087        0.372        0.075       76.958       18.419        0.057      339.003       12.039      857.562
04/17/2014  08:32:00       -4.252       22.781       13.542       24.455       37.591       23.394      598.031     1413.091      547.284        0.164        0.128       23.174       23.011        0.986      339.553       12.965      857.558
04/17/2014  08:33:00       14.290       45.766       19.377       32.559       33.132       23.685     1060.117     1097.748      560.981        0.270        0.136       47.945       21.915        0.209      339.373       12.662      857.549
04/17/2014  08:34:00      -62.707       49.433       -8.273       25.708       17.276       19.712      660.924      298.448      388.555        0.390        0.067       79.848       16.381        0.042      338.855       11.791      857.553
04/17/2014  08:35:00      -71.924       18.998       -4.036        8.629       12.711        9.078       74.452      161.566       82.408        0.293        0.016       74.391        6.697        0.008      338.737       11.592      857.551
04/17/2014  08:36:00      -81.343        7.055       -5.190       20.940       14.655        9.427      438.483      214.764       88.873        0.372        0.037       81.648        7.705        0.009      338.790       11.683      857.548
04/17/2014  08:37:00      -32.248       -1.098       -4.033        7.489        6.476        6.464       56.079       41.938       41.780        0.060        0.007       32.267        4.340        0.018      338.884       11.838      857.551
04/17/2014  08:38:00       -6.395      -30.006       13.534       14.995       19.444       11.832      224.848      378.085      139.985        0.093        0.037       30.680       10.539        0.118      339.128       12.249      857.551
04/17/2014  08:39:00      -14.108       -2.452       13.421       21.708       13.987       11.826      471.219      195.648      139.855        0.060        0.040       14.320        7.792        0.296      339.575       13.003      857.536
04/17/2014  08:40:00        1.275        9.787       31.630       18.269       15.998       13.642      333.745      255.952      186.104        0.094        0.039        9.870       10.510        1.134      340.247       14.136      857.534
04/17/2014  08:41:00       17.533       13.182       32.435       31.958       16.596       14.859     1021.300      275.420      220.783        0.153        0.076       21.936        4.557        0.043      340.086       13.865      857.526
04/17/2014  08:42:00       24.838       45.435       17.100       32.613       31.170       25.275     1063.626      971.584      638.849        0.282        0.134       51.781       14.201        0.075      339.605       13.054      857.515
04/17/2014  08:43:00       73.314       32.545       14.836       36.682       28.818       24.724     1345.567      830.461      611.276        0.472        0.139       80.213       14.400        0.032      339.653       13.134      857.515
04/17/2014  08:44:00       73.125       57.033       18.282       58.735       40.375       30.084     3449.814     1630.102      905.025        0.746        0.299       92.736       15.891        0.029      339.531       12.929      857.516
04/17/2014  08:45:00      114.823       86.344       24.340       26.442       21.881       25.177      699.204      478.783      633.878        1.152        0.091      143.665       11.419        0.006      339.159       12.301      857.511
04/17/2014  08:46:00       81.067       49.487        8.885       42.045       38.385       28.167     1767.746     1473.413      793.407        0.657        0.202       94.978       20.007        0.044      339.529       12.924      857.501
04/17/2014  08:47:00       61.177       88.966       -9.374       34.207       33.946       25.967     1170.121     1152.300      674.280        0.737        0.150      107.970       17.756        0.027      339.734       13.271      857.493
04/17/2014  08:48:00       73.330       84.963       -3.684       33.012       29.849       22.073     1089.776      890.933      487.219        0.754        0.123      112.232       17.266        0.024      339.598       13.040      857.482
04/17/2014  08:49:00       80.371       60.878        2.580       36.231       30.051       31.486     1312.672      903.079      991.391        0.669        0.160      100.825       10.666        0.011      339.790       13.366      857.482
04/17/2014  08:50:00       64.762       73.510        3.115       28.391       32.006       28.436      806.064     1024.415      808.582        0.612        0.132       97.969       19.018        0.038      339.770       13.332      857.479
04/17/2014  08:51:00       31.250       84.770        6.184       23.296       47.985       32.277      542.714     2302.563     1041.836        0.604        0.194       90.346       24.050        0.071      339.762       13.319      857.470
04/17/2014  08:52:00       65.775       63.472       18.891       39.534       27.836       32.772     1562.964      774.819     1074.020        0.606        0.171       91.406       18.046        0.039      339.763       13.320      857.447
04/17/2014  08:53:00       43.261       33.206        8.167       36.497       20.942       28.809     1331.995      438.558      829.976        0.282        0.130       54.536       18.046        0.109      339.986       13.696      857.427
04/17/2014  08:54:00       40.798       55.092        1.639       30.802       38.322       25.705      948.785     1468.576      660.758        0.389        0.154       68.554       18.895        0.076      339.890       13.533      857.394
04/17/2014  08:55:00       61.716       46.058       22.718       25.850       28.902       26.999      668.213      835.331      728.932        0.434        0.112       77.007       14.117        0.034      339.672       13.166      857.374
04/17/2014  08:56:00       53.187       48.271       14.157       39.288       43.633       37.140     1543.524     1903.856     1379.414        0.509        0.241       71.826       25.224        0.123      339.931       13.601      857.357
04/17/2014  08:57:00       82.681       62.637       14.880       49.658       37.042       35.069     2465.892     1372.099     1229.859        0.802        0.253      103.728       17.573        0.029      339.858       13.479      857.341
04/17/2014  08:58:00      105.773       83.469       15.637       31.539       31.151       24.690      994.696      970.355      609.586        1.049        0.129      134.740       12.575        0.009      339.618       13.073      857.327
04/17/2014  08:59:00       61.717       44.489       38.370       53.589       48.496       36.337     2871.788     2351.867     1320.373        0.690        0.327       76.081       22.415        0.087      339.974       13.676      857.316
04/17/2014  09:00:00       10.164       48.913       44.594       22.477       30.136       28.801      505.221      908.206      829.492        0.336        0.112       49.957       18.868        0.143      340.372       14.348      857.300
04/17/2014  09:01:00       23.583       55.865       14.737       31.757       36.339       30.985     1008.517     1320.543      960.045        0.359        0.164       60.639       20.410        0.113      340.274       14.182      857.295
04/17/2014  09:02:00        6.346       56.785       -5.483       22.994       45.526       22.965      528.746     2072.586      527.397        0.321        0.156       57.139       18.950        0.110      340.232       14.111      857.288
04/17/2014  09:03:00      -17.122       28.626       38.872       20.510       40.228       41.908      420.673     1618.262     1756.292        0.321        0.190       33.356       33.670        1.019      340.536       14.625      857.271
04/17/2014  09:04:00       38.553       67.047       73.104       59.087       40.674       38.614     3491.279     1654.370     1491.056        0.898        0.332       77.341       36.339        0.221      339.839       13.447      857.261
04/17/2014  09:05:00       85.529       59.277       -3.982       31.883       28.909       21.710     1016.536      835.702      471.325        0.658        0.116      104.062       14.174        0.019      339.512       12.894      857.255
04/17/2014  09:06:00       31.096       19.249       10.781       31.656       24.718       18.329     1002.106      610.964      335.961        0.170        0.097       36.572       11.498        0.099      339.766       13.324      857.248
04/17/2014  09:07:00       46.241       46.273        8.101       48.569       40.117       23.486     2358.950     1609.381      551.588        0.443        0.226       65.417       19.750        0.091      340.097       13.883      857.240
04/17/2014  09:08:00       40.294       68.234        1.029       37.082       36.026       34.378     1375.076     1297.906     1181.838        0.507        0.193       79.244       24.998        0.100      340.109       13.903      857.242
04/17/2014  09:09:00       59.884       42.840       12.677       34.973       32.478       23.119     1223.106     1054.852      534.468        0.420        0.141       73.629       17.201        0.055      340.386       14.371      857.234
04/17/2014  09:10:00       88.020       53.097       -1.583       37.123       26.591       26.640     1378.150      707.073      709.673        0.668        0.140      102.795       16.280        0.025      339.880       13.516      857.241
04/17/2014  09:11:00       21.796       82.862       -4.414       23.946       39.260       32.135      573.400     1541.341     1032.666        0.525        0.157       85.680       26.458        0.095      340.182       14.028      857.232
04/17/2014  09:12:00      -26.699       -3.567       18.441       26.476       18.604       19.936      700.973      346.117      397.463        0.125        0.072       26.936       15.631        0.337      340.423       14.433      857.234
04/17/2014  09:13:00      -28.031        3.817       30.178       29.041       31.008       32.135      843.397      961.518     1032.651        0.227        0.142       28.289       28.500        1.015      340.574       14.689      857.225
04/17/2014  09:14:00        1.852       32.505       52.497       21.869       28.872       24.415      478.271      833.615      596.097        0.286        0.095       32.557       17.786        0.298      340.630       14.785      857.224
04/17/2014  09:15:00       20.441       13.166       52.566       24.105       29.277       16.966      581.037      857.132      287.841        0.254        0.086       24.314       11.869        0.238      340.707       14.914      857.228
04/17/2014  09:16:00      104.771       63.299       25.415       40.467       35.871       30.868     1637.565     1286.702      952.859        0.975        0.194      122.408       14.616        0.014      340.114       13.912      857.226
04/17/2014  09:17:00       97.866       75.050       18.824       17.619       24.618       20.977      310.445      606.061      440.036        0.846        0.068      123.330       13.871        0.013      339.761       13.315      857.214
04/17/2014  09:18:00       32.213       74.333      -16.430       28.467       20.672       25.660      810.374      427.342      658.444        0.436        0.095       81.013       15.146        0.035      339.865       13.491      857.215
04/17/2014  09:19:00       30.254      -30.049        5.849       23.658       25.037       18.225      559.682      626.838      332.141        0.169        0.076       42.641        9.793        0.053      340.034       13.777      857.214
04/17/2014  09:20:00       13.140      -30.442       11.764       21.537       39.212       20.024      463.859     1537.561      400.969        0.182        0.120       33.157       13.731        0.171      340.271       14.177      857.201
04/17/2014  09:21:00       89.649       58.775       33.054       39.334       31.139       26.704     1547.196      969.641      713.097        0.791        0.161      107.198       16.280        0.023      340.265       14.167      857.198
04/17/2014  09:22:00       70.042       62.065       19.631       28.972       24.218       29.944      839.351      586.533      896.649        0.573        0.116       93.584       11.020        0.014      340.174       14.013      857.194
04/17/2014  09:23:00        7.804       83.802       -1.558       30.148       36.012       27.562      908.875     1296.895      759.658        0.503        0.148       84.164       16.549        0.039      340.604       14.740      857.180
04/17/2014  09:24:00       60.358       70.193       -3.669       39.457       37.872       32.027     1556.857     1434.321     1025.733        0.630        0.201       92.575       18.365        0.039      340.579       14.697      857.179
04/17/2014  09:25:00       50.802       19.234       -0.047       41.812       25.852       34.810     1748.269      668.313     1211.738        0.329        0.181       54.321       10.985        0.041      340.597       14.729      857.174
04/17/2014  09:26:00       72.303       52.045       17.968       46.539       47.217       35.819     2165.871     2229.484     1282.978        0.697        0.284       89.086       22.287        0.063      340.770       15.019      857.164
04/17/2014  09:27:00      121.664       68.920       22.731       33.052       32.372       32.899     1092.433     1047.969     1082.346        1.165        0.161      139.828       11.067        0.006      340.141       13.957      857.164
04/17/2014  09:28:00       43.210       66.700       12.185       39.032       42.027       42.934     1523.508     1766.274     1843.353        0.580        0.257       79.473       37.370        0.221      340.110       13.905      857.174
04/17/2014  09:29:00       34.092       31.625       -3.113       22.518       32.839       31.168      507.038     1078.427      971.437        0.236        0.128       46.501       12.147        0.068      340.367       14.338      857.166
04/17/2014  09:30:00      -20.506       -7.065       -3.650       40.564       20.701       13.965     1645.475      428.538      195.035        0.138        0.113       21.689       13.922        0.412      340.346       14.303      857.167
04/17/2014  09:31:00       20.331       17.700       30.945       52.506       25.325       27.802     2756.847      641.379      772.956        0.293        0.209       26.956       17.089        0.402      340.998       15.408      857.161
04/17/2014  09:32:00       12.197       38.705       52.404       38.043       43.518       44.530     1447.273     1893.782     1982.880        0.486        0.266       40.581       35.563        0.768      340.964       15.348      857.140
04/17/2014  09:33:00        1.342      -45.422       19.744       21.110       36.840       24.244      445.633     1357.209      587.759        0.242        0.120       45.441        4.336        0.009      340.519       14.597      857.130
04/17/2014  09:34:00       21.662      -15.068       22.686       23.097       26.017       28.437      533.478      676.872      808.646        0.161        0.101       26.387       20.512        0.604      341.181       15.715      857.130
04/17/2014  09:35:00       19.890       17.698       30.895       27.198       36.636       31.526      739.707     1342.168      993.882        0.237        0.154       26.624       25.918        0.948      341.210       15.765      857.125
04/17/2014  09:36:00       -9.049       30.669       20.113       30.038       31.329       26.952      902.295      981.506      726.432        0.202        0.131       31.976       20.313        0.404      341.233       15.805      857.112
04/17/2014  09:37:00      -40.740       19.553       25.080       32.102       13.536       21.824     1030.509      183.235      476.270        0.218        0.085       45.190       20.147        0.199      340.876       15.200      857.110
04/17/2014  09:38:00      -49.049       16.889        2.100       20.348       15.777       12.671      414.030      248.924      160.560        0.176        0.041       51.875       10.050        0.038      340.540       14.632      857.099
04/17/2014  09:39:00       -7.927       24.174       30.605       18.490       18.481       20.582      341.889      341.546      423.607        0.135        0.055       25.440       10.908        0.184      341.529       16.307      857.095
04/17/2014  09:40:00        4.642       42.802       71.386       33.906       35.685       27.526     1149.630     1273.398      757.680        0.506        0.159       43.053       20.771        0.233      341.327       15.964      857.095
04/17/2014  09:41:00        6.772       -6.759       34.082       24.717       27.529       33.132      610.951      757.820     1097.723        0.186        0.123        9.568       26.953        7.935      341.142       15.650      857.101
04/17/2014  09:42:00       15.870      -23.028       13.081       39.168       57.965       36.863     1534.123     3359.950     1358.904        0.360        0.313       27.967       28.270        1.022      340.782       15.041      857.087
04/17/2014  09:43:00       16.668      -11.121       26.218       51.238       69.110       41.373     2625.351     4776.127     1711.713        0.510        0.456       20.037       30.835        2.368      340.888       15.220      857.087
04/17/2014  09:44:00       18.803       -6.272       46.950       33.520       40.445       34.592     1123.601     1635.770     1196.595        0.328        0.198       19.821       33.349        2.831      341.473       16.211      857.066
04/17/2014  09:45:00       10.443       -8.159       26.391       37.652       45.717       30.717     1417.680     2090.018      943.548        0.266        0.223       13.252       36.415        7.551      341.283       15.891      857.059
04/17/2014  09:46:00       11.965       62.252       74.615       48.275       42.042       35.996     2330.485     1767.564     1295.689        0.749        0.270       63.391       25.257        0.159      341.033       15.466      857.042
04/17/2014  09:47:00       50.460      -34.596       25.706       51.793       63.401       45.647     2682.566     4019.655     2083.619        0.659        0.439       61.181       26.002        0.181      340.833       15.128      857.022
04/17/2014  09:48:00       93.255      -50.720       -6.082       60.004       49.809       49.409     3600.525     2480.902     2441.268        0.991        0.426      106.155       32.847        0.096      340.802       15.073      857.019
04/17/2014  09:49:00       36.634      -76.183       41.091       49.436       85.548       53.032     2443.895     7318.379     2812.413        1.070        0.629       84.534       48.457        0.329      341.361       16.022      857.018
04/17/2014  09:50:00       33.404      -21.205       35.864       45.722       89.380       73.233     2090.480     7988.725     5363.028        0.914        0.772       39.566       73.331        3.435      341.414       16.111      857.013
04/17/2014  09:51:00       69.944      -75.608      -11.680       47.570       62.965       41.968     2262.943     3964.576     1761.312        0.937        0.399      102.999       36.271        0.124      341.367       16.032      857.000
04/17/2014  09:52:00       19.151      -32.480       31.413       50.285       54.214       35.014     2528.614     2939.208     1226.012        0.455        0.335       37.706       38.555        1.046      341.503       16.262      857.003
04/17/2014  09:53:00       11.801      -44.365       30.612       37.451       56.476       31.999     1402.580     3189.584     1023.958        0.433        0.281       45.908       37.562        0.669      341.796       16.757      856.997
04/17/2014  09:54:00       54.862       31.341       29.070       37.033       32.788       43.210     1371.443     1075.074     1867.069        0.457        0.216       63.183       29.470        0.218      341.322       15.955      856.998
04/17/2014  09:55:00       36.163       34.217        6.780       55.396       31.783       27.379     3068.755     1010.128      749.592        0.368        0.241       49.786        8.479        0.029      341.511       16.275      856.993
04/17/2014  09:56:00       61.040       60.004       32.168       58.764       33.563       27.439     3453.192     1126.463      752.891        0.685        0.267       85.594       25.887        0.091      341.836       16.825      856.977
04/17/2014  09:57:00       35.215       11.576       28.849       58.490       50.885       37.827     3421.108     2589.329     1430.893        0.482        0.372       37.069       43.002        1.346      341.978       17.068      856.979
04/17/2014  09:58:00       51.781      -31.994       -9.241       44.474       29.248       25.884     1977.978      855.447      669.963        0.365        0.175       60.867       14.100        0.054      341.022       15.446      856.971
04/17/2014  09:59:00      -13.900       -8.948        6.377       24.306       32.106       28.096      590.761     1030.826      789.379        0.136        0.121       16.531       12.623        0.583      341.635       16.484      856.959
04/17/2014  10:00:00        6.782       25.818       38.619       46.226       33.897       33.986     2136.805     1149.034     1155.060        0.332        0.222       26.694       30.118        1.273      342.061       17.208      856.948
04/17/2014  10:01:00       19.415        1.545       33.333       41.331       50.989       35.450     1708.240     2599.831     1256.692        0.353        0.278       19.476       35.728        3.365      341.908       16.948      856.941
04/17/2014  10:02:00       21.725      -38.428       20.033       40.715       52.724       33.031     1657.710     2779.861     1091.024        0.394        0.276       44.144       30.461        0.476      341.884       16.906      856.923
04/17/2014  10:03:00       23.703       -0.623       30.711       42.403       66.621       41.230     1797.975     4438.418     1699.886        0.472        0.397       23.711       32.832        1.917      341.752       16.683      856.921
04/17/2014  10:04:00       56.637       50.554       23.108       49.801       56.241       30.958     2480.183     3163.020      958.428        0.645        0.330       75.917       19.817        0.068      341.533       16.311      856.926
04/17/2014  10:05:00       40.879      -69.990        9.586       37.836       48.172       27.542     1431.574     2320.583      758.542        0.559        0.226       81.053       22.009        0.074      341.164       15.687      856.928
04/17/2014  10:06:00       94.770       69.696       16.720       59.847       25.740       33.434     3581.711      662.535     1117.861        0.974        0.268      117.639       21.507        0.033      341.798       16.759      856.937
04/17/2014  10:07:00       48.502      -59.092        3.620       56.104       71.721       32.688     3147.628     5143.920     1068.536        0.761        0.468       76.448       38.409        0.252      341.319       15.950      856.943
04/17/2014  10:08:00       21.738      -31.614        9.771       24.860       42.203       27.526      618.020     1781.093      757.697        0.236        0.158       38.366       12.644        0.109      341.649       16.510      856.952
04/17/2014  10:09:00       51.903       -5.124       22.750       27.686       45.361       40.439      766.512     2057.649     1635.342        0.385        0.223       52.155       15.178        0.085      341.725       16.637      856.953
04/17/2014  10:10:00       43.459       69.031       16.220       48.887       33.365       32.156     2389.955     1113.253     1034.019        0.573        0.227       81.572       24.903        0.093      341.868       16.879      856.947
04/17/2014  10:11:00       48.393       49.442       52.984       35.733       25.021       38.170     1276.840      626.033     1456.920        0.548        0.168       69.184       20.499        0.088      341.800       16.763      856.930
04/17/2014  10:12:00        3.342       11.926       15.114       27.582       45.213       23.664      760.762     2044.180      559.984        0.187        0.168       12.385       12.063        0.949      342.070       17.222      856.912
04/17/2014  10:13:00       73.486       83.679       44.971       75.199       68.178       43.942     5654.915     4648.231     1930.880        1.333        0.612      111.366       38.345        0.119      342.010       17.119      856.879
04/17/2014  10:14:00      124.996       85.194       36.550       59.101       40.360       43.084     3492.947     1628.903     1856.225        1.560        0.349      151.268       25.934        0.029      341.752       16.683      856.855
04/17/2014  10:15:00      176.733       74.367       36.767       76.057       49.203       45.403     5784.612     2420.950     2061.453        2.419        0.513      191.742       30.773        0.026      341.782       16.732      856.830
04/17/2014  10:16:00       76.548       47.107       40.383       52.876       67.397       40.801     2795.869     4542.319     1664.716        0.935        0.450       89.881       23.471        0.068      341.886       16.911      856.806
04/17/2014  10:17:00       15.971       25.555       41.648       34.808       45.964       34.211     1211.585     2112.732     1170.405        0.357        0.225       30.135       21.909        0.529      342.258       17.543      856.782
04/17/2014  10:18:00       15.640      -35.459       23.519       44.352       74.962       41.639     1967.061     5619.270     1733.812        0.569        0.466       38.755       27.609        0.508      342.495       17.946      856.771
04/17/2014  10:19:00       51.779      -81.495        8.283       56.843       87.253       47.574     3231.072     7613.099     2263.319        1.125        0.655       96.553       53.005        0.301      342.419       17.816      856.766
04/17/2014  10:20:00       23.636        7.419       40.928       36.820       48.306       28.640     1355.730     2333.459      820.240        0.340        0.225       24.772       28.725        1.345      342.490       17.937      856.769
04/17/2014  10:21:00       -8.570      -28.002        4.432       19.753       41.722       40.263      390.178     1740.699     1621.118        0.231        0.188       29.284       28.636        0.956      342.391       17.769      856.759
04/17/2014  10:22:00       44.265       -4.692       27.958       48.803       34.652       32.012     2381.691     1200.757     1024.752        0.368        0.230       44.513       29.124        0.428      342.579       18.089      856.757
04/17/2014  10:23:00       29.776      -66.062       26.782       39.995       77.388       36.922     1599.625     5988.872     1363.220        0.746        0.448       72.463       36.367        0.252      342.596       18.116      856.744
04/17/2014  10:24:00       19.880       45.830       72.767       34.077       66.388       38.052     1161.213     4407.406     1447.929        0.740        0.351       49.956       42.915        0.738      342.498       17.950      856.755
04/17/2014  10:25:00       39.921        7.847       35.061       48.906       47.163       33.267     2391.839     2224.316     1106.707        0.430        0.286       40.685       28.930        0.506      342.512       17.974      856.749
04/17/2014  10:26:00       10.121       10.013       49.108       35.705       45.011       35.966     1274.821     2026.021     1293.575        0.360        0.230       14.237       30.255        4.516      342.697       18.288      856.726
04/17/2014  10:27:00       15.042       -9.591       56.486       48.690       87.239       42.867     2370.706     7610.682     1837.607        0.766        0.591       17.839       30.021        2.832      343.059       18.903      856.700
04/17/2014  10:28:00      104.837      -32.734       67.835      108.482       86.362       68.277    11768.405     7458.327     4661.771        2.027        1.194      109.828       59.409        0.293      342.649       18.204      856.676
04/17/2014  10:29:00       63.355       12.895       87.609       92.483      118.326       71.587     8553.145    14001.095     5124.646        1.976        1.384       64.654       67.949        1.105      342.643       18.195      856.632
04/17/2014  10:30:00       34.522      -29.174       62.827       45.657      106.283       61.568     2084.578    11296.099     3790.595        1.158        0.859       45.199       58.714        1.687      343.090       18.955      856.603
04/17/2014  10:31:00       56.970      -54.902       45.151       78.053      105.654       49.041     6092.295    11162.846     2405.068        1.398        0.983       79.119       55.415        0.491      343.125       19.016      856.599
04/17/2014  10:32:00       81.949      -34.977       63.848      114.541      103.013       64.859    13119.751    10611.615     4206.739        1.997        1.397       89.101       69.582        0.610      343.215       19.169      856.580
04/17/2014  10:33:00      124.860       -6.395       59.004      128.329       94.987       62.373    16468.370     9022.558     3890.407        2.424        1.469      125.023       66.897        0.286      342.825       18.505      856.589
04/17/2014  10:34:00      130.306     -116.544       23.675      118.829      139.078       69.469    14120.372    19342.679     4825.964        3.470        1.914      174.821       80.595        0.213      342.872       18.584      856.563
04/17/2014  10:35:00       78.366      -94.479       31.311       93.209      150.172       74.676     8687.920    22551.528     5576.487        2.642        1.841      122.750       85.668        0.487      343.250       19.230      856.569
04/17/2014  10:36:00      124.560     -115.562       22.898       94.662      118.831       60.496     8960.959    14120.764     3659.752        2.806        1.337      169.911       64.425        0.144      342.996       18.794      856.581
04/17/2014  10:37:00       41.903      -67.301       38.498       59.275      112.725       58.669     3513.521    12706.992     3442.096        1.371        0.983       79.280       47.059        0.352      343.250       19.229      856.569
04/17/2014  10:38:00      114.214      -84.155       28.620       81.874      123.230       83.752     6703.281    15185.726     7014.383        2.492        1.445      141.869       75.109        0.280      343.118       19.003      856.571
04/17/2014  10:39:00       61.305       76.879      148.843      106.580      189.761      113.737    11359.391    36009.269    12936.168        4.605        3.015       98.330      125.264        1.623      343.084       18.943      856.555
04/17/2014  10:40:00       11.630       -9.149       93.421       52.374      149.930       76.182     2743.037    22479.038     5803.624        1.998        1.551       14.797       96.972       42.949      343.148       19.055      856.570
04/17/2014  10:41:00      155.354     -163.800        0.643      106.945      166.826       76.413    11437.331    27830.903     5838.897        4.803        2.255      225.755       93.103        0.170      343.024       18.843      856.580
04/17/2014  10:42:00      161.443     -222.403      -36.300      132.713      140.017       79.651    17612.782    19604.642     6344.303        6.019        2.178      274.822       73.913        0.072      343.113       18.994      856.598
04/17/2014  10:43:00       10.570       -9.513      110.108       68.456       93.338       74.342     4686.271     8712.002     5526.684        1.562        0.946       14.221       51.643       13.188      343.400       19.485      856.612
04/17/2014  10:44:00      -49.247      -10.291        7.887       37.711       53.854       30.459     1422.115     2900.224      927.739        0.392        0.263       50.311       16.909        0.113      343.390       19.468      856.637
04/17/2014  10:45:00      -32.571      -10.198        5.081       36.821       48.790       29.117     1355.785     2380.481      847.784        0.289        0.229       34.130       17.096        0.251      343.494       19.646      856.632
04/17/2014  10:46:00      -60.800      -50.263        5.620       51.631       91.171       41.830     2665.737     8312.114     1749.749        0.949        0.636       78.885       32.577        0.171      343.555       19.748      856.635
04/17/2014  10:47:00       14.185       32.456       32.443       54.922       63.237       42.050     3016.428     3998.935     1768.179        0.554        0.439       35.420       35.921        1.028      343.576       19.785      856.629
04/17/2014  10:48:00       36.377      -80.275        6.429       72.554       71.724       64.051     5264.027     5144.268     4102.490        1.116        0.726       88.133       51.097        0.336      343.172       19.096      856.599
04/17/2014  10:49:00        0.508       14.935       32.830       69.299       73.215       62.158     4802.332     5360.504     3863.661        0.766        0.701       14.944       55.047       13.569      343.647       19.906      856.596
04/17/2014  10:50:00       12.610       30.068       83.796       41.812       75.614       41.894     1748.226     5717.439     1755.103        0.865        0.461       32.605       39.553        1.472      343.969       20.455      856.584
04/17/2014  10:51:00       47.646       23.523       60.005       70.139       92.277       69.794     4919.439     8515.028     4871.159        1.236        0.915       53.136       74.553        1.969      343.473       19.609      856.581
04/17/2014  10:52:00       60.178      -40.814       33.864       84.493       87.687       51.276     7139.144     7688.946     2629.273        1.194        0.873       72.713       52.363        0.519      343.111       18.992      856.549
04/17/2014  10:53:00       12.717      -67.468       23.421       57.085       77.425       46.913     3258.645     5994.678     2200.853        0.836        0.573       68.656       48.788        0.505      343.549       19.739      856.555
04/17/2014  10:54:00       50.113       21.094      107.571       78.178      167.729       92.415     6111.828    28133.130     8540.578        2.865        2.139       54.371      115.752        4.532      343.723       20.035      856.546
04/17/2014  10:55:00      125.059     -201.005      -37.253      100.611      113.452       59.694    10122.554    12871.373     3563.401        4.199        1.328      236.733       63.370        0.072      343.314       19.336      856.564
04/17/2014  10:56:00       60.834     -102.432       19.826       78.379      100.522       77.804     6143.306    10104.595     6053.410        1.844        1.115      119.135       83.204        0.488      343.506       19.664      856.575
04/17/2014  10:57:00       38.395      -82.908        2.368       69.993       78.765       32.146     4899.070     6203.916     1033.382        1.024        0.607       91.367       34.267        0.141      343.240       19.212      856.596
04/17/2014  10:58:00       74.867      -28.918       59.594       76.070       67.765       71.326     5786.594     4592.107     5087.342        1.273        0.773       80.258       52.750        0.432      343.488       19.634      856.562
04/17/2014  10:59:00       32.309       -3.919       97.907       75.881      116.681       75.621     5757.914    13614.471     5718.498        1.786        1.255       32.546       86.555        7.073      343.744       20.072      856.526
04/17/2014  11:00:00      102.920      -15.612       50.920       99.314      126.221       73.618     9863.345    15931.710     5419.557        2.232        1.561      104.098       88.379        0.721      343.605       19.833      856.510
04/17/2014  11:01:00      103.882       13.779       94.367      114.500      149.918      106.648    13110.274    22475.302    11373.852        3.341        2.348      104.792      121.396        1.342      343.622       19.860      856.482
04/17/2014  11:02:00       81.696       71.313      124.577       98.213      115.674       82.418     9645.831    13380.472     6792.669        2.854        1.491      108.442       88.438        0.665      343.488       19.632      856.461
04/17/2014  11:03:00      102.962      119.090      111.756       91.217       81.621       65.813     8320.534     6661.914     4331.332        2.829        0.966      157.428       55.255        0.123      343.345       19.388      856.463
04/17/2014  11:04:00      119.857       92.755       85.643       48.403       56.685       46.278     2342.847     3213.223     2141.628        1.900        0.385      151.556       29.392        0.038      343.314       19.339      856.453
04/17/2014  11:05:00       52.915      -21.655       50.158       64.875       89.283       56.852     4208.734     7971.425     3232.158        1.060        0.771       57.175       50.703        0.786      343.787       20.144      856.426
04/17/2014  11:06:00      151.993     -135.923       10.136       86.920      140.865       83.069     7555.003    19843.042     6900.515        3.798        1.715      203.904       93.942        0.212      343.807       20.177      856.390
04/17/2014  11:07:00       74.057       47.522      115.732      101.479       88.877       72.091    10297.979     7899.152     5197.077        2.226        1.170       87.993       66.097        0.564      343.722       20.033      856.371
04/17/2014  11:08:00       48.273      -19.764       46.163       72.510       91.782       58.756     5257.765     8423.964     3452.323        1.099        0.857       52.162       34.460        0.436      344.062       20.615      856.362
04/17/2014  11:09:00       94.418     -100.057       20.305       84.318      119.482       76.209     7109.574    14276.000     5807.759        2.326        1.360      137.572       76.829        0.312      344.330       21.072      856.368
04/17/2014  11:10:00      148.162      -48.350       45.418       99.897      102.902       76.369     9979.442    10588.786     5832.182        2.637        1.320      155.851       73.783        0.224      343.894       20.325      856.375
04/17/2014  11:11:00       65.951       -0.880       85.945      119.985       94.311       62.230    14396.480     8894.642     3872.634        1.944        1.358       65.956       51.172        0.602      343.859       20.268      856.345
04/17/2014  11:12:00      142.596      103.091      104.270      116.748       97.467       84.194    13630.051     9499.825     7088.637        3.602        1.511      175.958       82.236        0.218      343.700       19.993      856.341
04/17/2014  11:13:00       66.398     -111.182        7.178      121.889      112.660       73.268    14856.864    12692.202     5368.258        2.486        1.646      129.499       90.489        0.488      343.897       20.330      856.347
04/17/2014  11:14:00      185.757     -168.895       -5.974       92.945      141.199       80.202     8638.740    19937.117     6432.410        4.903        1.750      251.060       79.848        0.101      343.897       20.329      856.320
04/17/2014  11:15:00      121.465      -74.286       26.851       99.316      145.230       87.717     9863.712    21091.793     7694.217        2.981        1.932      142.380       97.106        0.465      343.728       20.041      856.310
04/17/2014  11:16:00      105.868      -84.881       25.884      133.783      149.263       96.235    17897.970    22279.508     9261.198        3.425        2.472      135.694      117.192        0.746      344.020       20.540      856.287
04/17/2014  11:17:00       72.171      -28.853       31.070       67.518       85.016       66.103     4558.670     7227.780     4369.576        1.158        0.808       77.724       59.617        0.588      343.746       20.074      856.303
04/17/2014  11:18:00       30.848      -98.415       -0.738       70.935       70.263       49.601     5031.745     4936.888     2460.270        1.153        0.621      103.137       28.444        0.076      343.766       20.109      856.282
04/17/2014  11:19:00       -6.956      -41.913       30.302       75.628      100.760       57.002     5719.605    10152.539     3249.223        1.092        0.956       42.486       44.194        1.082      344.434       21.252      856.273
04/17/2014  11:20:00       69.281      -86.219       30.497       92.439      136.357       77.403     8545.027    18593.169     5991.277        2.314        1.656      110.606       88.052        0.634      344.540       21.431      856.265
04/17/2014  11:21:00       10.426      -60.472       30.386       49.351       85.094       62.996     2435.474     7240.952     3968.558        0.916        0.682       61.364       53.547        0.761      344.649       21.619      856.270
04/17/2014  11:22:00        1.457      -41.503       45.249       38.037       96.460       39.307     1446.812     9304.545     1545.027        0.803        0.615       41.529       42.271        1.036      344.546       21.442      856.285
04/17/2014  11:23:00       -8.325        8.244       43.844       72.103       64.094       56.401     5198.804     4108.092     3181.033        0.727        0.624       11.716       53.345       20.731      344.152       20.768      856.277
04/17/2014  11:24:00       27.265       20.429       15.971       59.147       38.081       33.337     3498.421     1450.136     1111.339        0.374        0.303       34.070       25.683        0.568      344.018       20.539      856.248
04/17/2014  11:25:00       24.880        4.644       21.984       69.793       54.129       37.684     4871.074     2929.992     1420.101        0.517        0.461       25.310       28.215        1.243      344.164       20.789      856.247
04/17/2014  11:26:00      -39.111        6.853       18.248       66.517       39.918       40.386     4424.458     1593.466     1631.000        0.478        0.382       39.707       26.773        0.455      344.158       20.779      856.262
04/17/2014  11:27:00      -81.822      -17.523       14.000       73.084       54.678       33.329     5341.241     2989.710     1110.828        0.832        0.472       83.678       39.885        0.227      344.495       21.354      856.285
04/17/2014  11:28:00      -72.285      -41.841       13.716       69.902       63.752       41.946     4886.322     4064.338     1759.463        0.893        0.536       83.521       42.901        0.264      344.483       21.333      856.307
04/17/2014  11:29:00     -158.079     -121.139        9.850       74.089       69.743       40.828     5489.184     4864.042     1666.932        2.589        0.601      199.158       35.280        0.031      344.008       20.520      856.310
04/17/2014  11:30:00     -127.092     -104.809       -3.809       72.681       59.202       38.766     5282.501     3504.857     1502.793        1.872        0.515      164.734       46.798        0.081      344.062       20.613      856.310
04/17/2014  11:31:00     -108.641      -17.630       -8.641       75.401       57.777       37.668     5685.348     3338.229     1418.902        1.131        0.522      110.062       35.244        0.103      343.881       20.306      856.290
04/17/2014  11:32:00       65.326      -18.152       -5.490      119.714       86.765       62.994    14331.430     7528.129     3968.258        1.522        1.291       67.801       49.022        0.523      343.974       20.463      856.279
04/17/2014  11:33:00      178.995      112.116       72.914      100.491       60.604       60.723    10098.522     3672.876     3687.314        3.369        0.873      211.209       45.556        0.047      343.955       20.428      856.243
04/17/2014  11:34:00       36.000       19.777       32.019       70.122       94.248       56.900     4917.149     8882.766     3237.644        0.987        0.852       41.074       48.332        1.385      344.251       20.937      856.209
04/17/2014  11:35:00        9.704      -66.444       -5.213       39.693       44.281       25.608     1575.514     1960.770      655.749        0.436        0.210       67.149       16.173        0.058      344.066       20.621      856.180
04/17/2014  11:36:00       23.318       53.771       62.433       52.388       41.880       38.249     2744.534     1753.928     1463.000        0.665        0.298       58.610       26.198        0.200      344.850       21.961      856.147
04/17/2014  11:37:00       70.905      105.167        9.010       68.476       68.332       46.283     4688.969     4669.215     2142.118        1.383        0.575      126.837       35.775        0.080      344.775       21.832      856.126
04/17/2014  11:38:00       87.689       94.636       11.702       78.553       53.218       45.468     6170.580     2832.113     2067.296        1.392        0.553      129.017       26.437        0.042      344.722       21.742      856.109
04/17/2014  11:39:00       83.708      128.929       -8.602       69.107       77.307       56.261     4775.779     5976.344     3165.247        1.881        0.696      153.720       42.772        0.077      344.738       21.769      856.086
04/17/2014  11:40:00       60.909      113.876       86.393       75.944       65.978       65.667     5767.460     4353.084     4312.106        1.928        0.722      129.142       45.927        0.126      345.099       22.387      856.044
04/17/2014  11:41:00       68.530      209.558      187.664       83.827       92.107       82.268     7026.894     8483.767     6768.095        5.305        1.114      220.479       64.046        0.084      344.440       21.258      856.007
04/17/2014  11:42:00       88.824      150.448      151.787      123.443      128.681       96.910    15238.165    16558.882     9391.511        4.737        2.059      174.712      106.733        0.373      344.309       21.034      855.982
04/17/2014  11:43:00      145.481     -171.905        9.174      125.821      133.718      108.479    15830.846    17880.527    11767.739        4.813        2.274      225.203      102.753        0.208      344.318       21.049      855.957
04/17/2014  11:44:00      157.782     -239.418      -10.323      109.547      147.039      103.494    12000.504    21620.607    10711.040        6.332        2.217      286.734      102.728        0.128      344.358       21.117      855.975
04/17/2014  11:45:00       20.080     -129.266       31.255      114.936      119.592       79.145    13210.259    14302.246     6263.930        2.593        1.689      130.816       67.437        0.266      344.609       21.548      855.997
04/17/2014  11:46:00       46.125     -138.711      -26.246       80.545       94.900       49.429     6487.514     9005.975     2443.220        1.999        0.897      146.179       49.125        0.113      344.254       20.942      856.045
04/17/2014  11:47:00      -23.065       25.660       43.263       27.687       35.369       38.164      766.571     1250.988     1456.481        0.327        0.174       34.503       30.576        0.785      344.922       22.085      856.030
04/17/2014  11:48:00       24.200      -17.862       31.589       50.294       65.257       35.125     2529.457     4258.423     1233.795        0.496        0.401       30.078       30.885        1.054      344.727       21.751      856.016
04/17/2014  11:49:00      144.270     -131.943       -9.256      106.530      146.107       62.927    11348.592    21347.310     3959.814        3.747        1.833      195.506       82.413        0.178      344.530       21.412      855.983
04/17/2014  11:50:00       72.857       22.985       93.306       65.666      109.797       61.471     4312.045    12055.288     3778.706        1.734        1.007       76.396       65.166        0.728      344.637       21.597      855.973
04/17/2014  11:51:00       63.309       50.093       77.079       77.497       54.157       53.362     6005.803     2932.969     2847.494        1.212        0.589       80.730       32.118        0.158      344.792       21.863      855.937
04/17/2014  11:52:00       47.200       -2.803       74.035       80.389       72.427       49.780     6462.468     5245.691     2478.052        1.095        0.709       47.283       47.706        1.018      345.098       22.387      855.925
04/17/2014  11:53:00       23.987       96.001      166.680      107.685      178.871      107.889    11596.138    31994.900    11640.006        4.639        2.762       98.952      133.970        1.833      344.854       21.966      855.884
04/17/2014  11:54:00      173.207     -172.633      -30.463      122.648      151.728       75.776    15042.553    23021.451     5742.070        5.226        2.190      244.546       92.707        0.144      344.492       21.345      855.862
04/17/2014  11:55:00       61.275     -189.416      -17.484       64.226       60.113       43.300     4124.915     3613.555     1874.893        2.477        0.481      199.081       28.351        0.020      344.467       21.305      855.859
04/17/2014  11:56:00      133.712     -225.873      -28.525      105.816      134.927       68.911    11197.022    18205.320     4748.791        5.192        1.708      262.483       69.847        0.071      344.922       22.081      855.815
04/17/2014  11:57:00      -20.887      -79.518       21.540       86.862       78.596       69.271     7545.081     6177.273     4798.526        1.287        0.926       82.216       38.923        0.224      345.088       22.369      855.816
04/17/2014  11:58:00       88.066     -121.873        6.796      128.100      154.438      116.429    16409.507    23851.167    13555.646        3.822        2.691      150.362      123.561        0.675      344.952       22.134      855.802
04/17/2014  11:59:00      131.314     -162.420        2.658      137.089      136.040       93.730    18793.425    18506.811     8785.283        4.485        2.304      208.863      107.226        0.264      344.531       21.412      855.821
04/17/2014  12:00:00       49.106      -80.940       40.213       63.164      125.131       72.791     3989.744    15657.790     5298.506        1.776        1.247       94.671       80.838        0.729      344.802       21.878      855.824
04/17/2014  12:01:00      180.815     -147.374       -5.308      140.822      187.233      118.327    19830.956    35056.364    14001.340        6.165        3.444      233.266      140.246        0.361      344.754       21.796      855.792
04/17/2014  12:02:00      165.482     -118.320       58.694      135.348      228.990      138.933    18318.983    52436.518    19302.505        6.743        4.503      203.430      173.902        0.731      344.901       22.048      855.752
04/17/2014  12:03:00       96.026       47.430      120.702      114.854      148.410      115.480    13191.443    22025.525    13335.746        3.729        2.428      107.101      122.786        1.314      344.798       21.871      855.805
04/17/2014  12:04:00       16.631       63.482      119.990       55.396       95.794       62.322     3068.692     9176.579     3884.084        1.741        0.806       65.625       61.132        0.868      345.085       22.364      855.792
04/17/2014  12:05:00       68.633      -45.097       47.218       88.891      154.161       92.184     7901.550    23765.764     8497.948        2.456        2.008       82.123      103.036        1.574      344.941       22.117      855.773
04/17/2014  12:06:00       49.484       11.142       40.615       73.891       59.513       34.663     5459.911     3541.795     1201.514        0.721        0.510       50.723       35.416        0.488      344.983       22.189      855.786
04/17/2014  12:07:00       87.027      106.108       33.350      108.290       58.422       41.196    11726.802     3413.161     1697.127        1.839        0.842      137.232       45.664        0.111      344.561       21.466      855.763
04/17/2014  12:08:00       97.985       60.679       45.735       92.001       71.463       52.085     8464.219     5106.976     2712.817        1.583        0.814      115.252       44.163        0.147      344.934       22.104      855.721
04/17/2014  12:09:00      106.807       67.663       40.320       82.629       60.927       50.625     6827.563     3712.115     2562.926        1.535        0.655      126.436       34.998        0.077      345.128       22.437      855.683
04/17/2014  12:10:00       61.983       76.855       80.123       94.761       84.153       80.236     8979.601     7081.756     6437.766        1.933        1.125       98.735       63.068        0.408      345.669       23.363      855.660
04/17/2014  12:11:00       91.400       86.398      117.051      141.468      128.600       91.184    20013.085    16537.859     8314.436        3.718        2.243      125.771       85.124        0.458      345.558       23.172      855.614
04/17/2014  12:12:00       84.060      -69.581       68.506       97.737      167.187      119.988     9552.468    27951.369    14397.076        3.424        2.595      109.122      137.174        1.580      345.008       22.230      855.616
04/17/2014  12:13:00      208.208     -251.665      -60.879       70.058       67.970       37.164     4908.083     4619.930     1381.173        6.065        0.545      326.628       28.275        0.007      344.654       21.622      855.621
04/17/2014  12:14:00      114.192     -169.198       -4.391       92.522      106.791       73.794     8560.324    11404.335     5445.535        3.354        1.271      204.127       79.016        0.150      345.018       22.245      855.627
04/17/2014  12:15:00        2.488      -58.719        9.798       57.350       83.192       41.600     3289.066     6920.948     1730.526        0.774        0.597       58.771       48.279        0.675      345.213       22.585      855.638
04/17/2014  12:16:00      -37.827      -34.170        9.322       35.737       38.696       27.139     1277.135     1497.402      736.504        0.310        0.176       50.975       26.902        0.279      345.552       23.163      855.643
04/17/2014  12:17:00      -98.088      -38.969        1.131       83.405       62.007       26.661     6956.456     3844.822      710.812        1.132        0.576      105.545       10.265        0.009      345.084       22.361      855.687
04/17/2014  12:18:00     -202.134     -129.618      -13.972      187.619      143.359       53.557    35200.858    20551.763     2868.379        5.823        2.931      240.123       60.576        0.064      344.908       22.057      855.650
04/17/2014  12:19:00     -162.679       -9.448       29.286      243.743      153.753       85.776    59410.563    23639.987     7357.494        5.889        4.520      162.953       86.064        0.279      345.468       23.015      855.547
04/17/2014  12:20:00      -35.992      -92.695       13.895      106.814      128.194       72.242    11409.172    16433.649     5218.892        2.156        1.653       99.437       59.736        0.361      345.536       23.136      855.632
04/17/2014  12:21:00     -109.159       45.936        5.767      108.341       65.667       41.837    11737.809     4312.210     1750.337        1.593        0.890      118.431       22.727        0.037      345.407       22.913      855.655
04/17/2014  12:22:00     -236.145      -25.526       -2.102      137.620      106.225       61.527    18939.341    11283.809     3785.554        4.521        1.700      237.521       59.687        0.063      345.301       22.729      855.650
04/17/2014  12:23:00      -47.282      -31.279        2.710       60.243       83.229       52.721     3629.195     6926.989     2779.514        0.828        0.667       56.692       35.028        0.382      345.347       22.814      855.629
04/17/2014  12:24:00      -70.085     -106.939        6.684       98.017       72.989       44.724     9607.250     5327.368     2000.225        1.666        0.847      127.858       41.473        0.105      345.471       23.024      855.590
04/17/2014  12:25:00     -203.756     -151.837       -8.512      116.245       94.835       56.624    13512.974     8993.628     3206.271        4.517        1.286      254.108       52.287        0.042      345.132       22.442      855.571
04/17/2014  12:26:00     -211.271     -131.103       16.651      114.334      117.704       68.987    13072.288    13854.328     4759.274        4.689        1.584      248.643       61.875        0.062      345.270       22.677      855.563
04/17/2014  12:27:00     -247.958     -128.935        7.631      206.582      149.235       99.303    42676.170    22271.115     9861.011        7.647        3.740      279.477      105.754        0.143      345.342       22.802      855.538
04/17/2014  12:28:00     -364.361      -76.636       14.592      267.788      167.367      105.592    71710.633    28011.655    11149.628       12.484        5.544      372.333      123.638        0.110      345.078       22.348      855.512
04/17/2014  12:29:00     -490.400     -148.001      -14.705      216.959      165.299       98.424    47071.337    27323.904     9687.278       17.333        4.204      512.246       85.826        0.028      344.885       22.019      855.518
04/17/2014  12:30:00     -526.417     -193.327      -23.052      221.122      163.711       93.053    48894.949    26801.445     8658.782       19.967        4.218      560.795       89.241        0.025      345.057       22.312      855.489
04/17/2014  12:31:00     -336.370     -168.118       -2.233      233.723      138.367       72.066    54626.580    19145.320     5193.532       11.017        3.948      376.043       85.099        0.051      345.198       22.554      855.502
04/17/2014  12:32:00     -214.422      -38.077       25.847      178.760      125.981       77.478    31955.018    15871.333     6002.858        5.095        2.691      217.777       99.095        0.207      345.288       22.709      855.482
04/17/2014  12:33:00     -370.456      -95.102       -5.954      189.783      155.461       85.864    36017.638    24168.079     7372.638       10.692        3.378      382.468       98.667        0.067      345.108       22.400      855.488
04/17/2014  12:34:00     -427.909      -86.732       -3.503      192.333      158.283       87.300    36991.876    25053.560     7621.288       13.014        3.483      436.610       94.410        0.047      344.844       21.948      855.457
04/17/2014  12:35:00     -362.469      -42.881      -20.435      143.198       91.762       55.886    20505.752     8420.330     3123.235        8.284        1.602      364.997       65.920        0.033      345.063       22.321      855.451
04/17/2014  12:36:00     -247.079     -191.048        9.698      178.244      122.501       72.632    31770.762    15006.560     5275.341        7.484        2.603      312.326       78.316        0.063      345.414       22.924      855.441
04/17/2014  12:37:00     -370.370     -296.398       -3.430      201.073      121.291       96.581    40430.485    14711.495     9327.963       14.474        3.223      474.369      106.876        0.051      345.103       22.392      855.454
04/17/2014  12:38:00     -368.076       45.319      -12.437      166.762      115.971       72.972    27809.700    13449.281     5324.899        9.213        2.329      370.856       86.638        0.055      345.145       22.465      855.430
04/17/2014  12:39:00     -174.393      -84.682       11.026      115.608      117.083       56.565    13365.260    13708.538     3199.632        3.398        1.514      193.865       43.832        0.051      345.353       22.821      855.427
04/17/2014  12:40:00     -202.318     -256.470       -6.430      134.791      136.889       58.626    18168.589    18738.485     3437.019        7.354        2.017      326.664       51.678        0.025      344.836       21.936      855.443
04/17/2014  12:41:00     -118.495     -288.792        6.577      119.542      176.337       67.109    14290.200    31094.676     4503.578        7.368        2.494      312.157       67.402        0.047      344.856       21.969      855.374
04/17/2014  12:42:00     -394.669     -218.724      -10.513      194.672      183.783       80.554    37897.062    33776.024     6488.873       14.092        3.908      451.225       64.640        0.021      344.928       22.092      855.335
04/17/2014  12:43:00     -310.525     -149.717        8.869      188.786      153.983       84.488    35640.061    23710.673     7138.239        9.269        3.324      344.734      102.373        0.088      344.932       22.097      855.328
04/17/2014  12:44:00     -193.395     -136.921       -1.838      124.547      103.059       68.032    15512.016    10621.111     4628.387        4.345        1.538      236.957       63.725        0.072      345.137       22.450      855.306
04/17/2014  12:45:00     -355.127     -227.322      -15.827      200.949      172.368       84.630    40380.592    29710.606     7162.181       12.763        3.863      421.652       86.510        0.042      345.074       22.341      855.296
04/17/2014  12:46:00     -354.853     -174.658        0.712      241.572      152.263       96.455    58356.847    23184.043     9303.627       12.362        4.542      395.507      104.570        0.070      344.957       22.143      855.307
04/17/2014  12:47:00     -355.169     -192.156      -10.687      189.772      154.883       76.791    36013.543    23988.618     5896.893       11.453        3.295      403.818       77.235        0.037      344.964       22.153      855.333
04/17/2014  12:48:00     -297.092     -154.273       -7.954      223.697      142.695       80.726    50040.330    20361.838     6516.710        9.451        3.846      334.759      104.588        0.098      345.156       22.482      855.313
04/17/2014  12:49:00     -435.034     -136.770      -18.474      143.343      119.257       70.324    20547.344    14222.337     4945.456       12.400        1.986      456.027       73.842        0.026      344.808       21.886      855.317
04/17/2014  12:50:00     -405.603     -132.704      -11.905      161.145      120.135       74.294    25967.732    14432.336     5519.651       11.408        2.296      426.760       81.379        0.036      344.919       22.075      855.300
04/17/2014  12:51:00     -227.482     -183.897      -15.032      123.429      115.785       63.178    15234.770    13406.098     3991.397        5.921        1.632      292.517       64.843        0.049      345.042       22.288      855.280
04/17/2014  12:52:00     -326.703      -70.207      -15.668      137.609      145.444       70.493    18936.238    21154.021     4969.216        7.848        2.253      334.162       74.651        0.050      345.162       22.492      855.262
04/17/2014  12:53:00     -297.846       -6.050      -17.462      138.776      148.759       76.957    19258.847    22129.265     5922.323        6.817        2.366      297.907       53.747        0.033      345.242       22.628      855.211
04/17/2014  12:54:00     -277.114     -136.712        8.909      186.881      137.671       80.892    34924.450    18953.374     6543.436        7.798        3.021      309.002       99.418        0.104      345.637       23.307      855.201
04/17/2014  12:55:00     -208.963      -93.212       -2.158      148.567      125.109       61.999    22072.281    15652.245     3843.938        4.696        2.078      228.810       63.522        0.077      345.970       23.878      855.194
04/17/2014  12:56:00     -307.832       33.481       -2.856      195.421      137.493       86.265    38189.451    18904.357     7441.703        8.020        3.227      309.647       97.727        0.100      345.627       23.289      855.192
04/17/2014  12:57:00     -356.479       -0.091        3.841      193.476      140.806       79.812    37433.115    19826.245     6369.998        9.535        3.181      356.479       89.044        0.062      345.515       23.097      855.190
04/17/2014  12:58:00     -402.711     -122.980      -10.015      177.701      133.103       71.802    31577.508    17716.356     5155.467       11.591        2.722      421.071       77.915        0.034      345.192       22.544      855.180
04/17/2014  12:59:00     -270.111     -137.382       10.657      178.140      123.040       66.062    31733.786    15138.849     4364.208        7.158        2.562      303.041       73.588        0.059      345.435       22.960      855.161
04/17/2014  13:00:00     -437.822      -61.719       -8.110      265.886      144.391       91.993    70695.434    20848.684     8462.802       14.777        5.000      442.151      129.143        0.085      345.308       22.743      855.177
04/17/2014  13:01:00     -371.405     -252.847       -4.831      249.215      189.706      109.027    62107.955    35988.398    11886.837       15.592        5.499      449.303      113.660        0.064      345.327       22.776      855.123
04/17/2014  13:02:00     -178.439      -65.513       10.399      199.868      160.433       74.230    39947.200    25738.808     5510.102        5.370        3.560      190.085       89.692        0.223      345.547       23.154      855.089
04/17/2014  13:03:00     -397.898     -283.817      -20.229      240.633      163.422       81.772    57904.052    26706.604     6686.717       16.527        4.565      488.749       97.116        0.039      345.300       22.727      855.075
04/17/2014  13:04:00     -215.282     -192.157       11.010      182.543      142.769       93.126    33321.951    20383.107     8672.479        7.287        3.119      288.567      100.535        0.121      345.647       23.323      855.080
04/17/2014  13:05:00     -206.026     -141.062        7.204      194.984      158.215       88.469    38018.823    25031.837     7826.695        6.662        3.544      249.690       87.291        0.122      345.601       23.244      855.077
04/17/2014  13:06:00     -416.746     -271.714      -21.240      274.229      247.197      106.312    75201.746    61106.115    11302.249       19.775        7.381      497.499      126.081        0.064      345.189       22.538      855.066
04/17/2014  13:07:00     -351.239      -47.643      -26.466      265.841      164.856       88.612    70671.234    27177.440     7852.143       11.600        5.285      354.455      113.953        0.103      345.378       22.862      855.044
04/17/2014  13:08:00     -344.286     -148.710        2.804      233.364      185.945       88.379    54458.962    34575.539     7810.794       11.873        4.842      375.030       83.793        0.050      345.535       23.132      855.055
04/17/2014  13:09:00     -566.743     -190.709      -37.292      288.014      241.349      114.256    82951.822    58249.491    13054.327       25.658        7.713      597.970      129.307        0.047      345.231       22.610      855.040
04/17/2014  13:10:00     -664.379     -245.675      -44.725      343.822      263.448      129.130   118213.418    69404.948    16674.481       35.398       10.215      708.347      155.733        0.048      345.175       22.516      855.015
04/17/2014  13:11:00     -496.678     -171.242        1.235      325.285      183.568      121.624   105810.219    33697.115    14792.486       21.513        7.715      525.369      145.235        0.076      345.194       22.546      855.037
04/17/2014  13:12:00     -225.182      -97.058       27.342      204.273      150.566       99.886    41727.564    22669.980     9977.267        6.761        3.719      245.208      115.633        0.222      345.470       23.020      855.057
04/17/2014  13:13:00     -299.851     -186.695       14.853      296.975      182.292      104.878    88193.915    33230.550    10999.387       12.868        6.621      353.222      125.487        0.126      345.467       23.016      855.035
04/17/2014  13:14:00     -549.375     -268.417      -20.818      230.860      218.865      102.951    53296.470    47901.853    10598.827       24.302        5.590      611.441      101.730        0.028      345.195       22.548      855.017
04/17/2014  13:15:00     -255.733     -165.901        6.038      193.127      139.560       81.621    37298.030    19476.949     6661.955        7.819        3.172      304.833       73.010        0.057      345.464       23.009      855.021
04/17/2014  13:16:00     -488.607     -205.181      -23.687      186.391      144.001       83.033    34741.652    20736.357     6894.541       17.187        3.119      529.940       62.225        0.014      345.373       22.854      855.011
04/17/2014  13:17:00     -482.229     -126.894      -13.903      251.791      242.426      116.466    63398.791    58770.269    13564.328       19.226        6.787      498.645      125.078        0.063      345.173       22.509      855.002
04/17/2014  13:18:00     -543.807     -105.133      -39.759      247.962      222.673      110.154    61484.991    49583.370    12133.836       21.576        6.160      553.876      125.425        0.051      344.879       22.009      855.002
04/17/2014  13:19:00     -222.804      -62.317       12.793      190.988      118.274       68.620    36476.237    13988.724     4708.730        5.442        2.759      231.355       90.337        0.152      345.179       22.523      854.987
04/17/2014  13:20:00     -263.554      -50.134        4.965      189.966      159.027       92.492    36087.256    25289.531     8554.709        7.095        3.497      268.280      102.811        0.147      345.214       22.582      854.965
04/17/2014  13:21:00     -291.785     -121.558        1.847      243.617      136.248       70.673    59349.360    18563.635     4994.648        9.140        4.145      316.093       88.460        0.078      345.388       22.879      854.955
04/17/2014  13:22:00     -256.193      -49.881       10.318      188.914      148.981       93.529    35688.536    22195.405     8747.704        6.742        3.332      261.004      103.972        0.159      345.448       22.982      854.923
04/17/2014  13:23:00     -400.708      -67.585      -21.459      247.180      154.299       83.121    61098.195    23808.096     6909.145       12.869        4.591      406.368       93.998        0.054      345.293       22.717      854.889
04/17/2014  13:24:00     -210.390     -100.808       32.391      175.320      184.060       97.112    30737.157    33877.957     9430.821        6.475        3.702      233.294       95.735        0.168      345.515       23.098      854.885
04/17/2014  13:25:00     -446.683      -31.856       -0.438      247.561      198.081      117.866    61286.481    39236.177    13892.313       15.746        5.721      447.818      132.748        0.088      345.449       22.985      854.838
04/17/2014  13:26:00     -566.849     -139.868      -31.209      258.936      162.349       95.223    67047.998    26357.341     9067.336       22.214        5.124      583.850      109.293        0.035      345.282       22.697      854.858
04/17/2014  13:27:00     -399.036      -24.988       -3.168      223.230      174.262       87.551    49831.719    30367.316     7665.106       12.385        4.393      399.818      102.446        0.066      345.418       22.932      854.860
04/17/2014  13:28:00     -435.540     -107.370       -7.487      203.652      185.696       84.063    41473.957    34483.145     7066.553       14.214        4.151      448.579       83.646        0.035      345.432       22.955      854.810
04/17/2014  13:29:00     -582.399     -183.340      -23.574      242.588      167.052       95.859    58849.085    27906.325     9188.952       23.463        4.797      610.576      100.820        0.027      345.389       22.879      854.796
04/17/2014  13:30:00     -569.749      -97.422       -8.749      262.375      232.258      116.984    68840.477    53943.936    13685.247       23.530        6.823      578.018      137.988        0.057      345.369       22.846      854.799
04/17/2014  13:31:00     -412.498     -260.614       -7.500      241.351      163.295      101.016    58250.207    26665.242    10204.171       16.661        4.756      487.928      106.320        0.047      345.472       23.022      854.796
04/17/2014  13:32:00     -356.954     -263.072       -3.285      271.132      187.197      108.712    73512.389    35042.880    11818.344       15.848        6.019      443.422      126.839        0.082      345.473       23.027      854.784
04/17/2014  13:33:00     -685.310     -313.646      -34.799      319.756      209.259      120.295   102243.773    43789.460    14470.897       36.484        8.025      753.674      140.407        0.035      345.228       22.606      854.804
04/17/2014  13:34:00     -507.767     -206.189       -9.223      318.471      223.042      110.559   101424.049    49747.936    12223.403       23.188        8.170      548.034      138.855        0.064      345.343       22.802      854.825
04/17/2014  13:35:00     -685.482     -247.125      -34.132      334.896      274.518      122.878   112155.088    75360.382    15098.896       36.733       10.131      728.667      159.150        0.048      345.049       22.300      854.776
04/17/2014  13:36:00     -394.475     -163.780       -0.672      238.991      141.937      100.134    57116.550    20146.062    10026.782       13.484        4.364      427.123      118.546        0.077      345.384       22.872      854.807
04/17/2014  13:37:00     -546.444     -115.089      -20.289      237.287      224.560      114.434    56305.022    50427.288    13095.211       21.602        5.991      558.432      116.525        0.044      345.302       22.733      854.827
04/17/2014  13:38:00     -654.039     -257.731      -10.471      298.489      312.357      135.951    89095.725    97566.899    18482.638       34.968       10.257      702.988      145.167        0.043      345.272       22.680      854.812
04/17/2014  13:39:00     -471.852     -151.062       -3.657      226.269      219.647      108.632    51197.804    48244.866    11800.864       17.834        5.562      495.443      118.569        0.057      345.258       22.657      854.827
04/17/2014  13:40:00     -569.477      -72.493      -23.748      251.327      174.775       98.339    63165.126    30546.347     9670.497       21.673        5.169      574.073      114.482        0.040      345.230       22.609      854.800
04/17/2014  13:41:00     -496.729     -258.672        0.092      213.697      212.532      117.351    45666.534    45169.763    13771.371       20.911        5.230      560.045      115.142        0.042      345.281       22.695      854.762
04/17/2014  13:42:00     -337.316     -121.003      -13.467      199.227      187.921       97.422    39691.292    35314.371     9490.974       10.653        4.225      358.363      119.853        0.112      345.502       23.075      854.769
04/17/2014  13:43:00     -469.711        0.675      -38.115      253.269      184.343       98.410    64145.167    33982.493     9684.491       16.493        5.391      469.711      114.216        0.059      345.393       22.888      854.744
04/17/2014  13:44:00     -444.614     -115.613      -19.339      258.344      234.860      119.987    66741.608    55159.014    14396.794       17.383        6.815      459.400      138.330        0.091      345.615       23.270      854.688
04/17/2014  13:45:00     -482.963     -177.591       -7.145      263.585      213.008       95.403    69477.303    45372.347     9101.711       19.437        6.198      514.579      114.658        0.050      345.416       22.927      854.688
04/17/2014  13:46:00     -576.507      -16.010      -27.127      243.890      232.526      100.358    59482.224    54068.185    10071.734       22.846        6.181      576.730       91.640        0.025      345.392       22.886      854.636
04/17/2014  13:47:00     -451.354     -300.919      -22.655      253.772      223.272      116.239    64400.022    49850.607    13511.469       21.125        6.388      542.469      131.693        0.059      345.577       23.204      854.660
04/17/2014  13:48:00     -305.324     -143.309        9.739      257.512      153.174       98.292    66312.459    23462.357     9661.359       10.663        4.972      337.283      126.157        0.140      345.709       23.430      854.683
04/17/2014  13:49:00     -589.471      -64.759       -6.834      321.904      226.159      121.059   103622.495    51147.718    14655.182       26.054        8.471      593.018      148.593        0.063      345.394       22.889      854.673
04/17/2014  13:50:00     -368.513      -64.446       -8.115      233.978      220.420      105.689    54745.622    48584.977    11170.234       12.724        5.725      374.105      122.791        0.108      345.286       22.705      854.659
04/17/2014  13:51:00     -291.867     -119.940       -8.908      232.843      224.202      112.378    54215.855    50266.545    12628.914       10.836        5.856      315.550      113.809        0.130      345.411       22.920      854.643
04/17/2014  13:52:00     -591.463      -50.605      -26.373      271.140      213.131      104.461    73517.103    45424.836    10912.011       24.144        6.493      593.623      121.634        0.042      345.357       22.827      854.602
04/17/2014  13:53:00     -585.598     -213.808      -24.275      291.157      211.468      115.696    84772.130    44718.913    13385.647       26.602        7.144      623.409      140.251        0.051      345.321       22.763      854.596
04/17/2014  13:54:00     -571.424     -133.434      -43.086      287.235      257.402      116.372    82503.813    66255.540    13542.491       25.421        8.115      586.797      121.149        0.043      345.400       22.899      854.620
04/17/2014  13:55:00     -659.865      -19.318      -30.629      312.872      210.192      113.379    97889.102    44180.781    12854.714       29.580        7.746      660.147      135.115        0.042      345.269       22.675      854.650
04/17/2014  13:56:00     -535.151     -127.485      -25.866      270.138      178.879      102.613    72974.661    31997.590    10529.352       20.938        5.775      550.126      121.966        0.049      345.393       22.888      854.642
04/17/2014  13:57:00     -460.960     -317.256        0.922      325.727      229.883      124.675   106097.864    52846.051    15543.835       24.378        8.724      559.585      147.712        0.070      345.367       22.844      854.659
04/17/2014  13:58:00     -453.492     -185.078       12.429      355.653      247.764      122.431   126489.369    61387.224    14989.399       22.142       10.143      489.805      160.709        0.108      345.363       22.836      854.610
04/17/2014  13:59:00     -662.804      -89.051      -37.889      347.440      206.520      117.330   120714.382    42650.377    13766.324       31.287        8.857      668.760      147.868        0.049      345.254       22.650      854.596
04/17/2014  14:00:00     -488.038      -94.783      -26.545      217.877      153.310       87.664    47470.193    23503.944     7684.937       16.325        3.933      497.157      103.075        0.043      345.505       23.080      854.602
04/17/2014  14:01:00     -518.321     -129.421      -10.780      319.981      214.858      126.827   102387.827    46163.982    16085.150       22.505        8.232      534.234      143.279        0.072      345.598       23.240      854.598
04/17/2014  14:02:00     -447.556      -73.379      -22.635      193.293      164.356       85.199    37362.207    27012.955     7258.908       13.890        3.582      453.532       85.699        0.036      345.525       23.114      854.635
04/17/2014  14:03:00     -404.074     -177.971        2.117      235.873      190.274       99.741    55636.094    36204.100     9948.204       14.835        5.089      441.531      116.386        0.069      345.502       23.076      854.615
04/17/2014  14:04:00     -237.061      -60.981       23.072      229.164      137.543       93.666    52515.995    18918.098     8773.325        7.031        4.010      244.779      102.496        0.175      345.798       23.584      854.547
04/17/2014  14:05:00     -729.794      -91.316      -45.490      262.855      204.537      105.724    69092.953    41835.351    11177.488       33.253        6.105      735.485      113.334        0.024      345.454       22.994      854.551
04/17/2014  14:06:00     -734.340      -60.319      -18.808      295.587      151.266      104.137    87371.690    22881.400    10844.430       33.215        6.055      736.813      127.767        0.030      345.427       22.946      854.522
04/17/2014  14:07:00     -636.558     -234.095      -20.323      269.630      237.602      107.646    72700.478    56454.600    11587.763       30.055        7.037      678.238      122.866        0.033      345.467       23.015      854.569
04/17/2014  14:08:00     -594.824     -336.032      -25.874      258.513      237.493      113.360    66828.924    56402.999    12850.592       30.172        6.804      683.179      121.570        0.032      345.279       22.691      854.532
04/17/2014  14:09:00     -227.724      -93.986        0.012      163.079      143.989       74.312    26594.718    20732.841     5522.297        5.676        2.642      246.357       84.016        0.116      345.881       23.725      854.522
04/17/2014  14:10:00     -472.908     -133.780      -13.453      184.647      217.113       95.963    34094.644    47137.907     9208.907       16.606        4.522      491.466       86.520        0.031      345.712       23.434      854.539
04/17/2014  14:11:00     -684.491     -156.700        2.302      311.110      218.432      134.307    96789.206    47712.455    18038.450       32.778        8.127      702.198      156.776        0.050      345.391       22.884      854.531
04/17/2014  14:12:00     -770.490     -135.268      -62.889      264.875      188.513       97.310    70158.805    35537.172     9469.167       36.551        5.758      782.274      110.871        0.020      345.269       22.676      854.540
04/17/2014  14:13:00     -564.151      -80.789      -26.039      216.660      162.460      103.532    46941.405    26393.219    10718.826       20.475        4.203      569.907      114.845        0.041      345.341       22.799      854.544
04/17/2014  14:14:00     -445.204     -143.678      -44.639      163.935      164.507       61.135    26874.773    27062.573     3737.475       13.925        2.884      467.814       64.200        0.019      345.450       22.986      854.565
04/17/2014  14:15:00     -268.290     -166.011      -13.262      157.037      160.947       73.169    24660.528    25903.937     5353.647        7.781        2.796      315.498       72.197        0.052      345.584       23.217      854.573
04/17/2014  14:16:00     -543.497     -199.902      -25.027      254.241      266.865      101.151    64638.603    71216.684    10231.502       24.100        7.304      579.094      112.412        0.038      345.543       23.144      854.503
04/17/2014  14:17:00     -528.475     -291.632        2.536      312.573      208.166      109.915    97702.027    43333.010    12081.199       25.870        7.656      603.601      135.493        0.050      345.338       22.794      854.493
04/17/2014  14:18:00     -303.505     -210.414       10.141      226.155      194.652       93.005    51146.132    37889.228     8649.963       11.707        4.884      369.309      101.751        0.076      345.528       23.120      854.467
04/17/2014  14:19:00     -361.101     -215.279        6.148      263.825      248.431      114.488    69603.802    61718.054    13107.414       16.057        7.221      420.403      118.218        0.079      345.586       23.219      854.455
04/17/2014  14:20:00     -348.266     -127.895       -8.118      162.830      148.899       71.631    26513.615    22170.771     5130.944        9.575        2.691      371.007       80.336        0.047      345.553       23.162      854.485
04/17/2014  14:21:00     -397.983     -157.356       -8.307      256.299      251.520      100.750    65689.307    63262.368    10150.500       16.113        6.955      427.962      129.085        0.091      345.691       23.401      854.470
04/17/2014  14:22:00     -629.469     -422.380      -36.228      337.001      286.237      132.741   113569.715    81931.535    17620.136       39.449       10.656      758.047      147.723        0.038      345.155       22.479      854.417
04/17/2014  14:23:00     -437.352     -295.630       20.503      256.660      235.822      123.163    65874.362    55612.047    15169.005       20.785        6.833      527.896      135.836        0.066      345.413       22.922      854.448
04/17/2014  14:24:00     -320.872     -157.110       -7.019      250.290      245.010      127.453    62645.214    60029.884    16244.249       13.328        6.946      357.270      131.025        0.134      345.635       23.304      854.439
04/17/2014  14:25:00     -488.246      -31.149      -29.800      212.151      231.543       83.435    45007.962    53612.183     6961.316       17.289        5.279      489.239       94.497        0.037      345.615       23.269      854.469
04/17/2014  14:26:00     -323.441      -55.134       17.031      294.809      179.018      125.297    86912.469    32047.294    15699.355       12.127        6.733      328.107      150.841        0.211      345.649       23.328      854.415
04/17/2014  14:27:00     -530.640       -3.623      -23.789      240.458      193.012      113.516    57820.243    37253.774    12885.925       19.504        5.398      530.653      117.224        0.049      345.680       23.381      854.446
04/17/2014  14:28:00     -312.906     -198.797        5.116      210.834      175.114      113.675    44451.085    30664.923    12922.088       11.273        4.402      370.716      108.087        0.085      345.780       23.552      854.461
04/17/2014  14:29:00     -366.465     -253.779       27.506      368.092      269.688      165.734   135491.704    72731.870    27467.871       21.753       11.785      445.758      195.945        0.193      345.592       23.228      854.438
04/17/2014  14:30:00     -632.215     -143.250      -22.546      370.009      256.352      142.463   136906.772    65716.453    20295.778       32.178       11.146      648.241      178.331        0.076      345.470       23.021      854.394
04/17/2014  14:31:00     -354.086     -126.655       -5.502      339.157      236.237      126.229   115027.541    55807.794    15933.876       16.407        9.338      376.056      168.193        0.200      345.595       23.234      854.418
04/17/2014  14:32:00     -326.599     -118.181        4.112      342.819      197.749      127.160   117524.618    39104.545    16169.768       14.669        8.640      347.324      166.521        0.230      345.750       23.500      854.423
04/17/2014  14:33:00     -366.449     -136.579       -6.393      224.211      184.613       85.580    50270.539    34082.021     7323.977       12.231        4.584      391.074       98.144        0.063      345.840       23.655      854.434
04/17/2014  14:34:00     -373.101     -153.392       13.754      275.054      219.030      126.518    75654.711    47974.338    16006.705       15.125        6.982      403.402      141.059        0.122      345.742       23.485      854.444
04/17/2014  14:35:00     -487.711     -324.438      -15.579      361.565      240.242      126.999   130729.216    57716.385    16128.770       27.393       10.229      585.766      163.656        0.078      345.403       22.907      854.415
04/17/2014  14:36:00     -472.756     -282.419        8.807      297.443      244.008      118.761    88472.204    59539.811    14104.191       23.269        8.106      550.689      146.176        0.070      345.574       23.198      854.409
04/17/2014  14:37:00     -309.290     -110.909       -3.865      236.556      156.108       99.447    55958.789    24369.612     9889.671        9.908        4.511      328.575      105.462        0.103      345.516       23.099      854.391
04/17/2014  14:38:00     -656.068       27.756      -43.175      241.066      151.181       95.707    58112.806    22855.644     9159.845       26.158        4.506      656.655      113.705        0.030      345.591       23.228      854.390
04/17/2014  14:39:00     -466.163      -96.662      -25.648      263.038      216.825       94.227    69189.209    47013.076     8878.673       17.617        6.254      476.079      125.975        0.070      345.700       23.417      854.428
04/17/2014  14:40:00     -508.932     -284.843       -6.085      308.952      195.729      117.336    95451.062    38309.932    13767.656       24.383        7.376      583.221      136.632        0.055      345.489       23.053      854.454
04/17/2014  14:41:00     -422.918     -276.507       -1.443      277.771      251.113      122.892    77156.497    63057.704    15102.476       20.529        7.766      505.288      157.966        0.098      345.342       22.801      854.448
04/17/2014  14:42:00     -555.275     -151.488      -16.723      320.771      310.692      133.677   102893.827    96529.789    17869.431       27.438       10.865      575.568      156.721        0.074      345.352       22.817      854.425
04/17/2014  14:43:00     -458.633     -147.934      -18.839      333.594      220.010      120.626   111284.988    48404.280    14550.714       20.338        8.712      481.901      155.114        0.104      345.432       22.953      854.375
04/17/2014  14:44:00     -382.010      -47.850       22.098      267.014      191.188      116.813    71296.346    36552.873    13645.297       13.508        6.075      384.996      130.091        0.114      345.566       23.184      854.347
04/17/2014  14:45:00     -319.267      -65.269      -14.313      201.930      166.585       99.853    40775.846    27750.690     9970.592        9.243        3.925      325.870      108.361        0.111      345.694       23.403      854.310
04/17/2014  14:46:00     -273.147     -116.807       -8.139      199.130      162.278       79.073    39652.592    26334.091     6252.576        8.026        3.612      297.074       91.603        0.095      345.849       23.671      854.335
04/17/2014  14:47:00     -572.494     -197.644      -21.339      307.037      215.694      121.990    94271.498    46523.832    14881.500       26.144        7.784      605.650      139.754        0.053      345.517       23.099      854.336
04/17/2014  14:48:00     -692.824     -202.648      -43.124      292.556      287.364      126.994    85588.825    82577.815    16127.367       35.358        9.215      721.853      135.620        0.035      345.275       22.685      854.298
04/17/2014  14:49:00     -531.231     -214.026      -11.757      338.576      245.266      122.071   114633.506    60155.654    14901.424       25.888        9.485      572.725      168.352        0.086      345.348       22.809      854.309
04/17/2014  14:50:00     -612.654     -278.486      -18.295      375.285      220.640      114.204   140838.675    48681.951    13042.657       32.786       10.128      672.978      153.093        0.052      345.243       22.630      854.324
04/17/2014  14:51:00     -507.457      -42.803      -25.255      209.468      137.964      104.198    43876.701    19034.135    10857.298       16.686        3.688      509.259      100.825        0.039      345.319       22.762      854.321
04/17/2014  14:52:00     -342.551      -91.731       12.205      257.036      176.810      116.466    66067.707    31261.914    13564.346       11.838        5.545      354.621      143.152        0.163      345.395       22.890      854.326
04/17/2014  14:53:00     -606.426     -196.077      -22.777      323.347      238.211      112.392   104553.525    56744.515    12631.870       29.029        8.696      637.337      143.720        0.051      345.195       22.550      854.282
04/17/2014  14:54:00     -507.504      -69.380      -39.137      305.852      185.181       92.615    93545.150    34292.142     8577.545       20.013        6.821      512.224      116.921        0.052      345.190       22.539      854.273
04/17/2014  14:55:00     -326.712      -58.931      -10.778      162.023      174.663       79.567    26251.478    30507.036     6330.971        8.670        3.154      331.985       71.997        0.047      345.298       22.723      854.286
04/17/2014  14:56:00     -387.922      -12.140      -25.878      197.935      132.316       77.373    39178.332    17507.500     5986.554       10.697        3.134      388.112       77.327        0.040      345.312       22.749      854.266
04/17/2014  14:57:00     -495.952     -216.921       -0.601      292.584      245.935      110.469    85605.495    60483.886    12203.445       22.563        7.915      541.316      117.656        0.047      345.156       22.481      854.254
04/17/2014  14:58:00     -544.504     -344.777      -26.063      291.478      216.072      121.244    84959.541    46686.954    14700.067       28.116        7.317      644.481      150.108        0.054      344.909       22.060      854.214
04/17/2014  14:59:00     -373.608     -252.308        8.216      264.272      198.855      117.781    69839.672    39543.153    13872.290       16.326        6.163      450.824      129.760        0.083      345.069       22.334      854.213
04/17/2014  15:00:00     -282.994     -217.003       15.537      224.685      203.965      121.291    50483.409    41601.807    14711.416       11.709        5.340      356.617      117.163        0.108      345.104       22.393      854.217
04/17/2014  15:01:00     -498.430     -185.928      -12.269      235.034      200.334      110.062    55240.919    40133.852    12113.739       19.530        5.374      531.979      124.392        0.055      345.000       22.216      854.213
04/17/2014  15:02:00     -450.372     -105.770      -15.554      223.931      161.353       89.282    50144.914    26034.952     7971.342       14.919        4.208      462.626      103.612        0.050      344.976       22.172      854.224
04/17/2014  15:03:00     -341.150      -96.535      -19.264      188.270      154.647       85.278    35445.780    23915.722     7272.275        9.634        3.332      354.545       91.061        0.066      345.104       22.394      854.240
04/17/2014  15:04:00     -605.645      -59.059      -52.452      209.673      197.696       95.308    43962.713    39083.818     9083.672       23.257        4.607      608.517       86.165        0.020      344.980       22.181      854.222
04/17/2014  15:05:00     -423.473     -222.297       -4.500      174.624      232.825       89.799    30493.558    54207.645     8063.865       16.075        4.638      478.273       92.281        0.037      344.971       22.166      854.193
04/17/2014  15:06:00     -550.952     -115.085      -18.807      229.033      209.878       92.514    52456.174    44048.962     8558.748       21.108        5.253      562.843       97.730        0.030      345.015       22.242      854.111
04/17/2014  15:07:00     -335.154     -136.193      -10.073      184.247      146.363       74.391    33946.813    21422.079     5534.011        9.593        3.045      361.768       82.844        0.052      345.146       22.464      854.139
04/17/2014  15:08:00     -358.727      -53.595      -14.973      189.518      161.796       83.990    35917.091    26177.893     7054.394       10.045        3.457      362.709       82.289        0.051      345.155       22.481      854.131
04/17/2014  15:09:00     -330.852      -65.926       -7.676      262.970      102.398       77.748    69153.056    10485.264     6044.674        9.976        4.284      337.356      104.222        0.095      345.168       22.503      854.142
04/17/2014  15:10:00     -293.601     -186.439       18.126      256.602      194.752      110.903    65844.810    37928.407    12299.553       11.866        5.804      347.795      122.900        0.125      345.166       22.499      854.145
04/17/2014  15:11:00     -418.420     -111.753       -9.697      160.754      166.259       67.514    25841.717    27641.896     4558.142       12.284        2.902      433.087       63.419        0.021      345.084       22.357      854.156
04/17/2014  15:12:00     -350.880     -217.630       -9.229      182.951      114.818       91.242    33471.189    13183.213     8325.152       11.276        2.749      412.892       95.657        0.054      344.959       22.145      854.099
04/17/2014  15:13:00     -329.323     -204.426       -4.147      208.413      182.647       95.593    43436.164    33360.027     9137.935       11.808        4.297      387.613       98.522        0.065      345.015       22.242      854.092
04/17/2014  15:14:00     -303.071     -179.647        5.911      196.932      147.522       83.961    38782.335    21762.598     7049.411        9.586        3.380      352.314       90.108        0.065      345.024       22.256      854.083
04/17/2014  15:15:00     -517.018      -99.449      -18.008      262.826      222.291      101.984    69077.640    49413.101    10400.732       20.318        6.445      526.496      118.016        0.050      344.923       22.082      854.048
04/17/2014  15:16:00     -537.198      -92.724      -20.538      210.722      189.933       92.326    44403.610    36074.547     8524.068       19.328        4.450      545.141      103.473        0.036      344.863       21.979      854.047
04/17/2014  15:17:00     -471.049     -106.754       -4.744      247.870      182.300       90.375    61439.681    33233.360     8167.590       16.805        5.142      482.994       98.743        0.042      344.915       22.069      854.005
04/17/2014  15:18:00     -512.671      -16.654      -17.853      274.435      184.583      113.241    75314.795    34070.962    12823.635       19.279        6.110      512.942      121.280        0.056      344.896       22.037      853.972
04/17/2014  15:19:00     -407.542      -51.744      -32.969      152.676      140.371       76.494    23310.010    19704.074     5851.351       10.935        2.443      410.814       60.817        0.022      344.917       22.073      853.993
04/17/2014  15:20:00     -355.402     -279.110      -18.201      188.379      181.578       98.903    35486.583    32970.641     9781.787       14.138        3.912      451.899       96.144        0.045      344.864       21.982      853.966
04/17/2014  15:21:00     -321.973      -83.307      -16.871      208.890      159.909       96.095    43635.171    25570.872     9234.168        9.465        3.922      332.575      115.553        0.121      344.948       22.126      853.977
04/17/2014  15:22:00     -186.974      -88.835        7.260      149.935      134.016       77.559    22480.574    17960.385     6015.347        4.467        2.323      207.004       71.858        0.121      344.919       22.077      853.914
04/17/2014  15:23:00     -173.825      -32.749        6.925      132.038      136.791       76.526    17434.075    18711.707     5856.179        3.666        2.100      176.883       72.337        0.167      345.010       22.233      853.844
04/17/2014  15:24:00     -523.171     -155.585      -17.196      269.366      193.019      109.529    72557.791    37256.485    11996.651       20.999        6.091      545.815      132.520        0.059      344.963       22.152      853.866
04/17/2014  15:25:00     -362.638      -52.381       16.309      247.729      210.876      102.605    61369.825    44468.822    10527.765       12.542        5.818      366.402      108.468        0.088      344.944       22.119      853.927
04/17/2014  15:26:00     -402.961     -318.281        0.073      244.794      234.799      114.930    59924.219    55130.716    13209.019       19.595        6.413      513.499      134.620        0.069      344.909       22.059      853.920
04/17/2014  15:27:00     -416.034     -229.148        0.006      252.420      176.397      100.569    63716.059    31116.005    10114.128       16.525        5.247      474.967      124.255        0.068      344.934       22.102      853.920
04/17/2014  15:28:00     -442.934     -293.028      -23.234      257.568      193.683      114.960    66341.341    37513.206    13215.860       19.981        5.854      531.090      120.238        0.051      344.882       22.012      853.888
04/17/2014  15:29:00     -315.656      -71.805      -15.182      208.712      144.316       91.587    43560.503    20826.973     8388.124        8.889        3.639      323.720      109.159        0.114      344.963       22.153      853.881
04/17/2014  15:30:00     -232.226     -106.322        7.821      286.670      133.163       85.074    82179.689    17732.428     7237.648        8.620        5.357      255.408      113.868        0.199      344.978       22.177      853.796
04/17/2014  15:31:00     -412.801      -84.363      -12.030      225.894      140.306       81.086    51027.883    19685.752     6574.896       12.746        3.864      421.333       87.902        0.044      344.998       22.212      853.789
04/17/2014  15:32:00     -424.389     -100.916       -5.316      222.447      135.791       98.548    49482.607    18439.174     9711.615       13.396        3.882      436.223      111.261        0.065      344.981       22.184      853.833
04/17/2014  15:33:00     -369.169      -49.957      -25.849      238.949      142.049       90.527    57096.791    20177.782     8195.129       11.244        4.273      372.534      112.154        0.091      344.983       22.185      853.878
04/17/2014  15:34:00     -398.663      -15.680      -19.895      171.395       99.722       63.923    29376.311     9944.387     4086.150       10.148        2.170      398.972       82.668        0.043      344.910       22.060      853.863
04/17/2014  15:35:00     -313.325      -57.380      -21.014      176.009      121.732       81.754    30979.125    14818.722     6683.775        7.718        2.624      318.536       84.156        0.070      344.951       22.131      853.852
04/17/2014  15:36:00     -198.234      -81.815       18.679      177.764      155.327       88.445    31600.204    24126.540     7822.489        5.493        3.177      214.454       95.908        0.200      345.035       22.275      853.782
04/17/2014  15:37:00     -409.045      -44.645       -7.939      214.800      146.328       94.587    46138.955    21411.775     8946.624       12.292        3.825      411.475       95.615        0.054      345.051       22.303      853.819
04/17/2014  15:38:00     -361.673     -187.814       -4.977      201.767      156.397      101.692    40709.916    24460.044    10341.254       12.079        3.776      407.531      110.137        0.073      345.024       22.255      853.838
04/17/2014  15:39:00     -484.704     -112.451      -36.571      174.460      189.698       88.325    30436.141    35985.472     7801.345       16.156        3.711      497.578       77.857        0.024      344.910       22.061      853.820
04/17/2014  15:40:00     -630.353      -60.692      -33.374      292.886      265.193      128.026    85782.159    70327.340    16390.679       28.729        8.625      633.268      143.211        0.051      344.831       21.924      853.790
04/17/2014  15:41:00     -682.495     -115.799      -40.852      239.274      173.092       98.814    57251.876    29960.866     9764.212       28.891        4.849      692.249      110.086        0.025      344.848       21.954      853.758
04/17/2014  15:42:00     -355.695      -46.509      -28.079      150.191      126.846       71.984    22557.460    16089.917     5181.763        8.664        2.191      358.722       66.342        0.034      344.960       22.147      853.770
04/17/2014  15:43:00     -544.371      -57.147      -37.383      218.886      173.731       82.332    47911.154    30182.607     6778.581       19.292        4.244      547.363       79.855        0.021      344.871       21.994      853.742
04/17/2014  15:44:00     -381.247     -111.711      -10.348      198.847      163.202       82.817    39540.186    26634.946     6858.732       11.547        3.652      397.276       95.300        0.058      344.888       22.024      853.689
04/17/2014  15:45:00     -490.859        6.824      -16.195      208.371      191.286       86.900    43418.354    36590.340     7551.528       16.439        4.378      490.907       79.059        0.026      344.924       22.086      853.701
04/17/2014  15:46:00     -201.429      -50.913       -2.960      251.006      114.098       95.580    63003.837    13018.384     9135.631        6.415        4.258      207.764      115.527        0.309      345.039       22.283      853.672
04/17/2014  15:47:00     -348.053     -108.696      -41.547      195.251      158.578       82.385    38122.780    25147.020     6787.338       10.236        3.503      364.631       72.042        0.039      344.995       22.208      853.673
04/17/2014  15:48:00     -411.281     -229.870       -9.549      221.169      163.552      100.060    48915.864    26749.347    10012.093       15.386        4.284      471.161      112.271        0.057      344.954       22.137      853.638
04/17/2014  15:49:00     -364.756      -62.681      -15.095      214.888      175.936       93.533    46176.712    30953.612     8748.373       11.152        4.294      370.102       93.515        0.064      345.018       22.246      853.610
04/17/2014  15:50:00     -231.836      -54.605       11.349      154.695      114.287       68.601    23930.389    13061.525     4706.150        4.927        2.085      238.180       73.005        0.094      345.064       22.327      853.628
04/17/2014  15:51:00     -341.030      -33.945       17.199      212.796      189.114      109.414    45282.322    35764.120    11971.451       10.536        4.651      342.715      118.972        0.121      345.066       22.330      853.613
04/17/2014  15:52:00     -227.901      -79.849        0.489      225.185      176.206       86.679    50708.350    31048.505     7513.324        7.377        4.464      241.485      110.509        0.209      345.086       22.363      853.605
04/17/2014  15:53:00     -336.943      -94.221       -0.445      208.751      157.911       98.296    43576.894    24935.783     9662.084       10.028        3.909      349.869      107.874        0.095      345.145       22.462      853.606
04/17/2014  15:54:00     -388.794     -102.974        8.557      303.559      261.095      122.617    92148.020    68170.598    15034.903       16.856        8.768      402.199      138.354        0.118      345.028       22.263      853.638
04/17/2014  15:55:00     -347.220      -81.730       -4.410      270.731      188.324       85.485    73295.041    35465.817     7307.671       12.164        5.803      356.710      113.481        0.101      345.046       22.294      853.733
04/17/2014  15:56:00     -201.625      -43.343        0.382      178.073      172.311       75.913    31709.853    29691.001     5762.728        5.483        3.358      206.231       80.098        0.151      345.049       22.299      853.730
04/17/2014  15:57:00     -347.507     -100.054      -14.384      199.755      153.888       81.270    39902.182    23681.662     6604.835       10.057        3.509      361.624       98.365        0.074      345.006       22.225      853.721
04/17/2014  15:58:00     -501.390     -171.199      -16.019      265.794      141.052       91.459    70646.335    19895.677     8364.706       18.991        4.945      529.812      108.045        0.042      344.972       22.168      853.635
04/17/2014  15:59:00     -309.310     -122.608       -3.033      228.328      149.307       87.772    52133.726    22292.658     7703.925        9.641        4.107      332.724       98.476        0.088      345.043       22.290      853.639
04/17/2014  16:00:00     -570.438     -279.103      -16.008      288.535      263.093      137.911    83252.347    69218.098    19019.340       28.749        8.574      635.058      150.052        0.056      344.965       22.154      853.629
04/17/2014  16:01:00     -518.264      -54.802      -10.901      254.600      219.574      109.535    64821.383    48212.734    11997.873       19.835        6.252      521.153      124.627        0.057      344.917       22.075      853.667
04/17/2014  16:02:00     -257.666      -81.694        8.979      151.349      164.572       77.871    22906.378    27084.014     6063.959        6.459        2.803      270.306       73.449        0.074      344.970       22.165      853.690
04/17/2014  16:03:00     -317.543     -178.792      -19.532      202.607      152.950       95.325    41049.744    23393.581     9086.918       10.334        3.677      364.417       98.710        0.073      344.882       22.015      853.680
04/17/2014  16:04:00     -439.807     -222.883      -23.067      318.022      190.301      113.389   101137.778    36214.500    12856.996       19.689        7.510      493.059      145.661        0.087      344.895       22.036      853.695
04/17/2014  16:05:00     -598.300     -125.073      -14.570      297.723      196.450      117.934    88638.995    38592.679    13908.460       25.745        7.057      611.233      133.351        0.048      344.848       21.955      853.723
04/17/2014  16:06:00     -663.793      -68.314      -20.518      304.174      225.779      117.209    92521.916    50976.176    13737.923       30.144        7.862      667.299      132.428        0.039      344.792       21.858      853.696
04/17/2014  16:07:00     -447.724      -95.766       -4.057      260.477      210.775      113.693    67848.139    44425.997    12926.138       16.740        6.260      457.851      135.892        0.088      344.842       21.942      853.692
04/17/2014  16:08:00     -410.297      -83.868      -13.977      275.605      206.571       91.121    75957.977    42671.684     8302.948       15.123        6.347      418.781      101.986        0.059      344.857       21.970      853.720
04/17/2014  16:09:00     -540.541     -233.906      -42.199      210.279      226.602       97.466    44217.322    51348.367     9499.717       22.685        5.253      588.979      101.172        0.030      344.743       21.774      853.682
04/17/2014  16:10:00     -373.479     -179.751       -9.397      214.144      192.525       93.432    45857.846    37066.030     8729.570       13.175        4.583      414.484       94.655        0.052      344.839       21.939      853.682
04/17/2014  16:11:00     -485.664     -163.567        5.353      373.009      193.380      127.920   139135.407    37395.936    16363.414       22.773        9.645      512.468      158.191        0.095      344.786       21.849      853.636
04/17/2014  16:12:00     -483.670     -247.315      -43.115      276.466      218.364      113.068    76433.570    47683.018    12784.473       21.690        6.845      543.233      133.729        0.061      344.798       21.869      853.586
04/17/2014  16:13:00     -507.683     -171.342      -20.111      259.061      184.863      110.739    67112.398    34174.195    12263.037       20.050        5.677      535.817      118.899        0.049      344.765       21.811      853.587
04/17/2014  16:14:00     -552.317      -79.508      -12.702      251.723      263.621      113.853    63364.447    69495.833    12962.490       22.865        7.291      558.010      116.913        0.044      344.771       21.823      853.613
04/17/2014  16:15:00     -453.752     -118.988      -22.790      265.157      181.560       92.789    70308.476    32964.009     8609.798       16.620        5.594      469.094      104.053        0.049      344.803       21.877      853.623
04/17/2014  16:16:00     -479.429     -138.631       -0.710      291.104      199.325      119.020    84741.276    39730.309    14165.694       19.383        6.932      499.070      145.455        0.085      344.733       21.758      853.675
04/17/2014  16:17:00     -468.703      -72.408      -14.770      218.457      187.078      107.633    47723.301    34998.213    11584.917       15.971        4.715      474.263      116.480        0.060      344.755       21.796      853.706
04/17/2014  16:18:00     -597.874      -74.563      -40.666      266.812      151.588      113.753    71188.804    22978.790    12939.839       23.587        5.355      602.505      120.213        0.040      344.687       21.679      853.689
04/17/2014  16:19:00     -537.102     -182.443      -28.057      285.589      190.863      112.334    81561.094    36428.750    12618.923       22.655        6.530      567.243      132.213        0.054      344.680       21.667      853.650
04/17/2014  16:20:00     -568.665     -188.683      -33.291      234.253      204.257      115.556    54874.425    41721.018    13353.188       23.500        5.497      599.151      105.750        0.031      344.650       21.615      853.635
04/17/2014  16:21:00     -424.037     -137.258      -12.739      255.893      210.759      100.917    65481.057    44419.527    10184.194       15.942        6.004      445.699      127.162        0.081      344.689       21.681      853.653
04/17/2014  16:22:00     -411.662      -53.325      -11.054      229.047      210.575      101.945    52462.415    44341.867    10392.737       13.979        5.360      415.101       99.853        0.058      344.733       21.758      853.618
04/17/2014  16:23:00     -284.343      -95.557       14.100      241.279      177.713      112.937    58215.678    31582.032    12754.837        9.635        5.128      299.970      131.381        0.192      344.735       21.761      853.598
04/17/2014  16:24:00     -262.764     -185.747      -14.608      222.566      238.863      123.098    49535.617    57055.604    15153.146       11.273        6.087      321.787      132.881        0.171      344.741       21.771      853.566
04/17/2014  16:25:00     -463.650     -129.486       -7.041      294.715      178.113      123.217    86856.774    31724.318    15182.359       18.275        6.688      481.392      112.231        0.054      344.714       21.724      853.571
04/17/2014  16:26:00     -611.945     -126.980      -10.465      304.068      238.977      127.356    92457.291    57109.847    16219.540       27.822        8.289      624.980      160.411        0.066      344.580       21.495      853.571
04/17/2014  16:27:00     -535.369      -40.769      -27.136      188.092      195.712      100.517    35378.696    38303.348    10103.605       18.639        4.189      536.919       93.268        0.030      344.611       21.550      853.609
04/17/2014  16:28:00     -454.572     -172.044      -10.549      257.278      186.781      101.755    66192.153    34887.245    10354.097       17.387        5.572      486.040      123.010        0.064      344.649       21.613      853.604
04/17/2014  16:29:00     -646.590     -101.584      -22.868      341.107      274.351      126.074   116354.204    75268.378    15894.699       31.818       10.376      654.521      139.579        0.045      344.593       21.518      853.602
04/17/2014  16:30:00     -626.897     -162.119      -28.411      319.857      247.887      126.338   102308.513    61447.833    15961.192       29.987        8.986      647.520      154.304        0.057      344.557       21.456      853.615
04/17/2014  16:31:00     -564.260     -339.285      -17.605      264.643      255.090      130.927    70035.719    65070.753    17141.814       29.300        7.612      658.410      143.362        0.047      344.550       21.444      853.653
04/17/2014  16:32:00     -397.147     -202.323       29.876      326.814      268.158      136.748   106807.197    71908.962    18700.002       19.845        9.871      445.714      191.357        0.184      344.616       21.558      853.636
04/17/2014  16:33:00     -577.448     -263.283      -20.410      215.456      163.870      100.397    46421.404    26853.524    10079.594       24.325        4.168      634.637       98.499        0.024      344.595       21.521      853.748
04/17/2014  16:34:00     -389.590     -184.420       -6.849      224.674      180.883       91.395    50478.279    32718.532     8353.053       13.868        4.577      431.035       91.377        0.045      344.658       21.628      853.765
04/17/2014  16:35:00     -435.558      -48.380      -24.302      284.139      178.023       91.075    80734.879    31692.046     8294.630       15.666        6.036      438.236      108.423        0.061      344.684       21.673      853.799
04/17/2014  16:36:00     -555.639     -128.270      -37.420      332.077      197.025      113.143   110274.843    38818.730    12801.280       24.421        8.095      570.253      158.132        0.077      344.583       21.501      853.834
04/17/2014  16:37:00     -550.554      -43.483      -28.440      342.447      184.216      110.554   117270.148    33935.382    12222.104       23.459        8.171      552.268      142.571        0.067      344.590       21.513      853.845
04/17/2014  16:38:00     -434.456       32.906       -7.841      312.128      188.331      116.978    97423.593    35468.424    13683.854       16.821        7.329      435.701      142.930        0.108      344.668       21.647      853.888
04/17/2014  16:39:00     -432.667      -16.934      -24.086      190.752      164.795       78.247    36386.254    27157.395     6122.586       12.885        3.483      432.998       73.655        0.029      344.622       21.569      853.929
04/17/2014  16:40:00     -475.566      -97.286      -18.381      276.182      234.309      118.954    76276.551    54900.590    14150.166       19.062        7.266      485.415      135.291        0.078      344.600       21.530      853.926
04/17/2014  16:41:00     -384.035     -172.751       -1.447      138.972      121.069       72.613    19313.137    14657.720     5272.698       10.828        1.962      421.101       65.634        0.024      344.640       21.597      853.938
04/17/2014  16:42:00     -287.231     -221.392        1.950      198.531      172.967       91.989    39414.482    29917.645     8461.922       10.464        3.890      362.652       93.931        0.067      344.624       21.570      853.930
04/17/2014  16:43:00     -160.076      -41.584       10.565      177.151      125.299       81.889    31382.446    15699.750     6705.737        4.062        2.689      165.389       71.838        0.189      344.702       21.705      853.902
04/17/2014  16:44:00     -509.345      -26.980      -28.027      283.709      176.288       94.032    80490.783    31077.521     8842.005       19.065        6.021      510.059       95.043        0.035      344.635       21.589      853.925
04/17/2014  16:45:00     -567.921      -92.929       -6.074      280.558      151.586       92.476    78712.988    22978.234     8551.898       22.070        5.512      575.474       84.435        0.022      344.429       21.238      853.910
04/17/2014  16:46:00     -591.284      -76.427      -26.447      209.097      150.309       91.468    43721.555    22592.758     8366.383       21.540        3.734      596.203      107.797        0.033      344.434       21.246      853.927
04/17/2014  16:47:00     -434.167      -64.868      -39.081      209.479      165.175       94.354    43881.351    27282.707     8902.588       13.714        4.003      438.986       92.344        0.044      344.516       21.387      853.935
04/17/2014  16:48:00     -483.583      -62.629       -2.217      317.098      163.766       96.735   100550.833    26819.237     9357.704       18.723        6.836      487.622      120.594        0.061      344.441       21.260      853.897
04/17/2014  16:49:00     -327.178      -71.902      -21.325      141.194      146.962       79.530    19935.748    21597.715     6325.024        8.025        2.393      334.986       70.095        0.044      344.472       21.311      853.903
04/17/2014  16:50:00     -228.131      -42.359       -8.642      230.294      104.925       77.032    53035.486    11009.327     5933.948        6.193        3.499      232.030       98.008        0.178      344.603       21.536      853.906
04/17/2014  16:51:00     -382.186      -20.550        2.800      153.287      151.501       82.948    23496.884    22952.700     6880.453        9.990        2.667      382.738       65.362        0.029      344.577       21.490      853.913
04/17/2014  16:52:00     -419.322     -126.792       -7.070      196.479      149.711       70.093    38603.841    22413.390     4913.038       12.893        3.297      438.073       73.363        0.028      344.524       21.401      853.911
04/17/2014  16:53:00     -348.674     -219.606      -18.353      231.691      153.909       84.017    53680.783    23687.878     7058.787       12.727        4.221      412.068      101.556        0.061      344.503       21.366      853.872
04/17/2014  16:54:00     -467.034     -284.593      -23.577      250.337      213.079      120.110    62668.558    45402.538    14426.479       21.106        6.125      546.913      130.399        0.057      344.488       21.337      853.880
04/17/2014  16:55:00     -473.281      -64.952      -13.040      186.010      152.886       89.214    34599.884    23374.056     7959.130       14.715        3.297      477.718       90.159        0.036      344.510       21.377      853.890
04/17/2014  16:56:00     -496.743     -153.316      -22.248      200.016      171.962      104.818    40006.538    29571.062    10986.843       17.564        4.028      519.865      101.811        0.038      344.485       21.333      853.877
04/17/2014  16:57:00     -413.532     -208.443      -19.564      268.114      216.965      102.314    71885.302    47073.837    10468.148       17.211        6.471      463.095      124.645        0.072      344.455       21.283      853.857
04/17/2014  16:58:00     -366.095     -117.690       -1.659      240.143      209.793      109.127    57668.570    44013.159    11908.695       13.071        5.680      384.547      120.069        0.097      344.479       21.323      853.845
04/17/2014  16:59:00     -509.684     -148.781      -33.873      228.424      186.507       91.622    52177.427    34784.699     8394.536       18.919        4.768      530.955      103.875        0.038      344.446       21.267      853.823
04/17/2014  17:00:00     -271.640     -174.898        8.692      210.895      241.732      108.175    44476.779    58434.355    11701.822       10.951        5.731      323.075       91.039        0.079      344.499       21.359      853.787
04/17/2014  17:01:00     -519.404     -129.006      -16.531      237.626      169.904       92.278    56466.131    28867.517     8515.169       19.025        4.692      535.185      114.855        0.046      344.491       21.345      853.790
04/17/2014  17:02:00     -479.733     -155.571        0.240      283.870      235.238      125.144    80582.011    55336.982    15660.921       20.293        7.579      504.328      139.076        0.076      344.461       21.292      853.750
04/17/2014  17:03:00     -361.450     -204.087       17.195      302.618      195.115      107.524    91577.664    38069.859    11561.340       15.687        7.060      415.088      104.612        0.064      344.513       21.382      853.772
04/17/2014  17:04:00     -515.680     -131.763      -21.960      271.214      175.810      101.696    73556.935    30909.176    10342.054       19.927        5.740      532.247      122.352        0.053      344.419       21.221      853.811
04/17/2014  17:05:00     -579.817     -199.819      -22.606      292.676      231.428      129.667    85659.314    53558.918    16813.609       26.630        7.802      613.282      140.967        0.053      344.368       21.134      853.805
04/17/2014  17:06:00     -518.582     -109.102      -12.737      302.200      188.854      110.981    91324.781    35665.708    12316.808       21.012        6.965      529.935      144.139        0.074      344.388       21.169      853.838
04/17/2014  17:07:00     -516.945     -406.857      -23.291      307.266      227.858      159.300    94412.287    51919.471    25376.600       30.247        8.585      657.849      171.917        0.068      344.333       21.074      853.859
04/17/2014  17:08:00     -583.037     -122.644      -19.972      289.766      180.636      112.305    83964.137    32629.304    12612.441       24.226        6.460      595.796      123.544        0.043      344.334       21.075      853.911
04/17/2014  17:09:00     -442.237     -170.538       -5.344      277.940      212.591      123.895    77250.688    45194.820    15350.022       18.121        6.890      473.980      139.265        0.086      344.358       21.117      853.972
04/17/2014  17:10:00     -426.654     -272.076      -20.887      228.417      218.513      104.702    52174.531    47747.857    10962.591       18.367        5.544      506.023       93.838        0.034      344.333       21.074      853.969
04/17/2014  17:11:00     -477.226     -196.435      -28.708      189.816      168.867       93.739    36029.957    28516.042     8786.939       17.023        3.667      516.073       87.744        0.029      344.313       21.040      854.025
04/17/2014  17:12:00     -495.227     -195.326      -19.543      247.371      178.400      104.652    61192.542    31826.409    10951.966       19.386        5.199      532.355      107.261        0.041      344.244       20.921      854.090
04/17/2014  17:13:00     -364.404     -127.363      -13.859      226.319      153.672       94.383    51220.177    23615.100     8908.075       11.646        4.187      386.020       99.447        0.066      344.319       21.050      854.092
04/17/2014  17:14:00     -597.360     -303.304      -21.161      281.062      174.745      118.890    78995.968    30535.949    14134.949       28.645        6.183      669.949      136.166        0.041      344.216       20.874      854.095
04/17/2014  17:15:00     -596.711     -265.974      -30.805      280.581      275.245      116.849    78725.495    75759.773    13653.665       29.791        8.407      653.304      138.837        0.045      344.160       20.777      854.090
04/17/2014  17:16:00     -387.211     -121.059       -5.131      226.426      210.182       99.341    51268.711    44176.477     9868.552       13.494        5.266      405.694      114.807        0.080      344.232       20.902      854.100
04/17/2014  17:17:00     -542.909     -183.416      -14.491      221.920      207.989      113.140    49248.384    43259.454    12800.749       21.693        5.265      573.055      124.779        0.047      344.188       20.827      854.085
04/17/2014  17:18:00     -455.789      -39.957       -1.900      222.529      173.297      101.470    49519.081    30031.757    10296.181       14.958        4.492      457.537      110.670        0.059      344.225       20.890      854.071
04/17/2014  17:19:00     -522.953     -106.835       -2.371      267.597      206.482       99.227    71608.011    42634.907     9845.961       20.447        6.204      533.754      120.590        0.051      344.221       20.883      854.069
04/17/2014  17:20:00     -564.787     -153.168      -27.722      207.903      201.318       97.042    43223.838    40528.938     9417.113       21.817        4.658      585.188       96.778        0.027      344.184       20.819      854.058
04/17/2014  17:21:00     -379.494     -106.993        4.921      235.042      162.663      106.960    55244.770    26459.284    11440.399       12.430        4.657      394.288      102.285        0.067      344.221       20.883      854.088
04/17/2014  17:22:00     -307.807      -79.844       -0.360      235.414      171.331      100.985    55419.972    29354.478    10197.939        9.803        4.749      317.994      118.624        0.139      344.221       20.882      854.090
04/17/2014  17:23:00     -540.692     -224.728      -17.886      207.796      192.925       98.037    43179.172    37220.226     9611.209       21.657        4.501      585.534       93.139        0.025      344.125       20.718      854.084
04/17/2014  17:24:00     -577.500     -194.065      -33.217      264.815      245.272      117.547    70126.910    60158.249    13817.244       25.816        7.205      609.236      126.097        0.043      344.117       20.705      854.065
04/17/2014  17:25:00     -513.828     -236.185      -32.096      214.861      184.749       92.539    46165.113    34132.335     8563.491       20.483        4.443      565.510       96.875        0.029      344.163       20.783      854.072
04/17/2014  17:26:00     -474.411      -20.094       -8.328      226.603      193.481      101.830    51349.104    37434.936    10369.276       16.233        4.958      474.836      120.121        0.064      344.220       20.881      854.107
04/17/2014  17:27:00     -474.831     -106.914      -25.843      209.619      210.018       86.176    43940.291    44107.514     7426.380       16.650        4.774      486.719      100.818        0.043      344.234       20.903      854.157
04/17/2014  17:28:00     -576.039     -209.279      -22.945      234.194      171.331      100.503    54846.656    29354.174    10100.852       23.520        4.715      612.877      107.724        0.031      344.154       20.767      854.151
04/17/2014  17:29:00     -257.036     -150.516       12.433      183.704      185.293       94.181    33747.151    34333.576     8870.103        8.290        3.848      297.863      106.145        0.127      344.223       20.886      854.182
04/17/2014  17:30:00     -309.348     -133.427       -9.388      236.701      181.759       91.664    56027.292    33036.397     8402.351       10.551        4.873      336.896      121.582        0.130      344.208       20.861      854.193
04/17/2014  17:31:00     -463.360     -266.576      -15.480      287.865      188.305      107.760    82866.246    35458.759    11612.220       20.795        6.497      534.570      121.765        0.052      344.133       20.732      854.186
04/17/2014  17:32:00     -301.214      -57.747        7.734      186.868      141.625       81.348    34919.788    20057.548     6617.515        7.785        3.080      306.699       76.910        0.063      344.173       20.801      854.205
04/17/2014  17:33:00     -448.851     -115.083       -5.621      216.503      152.558       81.505    46873.652    23273.977     6643.057       14.575        3.840      463.370       94.986        0.042      344.171       20.797      854.214
04/17/2014  17:34:00     -587.870     -158.143      -29.159      191.988      152.174       93.636    36859.287    23156.993     8767.751       22.010        3.439      608.770      102.255        0.028      344.074       20.633      854.201
04/17/2014  17:35:00     -468.125     -285.919      -27.082      173.587      175.234       94.449    30132.289    30706.837     8920.625       18.568        3.488      548.535       81.404        0.022      344.132       20.730      854.249
04/17/2014  17:36:00     -264.793     -120.673      -12.332      171.105      139.286       80.818    29277.022    19400.601     6531.520        7.001        2.760      290.993       85.775        0.087      344.212       20.867      854.290
04/17/2014  17:37:00     -606.735     -504.140      -30.368      282.509      235.331      128.206    79811.146    55380.596    16436.727       38.739        7.581      788.850      145.903        0.034      344.034       20.562      854.280
04/17/2014  17:38:00     -644.633     -334.232      -19.073      227.633      200.592      106.364    51816.714    40237.351    11313.400       31.548        5.168      726.129      106.783        0.022      343.989       20.486      854.307
04/17/2014  17:39:00     -468.871     -285.705       -9.006      234.441      174.374      106.768    54962.379    30406.244    11399.401       19.914        4.838      549.061      110.461        0.040      344.012       20.525      854.318
04/17/2014  17:40:00     -330.479     -171.571        5.647      230.827      197.696      109.140    53280.892    39083.585    11911.545       12.146        5.214      372.361      119.609        0.103      344.069       20.624      854.333
04/17/2014  17:41:00     -468.940     -118.747       -1.209      220.789      192.964      104.598    48747.648    37235.125    10940.783       16.545        4.846      483.742       99.648        0.042      344.043       20.579      854.358
04/17/2014  17:42:00     -396.598      -91.716       -6.318      248.872      175.583       98.505    61937.310    30829.232     9703.291       13.408        5.123      407.065      118.212        0.084      344.046       20.585      854.356
04/17/2014  17:43:00     -422.472     -182.990      -15.518      185.077      152.111       83.107    34253.436    23137.712     6906.751       13.824        3.215      460.400       95.079        0.043      344.053       20.596      854.355
04/17/2014  17:44:00     -467.379     -123.331      -24.087      204.010      212.047       84.822    41619.897    44963.753     7194.758       16.399        4.689      483.377       91.470        0.036      344.003       20.511      854.329
04/17/2014  17:45:00     -429.565     -130.362      -19.851      157.279      147.224       78.466    24736.794    21674.883     6156.971       12.723        2.628      448.911       77.846        0.030      344.056       20.601      854.352
04/17/2014  17:46:00     -424.917     -178.022      -12.404      179.087      127.454       68.563    32072.249    16244.565     4700.825       13.270        2.651      460.702       76.953        0.028      344.056       20.601      854.366
04/17/2014  17:47:00     -407.757      -76.887        5.732      210.866      193.817      105.941    44464.590    37564.943    11223.582       13.271        4.663      414.943      117.734        0.081      344.055       20.600      854.369
04/17/2014  17:48:00     -462.839     -226.961        1.422      288.021      198.560      115.021    82956.274    39426.163    13229.755       20.065        6.781      515.492      141.644        0.076      344.047       20.586      854.373
04/17/2014  17:49:00     -380.632     -277.666        0.113      233.445      250.302      109.984    54496.417    62651.213    12096.379       17.559        6.462      471.146      123.358        0.069      344.030       20.556      854.373
04/17/2014  17:50:00     -501.167     -218.622       -6.929      267.002      243.514      100.174    71289.941    59299.265    10034.800       21.979        7.031      546.776      119.016        0.047      344.019       20.538      854.397
04/17/2014  17:51:00     -472.529     -294.296       -5.053      269.817      174.785      121.462    72800.954    30549.773    14752.963       21.399        5.905      556.681      126.466        0.052      344.007       20.518      854.381
04/17/2014  17:52:00     -352.156     -205.975      -10.012      217.845      186.976       91.664    47456.643    34959.933     8402.306       12.866        4.541      407.970      109.347        0.072      344.078       20.637      854.402
04/17/2014  17:53:00     -300.952     -196.041        3.435      232.951      159.238       86.947    54266.020    25356.718     7559.809       10.808        4.359      359.171       99.909        0.077      344.135       20.735      854.411
04/17/2014  17:54:00     -624.081     -374.661      -31.219      219.454      158.887       95.992    48159.930    25245.014     9214.524       30.670        4.131      727.907      106.381        0.021      343.969       20.451      854.396
04/17/2014  17:55:00     -437.817     -157.774       -3.164      210.492      195.917       96.853    44307.089    38383.285     9380.595       15.431        4.604      465.378       91.442        0.039      344.036       20.568      854.396
04/17/2014  17:56:00     -612.058     -128.292      -23.419      260.294      186.397      110.274    67752.960    34743.996    12160.377       25.312        5.733      625.359      124.886        0.040      344.050       20.590      854.356
04/17/2014  17:57:00     -375.935      -91.170        8.563      270.336      189.275       99.688    73081.689    35825.130     9937.628       13.425        5.942      386.832      122.667        0.101      344.039       20.573      854.399
04/17/2014  17:58:00     -420.274     -190.446      -11.654      244.602      168.794       85.193    59830.246    28491.443     7257.867       15.429        4.779      461.411       97.538        0.045      344.047       20.586      854.428
04/17/2014  17:59:00     -567.353     -163.666      -27.660      248.264      212.236      107.147    61634.808    45043.919    11480.533       23.378        5.908      590.488      114.909        0.038      343.944       20.410      854.428
04/17/2014  18:00:00     -422.206      -55.354      -10.593      277.256      179.001      122.180    76870.892    32041.377    14928.038       15.261        6.192      425.819      141.779        0.111      343.997       20.501      854.421
04/17/2014  18:01:00     -470.382     -105.213      -33.676      216.377      125.709       92.469    46818.988    15802.785     8550.564       15.230        3.559      482.005      112.183        0.054      343.955       20.429      854.395
04/17/2014  18:02:00     -496.642      -29.344      -19.074      281.796      155.799      100.628    79408.809    24273.481    10126.071       18.082        5.690      497.508      126.920        0.065      344.029       20.555      854.395
04/17/2014  18:03:00     -637.134     -173.121      -10.067      234.804      177.786       92.937    55133.075    31607.769     8637.268       26.568        4.769      660.235      111.875        0.029      343.936       20.394      854.419
04/17/2014  18:04:00     -550.245     -171.046      -17.198      226.873      206.335      102.102    51471.341    42574.274    10424.757       21.838        5.224      576.217      112.750        0.038      343.965       20.444      854.420
04/17/2014  18:05:00     -485.166     -161.573      -16.138      212.589      203.208      109.194    45194.096    41293.324    11923.255       18.006        4.921      511.363      108.431        0.045      343.962       20.440      854.438
04/17/2014  18:06:00     -376.510     -171.143       -8.246      194.124      194.319       93.036    37684.167    37759.720     8655.613       12.759        4.205      413.581       99.673        0.058      343.992       20.491      854.393
04/17/2014  18:07:00     -239.882     -200.978       15.110      206.015      152.328       94.214    42442.114    23203.906     8876.350        8.633        3.726      312.946      106.504        0.116      344.017       20.534      854.392
04/17/2014  18:08:00     -313.248     -167.675       11.128      191.439      198.811       95.729    36648.887    39525.698     9164.012       10.583        4.267      355.301      104.688        0.087      343.999       20.504      854.430
04/17/2014  18:09:00     -470.867     -211.487      -21.257      200.502      161.281       85.975    40201.231    26011.517     7391.621       17.023        3.680      516.181       74.046        0.021      343.870       20.282      854.416
04/17/2014  18:10:00     -327.654     -230.833       13.500      190.685      183.576      107.396    36360.882    33700.113    11533.992       12.119        4.080      400.801      107.099        0.071      343.850       20.248      854.392
04/17/2014  18:11:00     -441.307     -293.480       -2.377      270.781      249.580      113.644    73322.614    62290.211    12915.007       21.468        7.426      529.983      134.927        0.065      343.844       20.240      854.361
04/17/2014  18:12:00     -431.561     -246.004        4.455      261.578      202.949      121.120    68422.837    41188.247    14670.020       18.551        6.214      496.753      141.180        0.081      343.801       20.166      854.317
04/17/2014  18:13:00     -270.184     -166.193       24.083      241.356      199.220      100.871    58252.681    39688.740    10174.946       10.464        5.406      317.206      114.223        0.130      343.850       20.250      854.323
04/17/2014  18:14:00     -368.009     -220.029      -12.441      160.374      117.738       77.103    25719.914    13862.271     5944.899       11.475        2.276      428.770       82.113        0.037      343.884       20.308      854.353
04/17/2014  18:15:00     -232.375      -71.682       10.469      158.744      133.885       74.262    25199.589    17925.145     5514.836        5.393        2.432      243.180       71.922        0.087      343.917       20.364      854.374
04/17/2014  18:16:00     -261.917     -188.121       12.889      222.934      149.130      106.218    49699.360    22239.901    11282.320        9.367        4.161      322.475      138.201        0.184      343.922       20.373      854.406
04/17/2014  18:17:00     -300.663     -192.315       -5.640      195.968      141.676       84.181    38403.453    20072.049     7086.452        9.648        3.278      356.908       86.470        0.059      343.900       20.335      854.428
04/17/2014  18:18:00     -297.909      -80.418        6.806      189.756      145.164       80.577    36007.387    21072.732     6492.668        7.941        3.179      308.572       88.716        0.083      343.871       20.285      854.437
04/17/2014  18:19:00     -366.738     -111.549        6.493      201.910      151.298       96.889    40767.750    22891.124     9387.553       11.000        3.652      383.327      101.356        0.070      343.771       20.115      854.417
04/17/2014  18:20:00     -408.281     -156.125       -8.897      236.636      222.678      104.548    55996.730    49585.628    10930.283       15.381        5.826      437.114      116.226        0.071      343.713       20.014      854.428
04/17/2014  18:21:00     -364.205      -92.784       20.238      233.756      187.825      117.380    54642.077    35278.134    13777.994       12.266        5.185      375.838      127.582        0.115      343.698       19.989      854.408
04/17/2014  18:22:00     -472.561     -349.358      -28.467      237.208      215.671      111.080    56267.537    46513.837    12338.716       23.062        5.756      587.678      118.627        0.041      343.673       19.947      854.412
04/17/2014  18:23:00     -325.252     -232.186       -0.953      197.300      182.242       93.768    38927.283    33212.074     8792.366       12.030        4.047      399.624      104.236        0.068      343.709       20.008      854.402
04/17/2014  18:24:00     -402.284     -213.017      -12.410      163.732      107.922       64.348    26808.311    11647.260     4140.714       12.497        2.130      455.202       68.361        0.023      343.699       19.989      854.413
04/17/2014  18:25:00     -374.195     -137.131      -15.382      143.967      131.894       68.159    20726.403    17396.072     4645.715       10.091        2.138      398.531       68.986        0.030      343.714       20.014      854.427
04/17/2014  18:26:00     -297.267     -162.411        8.373      229.808      153.418       95.908    52811.511    23537.007     9198.337       10.016        4.277      338.740      104.886        0.096      343.703       19.998      854.436
04/17/2014  18:27:00     -359.062     -242.865       -5.767      210.830      204.486      100.412    44449.259    41814.518    10082.651       14.213        4.817      433.485      111.002        0.066      343.659       19.923      854.432
04/17/2014  18:28:00     -426.179     -306.195      -23.951      200.339      159.560       98.949    40135.757    25459.485     9790.939       17.566        3.769      524.770      112.903        0.046      343.618       19.853      854.421
04/17/2014  18:29:00     -354.118     -271.337        1.396      232.254      195.237       94.130    53941.784    38117.324     8860.367       14.995        5.046      446.120      115.027        0.066      343.623       19.861      854.438
04/17/2014  18:30:00     -552.834     -286.163      -32.281      219.792      182.694       88.743    48308.466    33377.091     7875.379       23.904        4.478      622.507       62.062        0.010      343.559       19.751      854.425
04/17/2014  18:31:00     -436.395     -229.265      -18.151      175.426      193.895       82.994    30774.195    37595.332     6888.087       15.928        3.763      492.953       72.758        0.022      343.568       19.767      854.436
04/17/2014  18:32:00     -448.234     -260.713       -8.132      255.198      143.669       91.635    65125.868    20640.798     8397.011       18.154        4.708      518.541      100.198        0.037      343.563       19.759      854.431
04/17/2014  18:33:00     -352.056     -254.869       -9.909      205.006      159.946       89.802    42027.300    25582.760     8064.412       13.232        3.784      434.628      104.418        0.058      343.559       19.753      854.432
04/17/2014  18:34:00     -181.418      -55.026        5.832      112.897      100.492       65.936    12745.642    10098.701     4347.610        3.158        1.360      189.579       51.379        0.073      343.598       19.820      854.448
04/17/2014  18:35:00     -251.729     -129.734       13.308      187.120      168.286       76.243    35013.789    28320.231     5813.039        7.475        3.457      283.194       72.540        0.066      343.583       19.794      854.458
04/17/2014  18:36:00     -326.659      -53.228       -0.091      185.994      120.245       75.917    34593.613    14458.761     5763.424        8.217        2.741      330.967       81.710        0.061      343.568       19.768      854.459
04/17/2014  18:37:00     -217.951     -150.667        6.297      203.688      169.010       86.986    41488.976    28564.258     7566.600        7.392        3.881      264.958       98.437        0.138      343.567       19.766      854.444
04/17/2014  18:38:00     -346.268     -138.265      -12.789      116.179      104.731       55.038    13497.563    10968.604     3029.143        8.333        1.375      372.852       57.291        0.024      343.542       19.722      854.465
04/17/2014  18:39:00     -157.253     -113.525       23.706      157.303      115.176       79.922    24744.256    13265.461     6387.457        4.128        2.220      193.950       89.554        0.213      343.578       19.786      854.465
04/17/2014  18:40:00     -316.400      -74.589       -4.407      150.278      109.743       68.366    22583.492    12043.499     4673.862        7.249        1.965      325.073       76.455        0.055      343.583       19.795      854.464
04/17/2014  18:41:00     -446.995     -128.580      -18.037      241.702      133.943       77.703    58419.645    17940.621     6037.740       14.951        4.120      465.121       90.760        0.038      343.498       19.648      854.454
04/17/2014  18:42:00     -484.755     -173.916        3.801      212.830      184.545       97.613    45296.524    34056.990     9528.207       17.705        4.444      515.009      114.302        0.049      343.445       19.558      854.472
04/17/2014  18:43:00     -402.590     -261.147      -20.486      265.960      173.873       90.306    70734.755    30231.841     8155.197       16.989        5.456      479.871      103.497        0.047      343.449       19.567      854.470
04/17/2014  18:44:00     -548.871     -281.112      -14.205      252.780      176.250      102.171    63897.481    31064.175    10439.005       24.292        5.270      616.671       93.027        0.023      343.420       19.516      854.490
04/17/2014  18:45:00     -570.763     -132.742      -26.542      213.325      174.266      104.538    45507.529    30368.588    10928.115       21.543        4.340      585.995      106.825        0.033      343.416       19.508      854.482
04/17/2014  18:46:00     -485.886     -146.267       -2.606      222.710      188.364       93.511    49599.890    35480.970     8744.365       17.564        4.691      507.424      101.893        0.040      343.418       19.514      854.500
04/17/2014  18:47:00     -372.835     -177.216      -13.431      172.090      151.408       81.544    29615.098    22924.499     6649.436       11.488        2.959      412.809       90.956        0.049      343.445       19.557      854.496
04/17/2014  18:48:00     -440.799     -260.682      -12.765      205.398      190.711       88.820    42188.326    36370.843     7889.078       17.442        4.322      512.112      100.737        0.039      343.413       19.503      854.519
04/17/2014  18:49:00     -377.125     -195.261        2.929      197.777      138.135       87.777    39115.828    19081.396     7704.781       12.312        3.295      424.677      101.320        0.057      343.432       19.537      854.508
04/17/2014  18:50:00     -125.475      -10.261       10.225      166.661      104.408       62.623    27775.966    10901.131     3921.645        2.927        2.130      125.893       77.942        0.383      343.498       19.649      854.541
04/17/2014  18:51:00     -246.113     -163.864      -20.856      102.697       95.215       63.652    10546.672     9065.974     4051.551        5.576        1.183      295.674       52.560        0.032      343.463       19.589      854.535
04/17/2014  18:52:00     -340.949     -174.082      -21.298      136.626      157.765       70.550    18666.591    24889.908     4977.284        9.776        2.427      382.819       76.492        0.040      343.417       19.510      854.526
04/17/2014  18:53:00     -334.975     -187.991       -1.455      180.942      170.852       78.857    32740.014    29190.555     6218.469       10.784        3.407      384.121       74.933        0.038      343.397       19.477      854.521
04/17/2014  18:54:00     -434.359     -186.413       -2.255      230.792      216.835       89.884    53265.035    47017.513     8079.077       16.587        5.418      472.671       97.115        0.042      343.396       19.475      854.506
04/17/2014  18:55:00     -503.610     -349.677      -14.137      247.079      228.665      117.038    61047.850    52287.887    13697.981       25.154        6.352      613.104      133.963        0.048      343.363       19.418      854.493
04/17/2014  18:56:00     -429.980     -267.684      -21.786      173.736      132.788       81.220    30184.080    17632.648     6596.715       15.570        2.721      506.495       72.217        0.020      343.371       19.433      854.522
04/17/2014  18:57:00     -143.574      -41.664        7.086      179.151       83.612       63.262    32095.207     6990.896     4002.026        3.274        2.154      149.497       67.850        0.206      343.438       19.547      854.527
04/17/2014  18:58:00     -294.183      -43.434       20.060      248.486      148.651       89.539    61745.497    22097.000     8017.194        9.033        4.593      297.372      117.049        0.155      343.384       19.453      854.531
04/17/2014  18:59:00     -293.925      -55.433       -3.941      139.099      105.655       75.007    19348.580    11162.988     5626.117        6.280        1.807      299.107       80.036        0.072      343.358       19.411      854.526
04/17/2014  19:00:00     -253.702      -41.510       10.291      155.072      113.046       61.870    24047.249    12779.295     3827.891        5.342        2.033      257.076       80.472        0.098      343.383       19.453      854.531
04/17/2014  19:01:00     -359.229     -150.907       -2.944      173.385      143.720       73.059    30062.507    20655.560     5337.655       10.393        2.803      389.639       77.498        0.040      343.360       19.414      854.541
04/17/2014  19:02:00     -262.259     -130.330       13.102      156.576      133.951       74.486    24516.007    17942.874     5548.210        6.696        2.400      292.858       68.421        0.055      343.368       19.428      854.504
04/17/2014  19:03:00     -184.844     -119.264        5.516      200.873      176.734       83.392    40349.875    31235.051     6954.215        6.346        3.927      219.980      103.259        0.220      343.386       19.460      854.505
04/17/2014  19:04:00     -182.282     -140.569       -2.008      142.699      124.347       73.027    20363.074    15462.105     5333.003        4.707        2.058      230.188       67.171        0.085      343.389       19.463      854.520
04/17/2014  19:05:00     -174.113      -76.351       10.184      141.621      100.589       59.924    20056.597    10118.174     3590.929        3.500        1.688      190.118       59.137        0.097      343.396       19.478      854.529
04/17/2014  19:06:00     -159.043      -74.505      -25.139      119.182       85.381       51.564    14204.288     7289.965     2658.854        2.781        1.208      175.629       46.298        0.069      343.421       19.519      854.540
04/17/2014  19:07:00     -249.587      -24.793      -13.717       90.268       80.545       37.887     8148.315     6487.540     1435.422        3.958        0.804      250.815       33.114        0.017      343.380       19.449      854.518
04/17/2014  19:08:00      -54.476        2.091        6.416       74.966       64.939       31.743     5619.832     4217.014     1007.641        0.693        0.542       54.516       34.859        0.409      343.456       19.579      854.518
04/17/2014  19:09:00     -122.274      -58.030        7.986       75.022       58.126       33.681     5628.258     3378.596     1134.384        1.426        0.507      135.345       40.315        0.089      343.416       19.511      854.536
04/17/2014  19:10:00     -176.147     -119.387        8.254      106.569       74.698       47.762    11356.913     5579.780     2281.202        3.228        0.961      212.793       53.330        0.063      343.402       19.485      854.566
04/17/2014  19:11:00     -263.391     -128.007      -23.531       80.587       78.605       40.400     6494.210     6178.822     1632.157        5.031        0.715      292.849       34.417        0.014      343.328       19.356      854.560
04/17/2014  19:12:00     -265.866      -96.011      -11.808      133.185      123.610       57.711    17738.312    15279.527     3330.570        5.819        1.817      282.671       62.150        0.048      343.327       19.356      854.540
04/17/2014  19:13:00     -157.329      -23.038       12.707      149.830       96.768       74.422    22449.059     9364.118     5538.566        3.139        1.868      159.007       77.672        0.239      343.351       19.399      854.557
04/17/2014  19:14:00     -222.840     -153.799        6.329      172.569      135.631       79.822    29779.987    18395.680     6371.628        6.394        2.727      270.762       88.754        0.107      343.315       19.336      854.566
04/17/2014  19:15:00     -226.442     -112.150        3.717       97.392      104.377       56.579     9485.241    10894.521     3201.227        4.372        1.179      252.693       54.899        0.047      343.322       19.349      854.547
04/17/2014  19:16:00     -177.772      -35.715       -9.369       78.690       67.517       43.942     6192.088     4558.496     1930.894        2.282        0.634      181.324       30.266        0.028      343.328       19.359      854.551
04/17/2014  19:17:00     -266.483      -40.500       -2.211      120.663       84.410       48.805    14559.597     7125.126     2381.956        4.836        1.203      269.543       48.264        0.032      343.265       19.251      854.545
04/17/2014  19:18:00     -324.314      -92.748      -15.287      107.545      124.110       55.710    11565.904    15403.206     3103.591        7.204        1.504      337.315       50.314        0.022      343.231       19.192      854.549
04/17/2014  19:19:00     -202.966     -103.451       -5.928      100.006       79.215       47.528    10001.206     6275.044     2258.883        3.523        0.927      227.810       52.491        0.053      343.254       19.232      854.559
04/17/2014  19:20:00     -299.950      -67.536      -18.565      126.077       96.117       62.217    15895.404     9238.558     3871.001        6.193        1.450      307.459       61.369        0.040      343.214       19.164      854.578
04/17/2014  19:21:00     -229.837      -97.416        3.393      121.044      135.551       67.493    14651.736    18374.136     4555.348        4.995        1.879      249.630       66.477        0.071      343.215       19.167      854.591
04/17/2014  19:22:00     -261.554      -92.058       -6.728      130.965      102.343       49.046    17151.723    10474.001     2405.488        5.347        1.502      277.282       42.475        0.023      343.226       19.185      854.616
04/17/2014  19:23:00     -280.767      -70.575        3.355      139.670      108.912       70.832    19507.577    11861.776     5017.220        6.010        1.819      289.501       76.075        0.069      343.167       19.084      854.610
04/17/2014  19:24:00     -399.767      -57.430       -4.059      169.280      127.200       74.810    28655.655    16179.879     5596.483       10.677        2.522      403.871       78.451        0.038      343.141       19.040      854.619
04/17/2014  19:25:00     -427.777     -144.027      -25.763      199.534      139.210       75.926    39813.704    19379.302     5764.820       13.467        3.248      451.372       85.862        0.036      343.137       19.034      854.638
04/17/2014  19:26:00     -132.841      -97.720       -2.617      140.364      124.464       60.126    19702.045    15491.371     3615.158        3.300        1.940      164.911       78.121        0.224      343.166       19.083      854.661
04/17/2014  19:27:00     -171.276      -43.042       -4.404      109.932      123.120       52.076    12085.101    15158.545     2711.859        3.058        1.498      176.602       53.373        0.091      343.148       19.052      854.676
04/17/2014  19:28:00     -268.090       21.926      -17.828      115.460       94.177       59.479    13330.901     8869.224     3537.731        4.920        1.287      268.985       53.792        0.040      343.113       18.992      854.689
04/17/2014  19:29:00     -155.721      -55.394        3.462      105.368       65.644       50.446    11102.458     4309.116     2544.833        2.264        0.898      165.280       61.098        0.137      343.123       19.011      854.688
04/17/2014  19:30:00     -176.512      -32.547        8.373       77.511       71.118       45.448     6007.995     5057.743     2065.492        2.271        0.657      179.487       41.765        0.054      343.110       18.988      854.702
04/17/2014  19:31:00     -248.782      -72.507       -7.341      158.865       94.875       54.676    25238.182     9001.321     2989.510        5.221        1.861      259.133       58.123        0.050      343.101       18.973      854.718
04/17/2014  19:32:00     -218.907     -112.371      -11.836      133.723      118.111       71.968    17881.872    13950.274     5179.450        4.884        1.851      246.064       72.170        0.086      343.082       18.940      854.725
04/17/2014  19:33:00     -232.200      -38.722       -4.634      122.805       98.768       55.907    15081.106     9755.110     3125.553        4.169        1.398      235.407       60.617        0.066      343.057       18.898      854.741
04/17/2014  19:34:00     -180.299      -22.624       14.635      109.892      106.068       56.957    12076.274    11250.430     3244.092        2.990        1.329      181.713       62.022        0.116      343.062       18.905      854.776
04/17/2014  19:35:00      -43.630      -49.571        8.124      133.333       60.907       44.620    17777.676     3709.605     1990.933        1.395        1.174       66.037       44.780        0.460      342.968       18.748      854.791
04/17/2014  19:36:00     -223.247      -15.446      -11.046      120.051       87.575       44.900    14412.127     7669.354     2016.014        3.714        1.205      223.781       53.627        0.057      343.040       18.869      854.787
04/17/2014  19:37:00     -315.186      -50.825      -24.672      145.389       87.737       53.242    21138.094     7697.857     2834.670        6.710        1.584      319.257       57.776        0.033      343.022       18.839      854.827
04/17/2014  19:38:00     -360.752      -22.759      -29.378      204.172       96.442       61.820    41686.013     9301.068     3821.773        9.315        2.740      361.470       80.566        0.050      342.985       18.775      854.815
04/17/2014  19:39:00     -420.169      -25.325      -35.252      137.914      137.583       63.654    19020.241    18929.138     4051.870       11.021        2.100      420.932       61.214        0.021      342.988       18.779      854.795
04/17/2014  19:40:00     -312.179      -70.103        2.173      170.391      132.262       58.472    29033.260    17493.255     3419.020        7.615        2.497      319.954       68.923        0.046      342.981       18.767      854.809
04/17/2014  19:41:00     -231.499     -101.246      -15.709      133.968      107.488       53.053    17947.460    11553.623     2814.669        4.820        1.616      252.671       53.497        0.045      342.970       18.749      854.819
04/17/2014  19:42:00     -214.352      -89.529       -5.098       85.321       88.816       46.762     7279.695     7888.364     2186.656        3.567        0.868      232.298       49.786        0.046      342.957       18.728      854.806
04/17/2014  19:43:00     -215.586     -153.919       11.507      162.259      111.378       62.314    26327.841    12404.970     3883.029        5.645        2.131      264.893       78.311        0.087      342.956       18.726      854.828
04/17/2014  19:44:00     -158.075      -86.665        5.199      134.727       73.734       57.527    18151.297     5436.767     3309.334        2.971        1.345      180.274       74.002        0.169      342.960       18.732      854.847
04/17/2014  19:45:00     -184.374      -86.231       -2.870       73.436       80.580       43.754     5392.791     6493.169     1914.407        2.762        0.690      203.543       43.787        0.046      342.953       18.720      854.859
04/17/2014  19:46:00     -226.135      -35.246        3.546       86.954       87.097       51.668     7561.033     7585.913     2669.575        3.510        0.891      228.865       51.828        0.051      342.897       18.626      854.876
04/17/2014  19:47:00     -276.767      -44.712      -21.228       63.274       71.197       38.760     4003.615     5068.989     1502.307        4.481        0.529      280.356       23.376        0.007      342.909       18.643      854.882
04/17/2014  19:48:00     -218.319       -3.237       -0.981      119.594       96.030       56.102    14302.619     9221.756     3147.390        3.717        1.334      218.343       60.393        0.077      342.867       18.575      854.881
04/17/2014  19:49:00     -217.158      -50.685        5.323      113.687       87.036       43.964    12924.724     7575.322     1932.807        3.609        1.122      222.994       37.421        0.028      342.854       18.552      854.890
04/17/2014  19:50:00     -227.770      -62.743        3.734      125.335       91.794       56.885    15708.877     8426.050     3235.895        4.159        1.369      236.254       69.181        0.086      342.850       18.545      854.921
04/17/2014  19:51:00     -160.524      -70.334      -15.081       55.538       53.060       39.088     3084.503     2815.363     1527.843        1.918        0.371      175.256       29.002        0.027      342.897       18.626      854.949
04/17/2014  19:52:00     -120.949      -66.751       -2.672       48.036       63.916       34.292     2307.422     4085.246     1175.940        1.333        0.378      138.146       26.229        0.036      342.876       18.591      854.975
04/17/2014  19:53:00     -102.312      -47.926        4.817       86.150       71.917       44.556     7421.783     5172.004     1985.280        1.368        0.729      112.980       40.178        0.126      342.854       18.554      854.978
04/17/2014  19:54:00     -263.731      -79.441      -12.503      109.188       69.870       36.617    11921.976     4881.829     1340.827        4.708        0.907      275.436       29.052        0.011      342.850       18.544      854.984
04/17/2014  19:55:00     -272.912      -15.182       -3.938      155.955      116.530       71.718    24322.035    13579.218     5143.443        5.888        2.152      273.334       72.011        0.069      342.786       18.437      854.981
04/17/2014  19:56:00     -146.269     -277.824        4.468      152.381      135.964       67.287    23219.875    18486.110     4527.474        7.241        2.312      313.976       58.623        0.035      342.806       18.471      854.998
04/17/2014  19:57:00     -141.707     -157.957       -1.219      129.011      103.018       56.943    16643.774    10612.651     3242.504        3.776        1.525      212.206       69.739        0.108      342.810       18.477      855.024
04/17/2014  19:58:00     -112.035      -16.302       18.317       98.247       85.761       44.877     9652.392     7354.996     2013.908        1.608        0.951      113.215       35.747        0.100      342.767       18.405      855.035
04/17/2014  19:59:00     -222.717      -54.890       -7.083       70.194       73.723       36.017     4927.163     5435.037     1297.237        3.216        0.583      229.382       32.513        0.020      342.770       18.409      855.055
04/17/2014  20:00:00     -199.620      -70.412       -3.741      117.148       84.049       48.585    13723.766     7064.250     2360.526        3.398        1.157      211.675       60.718        0.082      342.752       18.377      855.082
04/17/2014  20:01:00     -321.441      -50.121       -7.987      139.727      121.378       68.501    19523.508    14732.713     4692.425        7.242        1.947      325.325       73.699        0.051      342.732       18.344      855.111
04/17/2014  20:02:00     -149.954     -129.806        3.496      114.207       94.898       63.727    13043.175     9005.559     4061.163        3.272        1.305      198.333       69.027        0.121      342.692       18.276      855.116
04/17/2014  20:03:00     -103.531       21.703        2.643       88.422       54.571       42.482     7818.491     2977.977     1804.759        1.190        0.630      105.782       43.105        0.166      342.650       18.207      855.138
04/17/2014  20:04:00     -113.742        3.860        3.690      127.907       75.685       50.799    16360.250     5728.286     2580.530        1.881        1.233      113.808       58.775        0.267      342.610       18.138      855.139
04/17/2014  20:05:00     -128.903     -145.353       20.521      101.510      105.526       53.057    10304.183    11135.635     2815.090        3.120        1.213      194.277       57.034        0.086      342.648       18.203      855.152
04/17/2014  20:06:00     -147.621      -67.283       -4.202       89.324       64.618       34.809     7978.768     4175.445     1211.676        1.985        0.668      162.231       39.107        0.058      342.668       18.238      855.154
04/17/2014  20:07:00     -198.788     -145.502       -4.110      121.045       80.219       47.402    14651.807     6435.076     2246.980        4.201        1.167      246.349       58.354        0.056      342.649       18.204      855.187
04/17/2014  20:08:00     -203.380      -92.170      -14.611      105.707       81.276       43.815    11173.904     6605.750     1919.729        3.488        0.985      223.291       46.377        0.043      342.617       18.149      855.207
04/17/2014  20:09:00     -188.760      -75.467        4.477      123.130       78.904       37.119    15160.939     6225.900     1377.842        3.205        1.138      203.287       48.132        0.056      342.603       18.125      855.225
04/17/2014  20:10:00     -271.302     -158.759      -24.520      124.278      125.733       64.921    15444.989    15808.696     4214.772        6.743        1.773      314.339       61.367        0.038      342.592       18.106      855.240
04/17/2014  20:11:00     -141.215      -56.304       -9.915       95.251       51.540       41.703     9072.780     2656.415     1739.100        1.834        0.673      152.026       41.206        0.073      342.577       18.083      855.259
04/17/2014  20:12:00     -179.874     -130.946        2.507      107.260       77.312       58.368    11504.687     5977.203     3406.788        3.519        1.044      222.490       62.065        0.078      342.563       18.057      855.276
04/17/2014  20:13:00     -177.769      -43.408        3.706      113.285       77.358       45.565    12833.523     5984.304     2076.200        2.719        1.045      182.992       54.780        0.090      342.540       18.018      855.314
04/17/2014  20:14:00     -214.591       13.953       -4.890      136.543       73.817       52.236    18644.053     5449.001     2728.647        3.654        1.341      215.044       63.482        0.087      342.507       17.962      855.318
04/17/2014  20:15:00     -159.790      -50.324       -6.080       79.559       59.496       42.513     6329.651     3539.717     1807.392        1.989        0.584      167.527       32.014        0.037      342.517       17.980      855.319
04/17/2014  20:16:00     -202.532      -25.188       -9.649       92.271      107.672       52.177     8514.009    11593.188     2722.487        3.228        1.141      204.092       57.008        0.078      342.509       17.966      855.339
04/17/2014  20:17:00     -296.181     -162.652        1.602      145.384      114.818       76.546    21136.372    13183.277     5859.325        7.717        2.009      337.903       67.411        0.040      342.480       17.916      855.339
04/17/2014  20:18:00     -275.588      -25.050       10.180      162.291      122.365       65.443    26338.477    14973.243     4282.771        6.113        2.280      276.724       78.446        0.080      342.446       17.859      855.341
04/17/2014  20:19:00     -248.426     -112.614       -0.292      171.110      145.486       71.139    29278.765    21166.299     5060.771        6.494        2.775      272.759       76.108        0.078      342.468       17.896      855.365
04/17/2014  20:20:00     -249.922     -212.527      -13.553      140.509      152.414       77.100    19742.879    23230.008     5944.417        7.835        2.446      328.068       81.562        0.062      342.460       17.882      855.363
04/17/2014  20:21:00     -198.990     -139.507        1.244      128.541      104.198       64.954    16522.688    10857.135     4219.000        4.532        1.580      243.021       54.702        0.051      342.464       17.888      855.387
04/17/2014  20:22:00     -336.657     -189.389      -22.809      143.395      126.439       73.094    20562.064    15986.911     5342.694        9.580        2.095      386.272       64.687        0.028      342.430       17.831      855.411
04/17/2014  20:23:00     -193.870      -95.714        7.361      131.816      128.049       68.322    17375.586    16396.513     4667.830        4.261        1.922      216.210       67.183        0.097      342.405       17.790      855.413
04/17/2014  20:24:00     -315.671     -126.522      -21.249      234.389       99.849       51.870    54938.099     9969.870     2690.451        9.184        3.380      340.082       52.937        0.024      342.405       17.790      855.421
04/17/2014  20:25:00     -371.974      -30.797      -18.702      184.350      157.399       64.523    33985.083    24774.332     4163.235       10.128        3.146      373.247       77.951        0.044      342.401       17.782      855.420
04/17/2014  20:26:00     -397.472     -176.936      -14.324      151.648      135.126       69.705    22997.249    18258.964     4858.720       11.780        2.306      435.075       73.560        0.029      342.373       17.734      855.402
04/17/2014  20:27:00     -315.918      -94.448       -9.243      118.617      128.370       66.951    14069.909    16478.843     4482.388        7.191        1.752      329.734       62.116        0.035      342.366       17.722      855.419
04/17/2014  20:28:00     -266.922       10.718       -8.080      120.043       86.321       55.088    14410.396     7451.398     3034.734        4.816        1.245      267.137       56.305        0.044      342.351       17.694      855.434
04/17/2014  20:29:00     -362.517     -105.071       -8.868      152.453      118.637       67.137    23242.049    14074.775     4507.420        9.217        2.091      377.437       81.159        0.046      342.334       17.667      855.461
04/17/2014  20:30:00     -339.957     -123.015       -2.298      119.833      134.923       60.875    14359.853    18204.146     3705.716        8.348        1.813      361.530       49.817        0.019      342.334       17.667      855.467
04/17/2014  20:31:00     -215.887      -51.757       -2.697      126.427      126.055       75.631    15983.825    15889.776     5720.058        4.344        1.880      222.005       75.645        0.116      342.324       17.650      855.471
04/17/2014  20:32:00     -191.553      -77.867        9.804      145.654       71.264       54.111    21215.188     5078.603     2928.010        3.603        1.461      206.774       63.828        0.095      342.337       17.674      855.504
04/17/2014  20:33:00     -188.385      -44.529       -8.406       77.383       80.078       40.490     5988.091     6412.499     1639.425        2.579        0.702      193.576       34.410        0.032      342.329       17.659      855.513
04/17/2014  20:34:00      -79.788      -42.668       20.576       82.274       84.820       44.990     6769.011     7194.465     2024.134        1.230        0.799       90.480       37.389        0.171      342.284       17.585      855.541
04/17/2014  20:35:00     -288.147     -108.347      -12.017      115.217       97.317       56.888    13275.035     9470.603     3236.227        6.044        1.299      307.843       53.867        0.031      342.280       17.576      855.571
04/17/2014  20:36:00     -303.570     -119.845        1.600      188.688      135.707       73.440    35603.002    18416.322     5393.410        8.295        2.971      326.371       78.157        0.057      342.273       17.564      855.572
04/17/2014  20:37:00     -395.376     -122.176       -8.424      166.904      128.829       78.677    27856.979    16596.947     6190.105       11.097        2.532      413.822       78.402        0.036      342.260       17.542      855.600
04/17/2014  20:38:00     -333.786      -71.404      -14.896      189.764      150.745       70.545    36010.204    22723.976     4976.567        9.021        3.186      341.338       79.503        0.054      342.248       17.522      855.604
04/17/2014  20:39:00     -392.079      -66.715      -16.663      210.103      123.197       65.109    44143.440    15177.559     4239.235       11.099        3.178      397.715       78.759        0.039      342.236       17.500      855.609
04/17/2014  20:40:00     -430.804     -104.394        4.117      201.788      131.617       83.731    40718.268    17323.021     7010.903       13.077        3.253      443.272       91.433        0.043      342.211       17.459      855.602
04/17/2014  20:41:00     -289.224     -162.947      -11.268      150.164      110.533       69.464    22549.195    12217.649     4825.292        7.495        1.980      331.967       66.376        0.040      342.226       17.484      855.598
04/17/2014  20:42:00     -260.259      -32.454       -9.565      120.759      105.173       52.562    14582.682    11061.394     2762.768        4.864        1.420      262.275       54.266        0.043      342.209       17.456      855.621
04/17/2014  20:43:00     -158.750      -45.571       12.550      158.580       95.231       65.640    25147.747     9068.913     4308.596        3.297        1.926      165.162       78.440        0.226      342.197       17.436      855.605
04/17/2014  20:44:00     -246.185      -63.910        1.327      133.064      125.209       68.337    17706.094    15677.240     4669.962        5.137        1.903      254.345       60.231        0.056      342.196       17.434      855.616
04/17/2014  20:45:00     -158.461      -95.922        5.205      140.354      110.188       71.014    19699.315    12141.390     5042.946        3.560        1.844      185.232       85.943        0.215      342.167       17.384      855.616
04/17/2014  20:46:00     -336.571     -123.452      -11.567      191.777      153.739       73.240    36778.400    23635.706     5364.032        9.720        3.289      358.497       93.403        0.068      342.146       17.348      855.647
04/17/2014  20:47:00     -301.556      -63.425      -11.414      130.064      112.756       53.731    16916.581    12713.805     2887.025        6.380        1.626      308.154       44.614        0.021      342.136       17.331      855.659
04/17/2014  20:48:00     -258.535     -150.644        4.767      160.265      142.847       71.583    25684.991    20405.228     5124.065        7.038        2.561      299.222       79.129        0.070      342.112       17.292      855.656
04/17/2014  20:49:00     -392.350      -88.595      -15.521      173.553      145.344       83.054    30120.756    21124.940     6897.996       11.007        2.907      402.228       94.954        0.056      342.100       17.270      855.679
04/17/2014  20:50:00     -259.337       -1.624       -4.304      114.310      110.204       56.613    13066.802    12145.016     3205.060        4.784        1.421      259.343       45.930        0.031      342.082       17.240      855.687
04/17/2014  20:51:00     -367.274     -202.979      -30.528      187.491      150.848       87.033    35152.911    22755.049     7574.745       12.124        3.274      419.632       86.104        0.042      342.075       17.227      855.694
04/17/2014  20:52:00     -352.595     -108.858      -23.548      133.947      167.649       72.045    17941.760    28106.103     5190.430        9.397        2.562      369.016       70.468        0.036      342.076       17.230      855.730
04/17/2014  20:53:00     -411.068      -27.921      -16.039      145.575      125.058       71.931    21191.971    15639.531     5174.045       10.600        2.100      412.015       73.929        0.032      342.046       17.179      855.732
04/17/2014  20:54:00     -252.925     -102.978      -10.818      132.986      143.188       66.370    17685.402    20502.845     4405.040        5.863        2.130      273.086       61.932        0.051      342.058       17.200      855.775
04/17/2014  20:55:00     -297.558      -17.091      -12.793      130.722      115.280       61.433    17088.330    13289.378     3774.015        6.157        1.708      298.049       63.848        0.046      342.023       17.140      855.804
04/17/2014  20:56:00     -253.025     -135.276      -31.722      178.601      168.468       96.107    31898.325    28381.577     9236.485        7.641        3.476      286.916       96.722        0.114      342.025       17.143      855.804
04/17/2014  20:57:00     -222.458       -0.994      -11.534      135.238      115.643       61.455    18289.246    13373.245     3776.743        4.252        1.772      222.461       62.053        0.078      342.036       17.164      855.832
04/17/2014  20:58:00     -341.495      -69.989       -9.162      171.851      118.706       79.691    29532.871    14091.164     6350.683        8.578        2.499      348.593       87.945        0.064      341.993       17.090      855.850
04/17/2014  20:59:00     -392.067      -59.708      -23.762      150.115      180.187       66.700    22534.548    32467.461     4448.899       10.864        2.973      396.588       71.681        0.033      341.979       17.064      855.855
04/17/2014  21:00:00     -391.455      -98.005      -18.245      164.362      132.272       70.688    27014.996    17495.892     4996.856       10.633        2.475      403.537       73.304        0.033      341.980       17.065      855.875
04/17/2014  21:01:00     -363.972      -71.720      -12.458      113.375      113.917       67.322    12853.970    12977.067     4532.210        8.406        1.518      370.971       66.818        0.032      341.970       17.050      855.894
04/17/2014  21:02:00     -348.541      -54.381      -22.653      192.036      150.166       77.087    36877.786    22549.916     5942.443        9.515        3.269      352.758       85.500        0.059      341.975       17.058      855.900
04/17/2014  21:03:00     -247.508      -91.743        0.177      142.479      140.925       71.202    20300.360    19859.785     5069.737        5.744        2.261      263.964       71.023        0.072      341.970       17.050      855.915
04/17/2014  21:04:00     -225.559      -66.422       -6.320      140.821      104.344       60.858    19830.483    10887.772     3703.681        4.487        1.721      235.136       68.997        0.086      341.972       17.054      855.957
04/17/2014  21:05:00     -191.437       22.403        1.391      146.822       82.304       64.373    21556.831     6773.970     4143.830        3.481        1.624      192.743       74.686        0.150      341.955       17.027      855.970
04/17/2014  21:06:00     -401.198       12.380      -35.853      139.135      109.678       63.715    19358.554    12029.322     4059.638        9.892        1.772      401.389       67.430        0.028      341.962       17.035      855.965
04/17/2014  21:07:00     -311.136      -21.318      -23.619      110.511      127.537       66.439    12212.673    16265.765     4414.155        6.535        1.645      311.865       50.447        0.026      341.963       17.037      855.946
04/17/2014  21:08:00     -331.396     -162.052      -13.328      103.514       91.052       52.376    10715.251     8290.547     2743.264        7.900        1.087      368.896       45.724        0.015      341.940       16.996      855.961
04/17/2014  21:09:00     -375.386      -25.180      -13.740      173.976       90.526       59.764    30267.807     8194.976     3571.680        9.188        2.102      376.229       75.586        0.040      341.923       16.970      855.991
04/17/2014  21:10:00     -305.244      -13.769      -15.437      113.959      115.824       54.242    12986.685    13415.310     2942.222        6.147        1.467      305.554       41.345        0.018      341.934       16.986      855.989
04/17/2014  21:11:00     -305.014     -113.731      -20.871      119.923      104.079       70.207    14381.456    10832.538     4929.087        6.827        1.507      325.527       64.603        0.039      341.916       16.958      856.005
04/17/2014  21:12:00     -244.513     -104.877       -9.970      100.263       82.261       52.316    10052.599     6766.901     2736.930        4.522        0.978      266.056       39.033        0.022      341.931       16.982      856.011
04/17/2014  21:13:00     -424.652      -22.719      -30.283      146.792      123.558       76.212    21548.007    15266.628     5808.291       11.218        2.131      425.259       76.046        0.032      341.930       16.981      856.017
04/17/2014  21:14:00     -378.256     -147.165      -22.735      147.476      144.269       72.916    21749.146    20813.414     5316.697       10.656        2.394      405.875       64.288        0.025      341.922       16.968      856.002
04/17/2014  21:15:00     -322.226      -93.713      -14.397      221.030      159.586       70.724    48854.423    25467.662     5001.853        9.606        3.966      335.577       85.261        0.065      341.907       16.943      856.009
04/17/2014  21:16:00     -475.533      -51.615      -38.408      178.800      139.850       76.565    31969.314    19557.930     5862.211       14.382        2.869      478.326       84.222        0.031      341.927       16.977      856.007
04/17/2014  21:17:00     -342.953      -37.584      -24.930      174.901       91.164       74.421    30590.393     8310.877     5538.554        8.204        2.222      345.006       95.364        0.076      341.914       16.955      856.020
04/17/2014  21:18:00     -276.932      -85.015        1.625      147.027      135.259       78.942    21616.948    18295.077     6231.874        6.502        2.307      289.688       83.478        0.083      341.880       16.897      856.023
04/17/2014  21:19:00     -304.090      -10.901       -8.910      152.326      131.014       68.714    23203.225    17164.685     4721.625        6.887        2.254      304.285       71.290        0.055      341.875       16.888      856.053
04/17/2014  21:20:00     -319.552       27.599      -34.482      108.566       75.210       54.336    11786.478     5656.499     2952.455        6.223        1.020      320.742       53.663        0.028      341.930       16.979      856.077
04/17/2014  21:21:00     -442.749      -65.269      -32.920      181.427      155.251       88.248    32915.635    24102.730     7787.667       13.308        3.240      447.534       85.491        0.036      341.886       16.907      856.060
04/17/2014  21:22:00     -451.466     -174.443       -3.195      191.540      130.819       77.811    36687.586    17113.613     6054.540       14.705        2.993      483.996       82.276        0.029      341.830       16.813      856.080
04/17/2014  21:23:00     -347.918     -143.872       -2.844      169.773      114.710       77.871    28822.832    13158.407     6063.956        9.489        2.402      376.492       87.619        0.054      341.826       16.805      856.091
04/17/2014  21:24:00     -420.244     -116.330      -40.434      133.357      147.494       63.205    17784.074    21754.389     3994.817       11.764        2.177      436.048       37.228        0.007      341.854       16.850      856.089
04/17/2014  21:25:00     -481.084     -142.777      -30.789      135.564      127.595       69.869    18377.555    16280.381     4881.613       14.615        1.977      501.824       67.276        0.018      341.821       16.796      856.113
04/17/2014  21:26:00     -386.371     -163.598      -21.222      140.113      118.712       70.205    19631.614    14092.565     4928.726       10.757        1.933      419.579       54.380        0.017      341.813       16.784      856.098
04/17/2014  21:27:00     -329.810     -150.161       -0.551      134.547       93.003       56.724    18102.847     8649.470     3217.610        8.064        1.498      362.385       50.411        0.019      341.793       16.749      856.107
04/17/2014  21:28:00     -263.385      -51.019      -11.760      162.802      106.877       60.717    26504.471    11422.725     3686.606        5.685        2.081      268.281       77.119        0.083      341.792       16.745      856.106
04/17/2014  21:29:00     -361.983      -58.485      -36.626      123.372      116.477       51.041    15220.645    13566.807     2605.201        8.359        1.570      366.677       51.006        0.019      341.802       16.763      856.108
04/17/2014  21:30:00     -156.867      -45.228       11.385      129.209      110.973       54.214    16695.093    12314.896     2939.152        2.936        1.597      163.257       52.058        0.102      341.793       16.750      856.088
04/17/2014  21:31:00     -374.602      -79.389      -18.420      162.520      131.008       70.690    26412.843    17163.037     4997.018        9.776        2.429      382.922       77.477        0.041      341.793       16.748      856.090
04/17/2014  21:32:00     -372.047      -56.622      -15.659      134.743      113.830       69.866    18155.585    12957.295     4881.246        8.892        1.800      376.331       72.679        0.037      341.786       16.735      856.103
04/17/2014  21:33:00     -211.743      -48.942      -12.563      136.621       86.659       60.293    18665.354     7509.720     3635.259        3.859        1.491      217.326       64.120        0.087      341.782       16.731      856.103
04/17/2014  21:34:00     -251.312     -130.295       -2.277      127.713       87.205       54.174    16310.645     7604.701     2934.821        5.349        1.343      283.080       52.162        0.034      341.768       16.705      856.107
04/17/2014  21:35:00     -265.518      -60.771      -24.717      162.376       88.457       61.493    26365.826     7824.575     3781.435        5.638        1.899      272.384       69.510        0.065      341.783       16.733      856.123
04/17/2014  21:36:00     -287.384      -53.210        6.102      173.203       95.526       61.883    29999.133     9125.265     3829.482        6.420        2.148      292.269       83.123        0.081      341.769       16.708      856.144
04/17/2014  21:37:00     -418.699      -13.689      -28.078      129.063      143.151       69.982    16657.331    20492.198     4897.470       10.916        2.102      418.923       61.405        0.021      341.766       16.701      856.138
04/17/2014  21:38:00     -398.203      -63.041      -27.376      177.939      108.363       70.851    31662.372    11742.568     5019.804       10.585        2.421      403.162       84.399        0.044      341.785       16.734      856.134
04/17/2014  21:39:00     -333.940      -88.349      -25.183      162.458      114.397       64.515    26392.509    13086.787     4162.197        8.179        2.182      345.429       74.234        0.046      341.749       16.672      856.141
04/17/2014  21:40:00     -296.790      -95.193       -7.720      102.068       87.494       47.849    10417.869     7655.269     2289.544        5.878        1.018      311.683       43.872        0.020      341.728       16.639      856.148
04/17/2014  21:41:00     -188.890      -27.417       10.233      129.883       91.679       47.261    16869.669     8404.993     2233.577        3.202        1.375      190.870       34.414        0.033      341.745       16.668      856.170
04/17/2014  21:42:00     -273.439       -2.492      -15.298      126.744       97.573       48.153    16064.081     9520.412     2318.744        5.145        1.395      273.450       41.612        0.023      341.736       16.653      856.183
04/17/2014  21:43:00     -252.065      -24.299      -12.464       94.412       78.882       52.462     8913.672     6222.393     2752.249        4.108        0.894      253.233       55.352        0.048      341.729       16.641      856.176
04/17/2014  21:44:00     -197.017      -62.282        0.881      135.861       86.248       53.829    18458.114     7438.714     2897.586        3.574        1.440      206.627       62.470        0.091      341.691       16.577      856.172
04/17/2014  21:45:00     -287.674      -75.250      -14.133       92.596      117.161       56.925     8573.936    13726.791     3240.472        5.707        1.277      297.353       48.897        0.027      341.694       16.581      856.184
04/17/2014  21:46:00     -400.553     -127.697      -11.463      145.504      118.790       64.160    21171.291    14111.076     4116.514       10.813        1.970      420.416       62.411        0.022      341.701       16.592      856.211
04/17/2014  21:47:00     -357.441      -74.879      -21.013      141.999      156.032       61.735    20163.579    24346.005     3811.200        9.106        2.416      365.200       63.872        0.031      341.714       16.615      856.233
04/17/2014  21:48:00     -218.805      -67.588      -14.806       64.219       60.943       41.820     4124.111     3714.018     1748.896        3.112        0.479      229.006       33.763        0.022      341.716       16.619      856.242
04/17/2014  21:49:00     -156.723      -73.749      -14.008       89.272       82.967       38.959     7969.492     6883.500     1517.839        2.328        0.819      173.208       38.566        0.050      341.724       16.635      856.234
04/17/2014  21:50:00     -244.099     -110.559       -8.051      110.031       90.229       55.130    12106.835     8141.298     3039.286        4.758        1.164      267.969       48.072        0.032      341.695       16.583      856.241
04/17/2014  21:51:00     -305.454      -75.780      -23.236       92.685       95.730       53.269     8590.523     9164.259     2837.582        6.008        1.030      314.714       43.893        0.019      341.721       16.626      856.240
04/17/2014  21:52:00     -223.548      -54.018      -10.344       88.985       94.879       43.850     7918.402     9001.938     1922.832        3.592        0.942      229.982       36.857        0.026      341.741       16.662      856.231
04/17/2014  21:53:00     -256.123      -50.947      -20.656       81.782       74.295       51.427     6688.301     5519.728     2644.755        4.173        0.743      261.141       41.660        0.025      341.713       16.613      856.251
04/17/2014  21:54:00     -198.858      -82.453       -7.443      108.122      115.002       48.527    11690.322    13225.568     2354.897        3.683        1.364      215.274       44.924        0.044      341.703       16.596      856.258
04/17/2014  21:55:00     -274.773       16.214      -28.564      130.044      107.976       50.963    16911.482    11658.718     2597.268        5.387        1.558      275.251       49.641        0.033      341.715       16.617      856.265
04/17/2014  21:56:00     -199.042     -123.296       -3.207       97.088       86.176       49.016     9426.044     7426.320     2402.521        3.704        0.963      234.136       40.326        0.030      341.685       16.566      856.266
04/17/2014  21:57:00     -263.238     -109.819      -17.712       76.223       77.329       43.763     5810.018     5979.851     1915.235        4.768        0.685      285.227       39.012        0.019      341.671       16.542      856.277
04/17/2014  21:58:00     -206.298     -101.414       -2.555       96.430       57.229       42.092     9298.796     3275.159     1771.750        3.360        0.717      229.877       33.331        0.021      341.642       16.495      856.276
04/17/2014  21:59:00     -267.929      -12.179      -16.410       95.928       75.524       40.216     9202.174     5703.909     1617.351        4.436        0.826      268.206       40.766        0.023      341.683       16.564      856.283
04/17/2014  22:00:00     -244.321      -32.146        3.649      113.875       87.882       52.866    12967.599     7723.206     2794.820        4.211        1.174      246.426       54.737        0.049      341.656       16.518      856.272
04/17/2014  22:01:00     -226.228      -39.957       -2.378      133.225       85.625       54.117    17748.980     7331.571     2928.668        4.039        1.400      229.730       65.260        0.081      341.637       16.486      856.262
04/17/2014  22:02:00     -240.373      -59.458       -6.845       93.875       83.783       43.725     8812.474     7019.664     1911.869        3.955        0.887      247.617       31.543        0.016      341.672       16.545      856.246
04/17/2014  22:03:00     -210.838      -51.376       -1.370       81.091       64.985       38.591     6575.691     4223.008     1489.246        2.969        0.614      217.008       39.246        0.033      341.638       16.487      856.223
04/17/2014  22:04:00     -175.409      -69.285      -12.681       50.796       47.301       33.937     2580.211     2237.354     1151.711        2.085        0.298      188.596       29.338        0.024      341.635       16.482      856.209
04/17/2014  22:05:00     -153.644      -32.684       -5.082       88.603       55.675       34.224     7850.538     3099.729     1171.278        1.841        0.606      157.082       45.437        0.084      341.603       16.428      856.199
04/17/2014  22:06:00     -208.483      -21.012      -21.022       53.484       74.069       31.185     2860.527     5486.237      972.488        2.683        0.466      209.539       19.087        0.008      341.676       16.550      856.197
04/17/2014  22:07:00     -157.645      -23.382      -15.222       74.658       81.742       32.135     5573.792     6681.716     1032.665        1.946        0.664      159.369       28.623        0.032      341.649       16.505      856.202
04/17/2014  22:08:00     -197.836      -35.458      -12.882       89.548       57.556       30.146     8018.895     3312.737      908.761        2.640        0.612      200.988       38.616        0.037      341.606       16.432      856.201
04/17/2014  22:09:00     -279.843      -63.625      -24.341       88.818       63.178       42.340     7888.611     3991.502     1792.714        4.831        0.684      286.984       40.221        0.020      341.590       16.403      856.206
04/17/2014  22:10:00     -281.718      -75.957      -14.030       78.896       78.750       47.456     6224.531     6201.534     2252.091        5.000        0.734      291.778       44.374        0.023      341.624       16.461      856.210
04/17/2014  22:11:00     -217.198     -109.072       -9.812       97.658       76.149       51.753     9537.006     5798.605     2678.390        3.859        0.901      243.047       54.926        0.051      341.616       16.448      856.206
04/17/2014  22:12:00     -209.429      -65.705       -2.987       80.594       79.288       40.579     6495.338     6286.538     1646.642        3.130        0.721      219.494       43.991        0.040      341.618       16.453      856.216
04/17/2014  22:13:00     -182.032     -103.703      -14.457       90.296       72.985       43.242     8153.282     5326.854     1869.894        2.972        0.768      209.499       36.435        0.030      341.640       16.490      856.231
04/17/2014  22:14:00     -213.907     -117.904       -5.207       72.062       62.892       47.413     5193.002     3955.462     2248.015        3.554        0.570      244.249       36.772        0.023      341.584       16.392      856.248
04/17/2014  22:15:00     -207.578      -62.008      -12.452       79.476       70.883       38.608     6316.356     5024.382     1490.608        2.996        0.642      216.642       40.246        0.035      341.594       16.411      856.267
04/17/2014  22:16:00     -251.082      -24.204      -18.428       52.992       62.357       33.833     2808.175     3888.358     1144.678        3.590        0.392      252.246       26.465        0.011      341.662       16.526      856.257
04/17/2014  22:17:00     -185.064      -73.044      -11.992       68.814       63.831       33.864     4735.339     4074.444     1146.800        2.484        0.498      198.958       31.072        0.024      341.615       16.447      856.236
04/17/2014  22:18:00     -249.476     -135.059      -11.324       89.703       62.727       41.966     8046.693     3934.655     1761.132        4.717        0.687      283.688       40.781        0.021      341.604       16.428      856.218
04/17/2014  22:19:00     -322.103     -114.682       -7.017      109.659       89.401       50.437    12025.085     7992.625     2543.849        6.975        1.128      341.909       41.995        0.015      341.567       16.366      856.224
04/17/2014  22:20:00     -250.719      -91.657        2.975      140.961       86.515       46.398    19870.049     7484.884     2152.777        5.038        1.475      266.948       42.663        0.026      341.562       16.357      856.223
04/17/2014  22:21:00     -182.351      -98.923        6.641       93.001       73.568       41.718     8649.190     5412.259     1740.350        2.944        0.790      207.455       41.853        0.041      341.548       16.334      856.219
04/17/2014  22:22:00     -225.005     -117.213        2.107       89.122       69.955       45.474     7942.805     4893.733     2067.911        3.963        0.745      253.705       38.382        0.023      341.561       16.355      856.192
04/17/2014  22:23:00     -162.465      -43.310       -3.602       89.837       56.095       40.444     8070.677     3146.674     1635.679        2.057        0.643      168.139       40.715        0.059      341.610       16.439      856.174
04/17/2014  22:24:00     -127.972      -46.339        8.260       60.032       61.786       30.914     3603.802     3817.571      955.645        1.348        0.419      136.104       28.952        0.045      341.597       16.417      856.188
04/17/2014  22:25:00      -66.345      -26.676       24.110       84.573       64.115       42.466     7152.537     4110.785     1803.322        0.938        0.653       71.507       42.617        0.355      341.540       16.322      856.180
04/17/2014  22:26:00     -141.693      -90.043       -5.154       82.672       81.614       36.522     6834.599     6660.905     1333.847        2.152        0.741      167.883       29.199        0.030      341.558       16.351      856.148
04/17/2014  22:27:00     -173.125      -28.444        2.169       87.311      105.097       44.130     7623.277    11045.416     1947.497        2.570        1.031      175.446       42.764        0.059      341.615       16.447      856.126
04/17/2014  22:28:00     -177.086     -105.404        3.878       61.819       58.058       38.986     3821.564     3370.695     1519.913        2.560        0.436      206.081       32.195        0.024      341.576       16.379      856.127
04/17/2014  22:29:00     -240.061     -199.709       -7.608      121.743      104.190       58.897    14821.365    10855.653     3468.851        6.335        1.457      312.270       65.654        0.044      341.612       16.441      856.121
04/17/2014  22:30:00     -217.049     -152.617       -5.827      126.158      102.779       53.060    15915.732    10563.558     2815.315        4.986        1.465      265.335       63.610        0.057      341.624       16.464      856.115
04/17/2014  22:31:00     -204.879      -90.301        0.986      117.155       77.170       45.490    13725.328     5955.187     2069.299        3.594        1.087      223.897       55.710        0.062      341.622       16.461      856.098
04/17/2014  22:32:00     -238.334     -141.479       -0.061      108.832       84.132       56.587    11844.375     7078.246     3202.089        4.947        1.106      277.163       61.667        0.050      341.683       16.562      856.081
04/17/2014  22:33:00     -215.328     -147.146       -3.773      110.488       62.628       49.589    12207.599     3922.205     2459.053        4.331        0.929      260.802       56.742        0.047      341.681       16.560      856.091
04/17/2014  22:34:00     -156.666      -62.818       -1.819       99.948       68.703       44.018     9989.512     4720.095     1937.545        2.257        0.832      168.791       43.577        0.067      341.658       16.522      856.094
04/17/2014  22:35:00     -207.751      -80.520      -12.336       81.694       69.930       38.691     6673.937     4890.221     1497.010        3.143        0.653      222.809       30.182        0.018      341.655       16.516      856.095
04/17/2014  22:36:00     -249.074     -126.729      -11.612       95.715       70.685       48.363     9161.397     4996.324     2339.015        4.736        0.825      279.461       35.351        0.016      341.642       16.492      856.090
04/17/2014  22:37:00     -164.836      -63.762        4.719       84.054       88.005       51.942     7065.019     7744.799     2698.023        2.438        0.875      176.738       51.023        0.083      341.657       16.518      856.075
04/17/2014  22:38:00     -167.197      -81.206       -9.108       87.352       88.830       39.227     7630.386     7890.725     1538.737        2.584        0.853      185.874       41.514        0.050      341.673       16.548      856.063
04/17/2014  22:39:00     -298.318        4.455      -10.323      101.035       94.266       58.769    10208.065     8886.030     3453.748        5.583        1.127      298.351       57.097        0.037      341.687       16.571      856.050
04/17/2014  22:40:00     -189.944      -54.680       -8.662       96.329       72.016       45.870     9279.220     5186.342     2104.034        2.785        0.828      197.658       44.590        0.051      341.644       16.497      856.035
04/17/2014  22:41:00     -152.806     -131.180       -5.890       93.222       59.282       39.475     8690.417     3514.375     1558.281        2.718        0.688      201.390       37.184        0.034      341.659       16.523      856.011
04/17/2014  22:42:00     -220.022      -98.289      -17.052      101.095       86.370       51.811    10220.283     7459.819     2684.408        3.936        1.018      240.978       50.306        0.044      341.647       16.502      856.016
04/17/2014  22:43:00     -211.418      -40.845       -0.836      133.593       99.285       50.203    17847.035     9857.608     2520.355        3.829        1.511      215.327       58.675        0.074      341.664       16.532      856.028
04/17/2014  22:44:00     -114.876      -40.093       13.496       65.228       69.141       46.848     4254.689     4780.449     2194.777        1.311        0.561      121.671       38.741        0.101      341.647       16.505      856.026
04/17/2014  22:45:00     -252.857      -14.849       -0.228      125.388       99.224       56.636    15722.056     9845.437     3207.584        4.646        1.439      253.293       64.368        0.065      341.689       16.573      856.021
04/17/2014  22:46:00     -297.088      -54.808      -15.003      137.050       99.557       54.817    18782.636     9911.514     3004.852        6.159        1.585      302.101       68.431        0.051      341.641       16.493      856.014
04/17/2014  22:47:00     -166.092      -54.038       -8.611       71.317       75.377       39.316     5086.138     5681.690     1545.757        2.144        0.616      174.662       29.353        0.028      341.637       16.485      856.015
04/17/2014  22:48:00     -318.935      -48.793      -24.113      147.203      103.047       59.352    21668.594    10618.612     3522.677        7.024        1.790      322.646       58.898        0.033      341.665       16.533      856.001
04/17/2014  22:49:00     -139.156      -27.981        5.662      101.034       84.453       44.623    10207.789     7132.234     1991.182        1.975        0.967      141.941       50.501        0.127      341.614       16.447      856.000
04/17/2014  22:50:00     -343.906      -54.028      -15.873      121.496       87.605       54.391    14761.214     7674.604     2958.411        7.341        1.270      348.124       56.933        0.027      341.588       16.402      856.009
04/17/2014  22:51:00     -285.148      -58.115       -3.871       74.322       82.887       48.199     5523.778     6870.301     2323.176        4.971        0.736      291.010       42.194        0.021      341.558       16.352      856.004
04/17/2014  22:52:00     -199.814       -7.022      -14.093      121.129       58.674       46.288    14672.149     3442.661     2142.588        3.021        1.013      199.938       51.898        0.067      341.564       16.363      855.981
04/17/2014  22:53:00     -214.840       -7.874        7.618      113.403       98.642       62.208    12860.129     9730.342     3869.782        3.636        1.323      214.985       59.994        0.078      341.553       16.343      855.965
04/17/2014  22:54:00     -362.091      -16.221      -26.096      105.309      101.002       57.302    11090.023    10201.324     3283.558        7.831        1.229      362.454       52.091        0.021      341.557       16.350      855.946
04/17/2014  22:55:00     -359.890      -77.321      -14.208      165.428      106.262       63.143    27366.444    11291.690     3986.980        8.916        2.132      368.102       69.991        0.036      341.589       16.403      855.953
04/17/2014  22:56:00     -259.707      -28.277        0.717      138.308      127.518       61.004    19129.181    16260.897     3721.546        5.367        1.956      261.242       66.413        0.065      341.669       16.540      855.953
04/17/2014  22:57:00     -322.123      -72.336      -28.640       88.826       99.152       56.316     7890.072     9831.035     3171.486        6.535        1.045      330.145       41.178        0.016      341.646       16.500      855.930
04/17/2014  22:58:00     -354.643     -105.490      -17.657      104.671       67.059       52.427    10956.005     4496.843     2748.610        7.770        0.910      370.000       45.437        0.015      341.574       16.378      855.934
04/17/2014  22:59:00     -273.630      -55.410       -6.050      154.196       90.035       63.122    23776.491     8106.221     3984.334        5.692        1.793      279.184       72.564        0.068      341.556       16.348      855.953
04/17/2014  23:00:00     -312.342      -74.726       -9.817      159.046      102.967       56.280    25295.480    10602.142     3167.424        7.114        1.953      321.157       66.236        0.043      341.551       16.339      855.959
04/17/2014  23:01:00     -364.074      -76.551       -4.571      158.068      152.022       73.409    24985.482    23110.732     5388.825        9.595        2.674      372.035       82.291        0.049      341.587       16.400      855.966
04/17/2014  23:02:00     -275.436      -32.500      -16.199      110.585       83.193       59.084    12229.039     6921.128     3490.931        4.991        1.132      277.347       62.007        0.050      341.559       16.351      855.965
04/17/2014  23:03:00     -196.811      -39.282       -4.210      139.574       78.906       52.577    19481.018     6226.219     2764.319        3.438        1.424      200.693       64.449        0.103      341.532       16.306      855.973
04/17/2014  23:04:00     -230.305      -63.241      -12.537      137.068      130.754       50.146    18787.762    17096.732     2514.574        4.779        1.920      238.830       50.222        0.044      341.538       16.316      855.966
04/17/2014  23:05:00     -283.548      -16.050      -10.612      127.047      108.249       48.219    16141.032    11717.783     2325.110        5.547        1.509      284.002       53.326        0.035      341.502       16.256      855.986
04/17/2014  23:06:00     -329.851      -60.625      -13.878      133.256      122.579       55.200    17757.141    15025.575     3047.017        7.424        1.791      335.376       65.228        0.038      341.516       16.278      856.004
04/17/2014  23:07:00     -302.236      -73.197      -17.424      124.403      110.147       59.414    15476.115    12132.472     3530.069        6.407        1.557      310.973       60.389        0.038      341.544       16.326      856.004
04/17/2014  23:08:00     -229.445      -96.208       -6.267      136.650      123.928       56.113    18673.329    15358.033     3148.711        4.955        1.859      248.799       57.606        0.054      341.568       16.368      856.004
04/17/2014  23:09:00     -153.677       -4.587       -1.363       99.134       98.323       47.991     9827.465     9667.452     2303.138        2.271        1.090      153.746       46.772        0.093      341.597       16.418      855.996
04/17/2014  23:10:00     -332.750      -61.316       -9.587      171.179      127.753       65.317    29302.348    16320.885     4266.273        8.222        2.494      338.352       78.385        0.054      341.520       16.286      855.998
04/17/2014  23:11:00     -264.566      -10.301       -4.877      137.913       95.847       67.602    19019.941     9186.584     4569.991        5.144        1.639      264.766       70.114        0.070      341.536       16.311      856.031
04/17/2014  23:12:00     -231.784        5.440      -11.365       85.238       82.116       48.389     7265.568     6743.031     2341.532        3.511        0.818      231.848       40.736        0.031      341.556       16.347      856.035
04/17/2014  23:13:00     -182.068     -108.722        6.679      123.325      123.847       61.164    15209.177    15338.048     3741.010        3.964        1.714      212.060       65.896        0.097      341.535       16.313      856.013
04/17/2014  23:14:00     -257.009     -118.553      -17.394      131.278      100.141       51.366    17233.906    10028.195     2638.417        5.515        1.495      283.034       53.807        0.036      341.523       16.290      856.025
04/17/2014  23:15:00     -175.697      -32.216       -4.301      127.955      103.683       63.170    16372.604    10750.208     3990.465        3.151        1.556      178.626       57.534        0.104      341.517       16.282      856.009
04/17/2014  23:16:00     -260.759        3.984      -11.443      101.438       76.654       54.453    10289.579     5875.849     2965.096        4.363        0.957      260.790       51.510        0.039      341.512       16.272      856.025
04/17/2014  23:17:00     -246.150      -22.524      -14.257      107.141      104.251       51.583    11479.178    10868.247     2660.823        4.315        1.250      247.178       47.166        0.036      341.488       16.231      856.016
04/17/2014  23:18:00     -238.827      -49.527      -23.022       93.885       78.547       41.254     8814.480     6169.633     1701.878        3.835        0.834      243.908       41.478        0.029      341.439       16.148      855.989
04/17/2014  23:19:00     -299.222     -110.996      -19.040       84.471       78.550       48.187     7135.336     6170.028     2321.997        5.892        0.781      319.146       41.385        0.017      341.403       16.087      855.997
04/17/2014  23:20:00     -204.803      -49.223       10.963      113.468       97.209       55.531    12874.970     9449.679     3083.643        3.494        1.270      210.635       62.310        0.088      341.415       16.110      856.024
04/17/2014  23:21:00     -381.265      -71.147      -30.413      153.432      119.125       56.039    23541.383    14190.856     3140.420        9.610        2.044      387.846       50.716        0.017      341.443       16.156      856.037
04/17/2014  23:22:00     -257.638      -38.996       -0.811      139.151      102.522       61.282    19362.878    10510.818     3755.494        5.076        1.681      260.572       67.009        0.066      341.419       16.116      856.062
04/17/2014  23:23:00     -236.009      -94.359       -2.764      157.703      137.216       59.695    24870.346    18828.306     3563.476        5.593        2.363      254.173       76.340        0.090      341.382       16.052      856.092
04/17/2014  23:24:00     -178.322      -19.709        7.649      115.387       95.382       48.354    13314.137     9097.759     2338.113        2.849        1.238      179.408       51.906        0.084      341.397       16.078      856.116
04/17/2014  23:25:00     -272.265      -83.124       -3.093      131.179       91.579       55.906    17207.805     8386.747     3125.456        5.488        1.436      284.672       67.245        0.056      341.399       16.082      856.112
04/17/2014  23:26:00     -233.237      -54.749      -29.065       97.955       99.770       52.727     9595.274     9953.994     2780.184        4.028        1.116      239.576       29.153        0.015      341.427       16.129      856.099
04/17/2014  23:27:00     -246.652      -90.000      -19.901      102.008       78.487       46.804    10405.710     6160.277     2190.595        4.404        0.938      262.559       44.046        0.028      341.381       16.050      856.107
04/17/2014  23:28:00     -255.548     -109.815        5.763      139.826       98.408       66.653    19551.310     9684.215     4442.681        5.553        1.684      278.144       71.730        0.067      341.310       15.931      856.108
04/17/2014  23:29:00     -313.689      -94.578      -35.410      114.854       83.279       51.670    13191.450     6935.331     2669.814        6.569        1.140      327.637       40.241        0.015      341.292       15.901      856.128
04/17/2014  23:30:00     -275.953      -68.725      -27.865      110.126       65.966       54.329    12127.709     4351.474     2951.625        5.054        0.972      284.382       50.970        0.032      341.305       15.923      856.144
04/17/2014  23:31:00     -273.616       39.050      -28.994      101.156      102.694       51.877    10232.453    10546.158     2691.214        5.035        1.173      276.388       40.731        0.022      341.370       16.032      856.156
04/17/2014  23:32:00     -295.092      -96.001       -8.656       80.973       79.071       49.103     6556.647     6252.178     2411.102        5.579        0.761      310.315       18.675        0.004      341.314       15.938      856.165
04/17/2014  23:33:00     -278.035      -64.417      -19.628      118.415       85.226       50.488    14022.149     7263.444     2549.084        5.283        1.192      285.400       52.555        0.034      341.303       15.919      856.172
04/17/2014  23:34:00     -355.039     -120.674      -33.807      148.897      104.188       71.074    22170.352    10855.182     5051.443        8.991        1.904      374.986       62.703        0.028      341.412       16.103      856.176
04/17/2014  23:35:00     -246.601     -113.354      -24.178      142.975       81.042       65.747    20441.934     6567.756     4322.630        5.278        1.567      271.406       65.958        0.059      341.498       16.249      856.159
04/17/2014  23:36:00     -178.550     -129.085       -5.646       92.275       74.814       55.488     8514.628     5597.072     3078.936        3.288        0.860      220.325       39.168        0.032      341.446       16.160      856.182
04/17/2014  23:37:00     -251.761      -58.528      -11.967       89.316       92.311       56.960     7977.309     8521.345     3244.432        4.334        0.987      258.474       48.946        0.036      341.402       16.084      856.193
04/17/2014  23:38:00     -287.311      -37.439      -21.138      110.386       84.847       51.322    12185.123     7199.019     2633.898        5.320        1.101      289.740       48.763        0.028      341.375       16.041      856.200
04/17/2014  23:39:00     -387.350      -37.793      -25.609       97.477      127.301       56.476     9501.694    16205.542     3189.593        9.050        1.445      389.189       51.605        0.018      341.306       15.923      856.231
04/17/2014  23:40:00     -314.270      -28.205      -25.861       96.793       93.319       52.650     9368.943     8708.374     2772.019        6.054        1.042      315.533       42.907        0.018      341.383       16.053      856.239
04/17/2014  23:41:00     -383.552      -37.214      -30.266      125.531      106.986       56.894    15758.050    11446.010     3236.952        8.992        1.522      385.353       56.696        0.022      341.318       15.945      856.276
04/17/2014  23:42:00     -338.082      -27.107      -31.256      122.922       91.783       51.573    15109.704     8424.203     2659.813        7.110        1.310      339.167       47.867        0.020      341.307       15.926      856.283
04/17/2014  23:43:00     -345.452        7.632      -23.841      119.896      102.275       53.713    14375.005    10460.199     2885.139        7.384        1.386      345.536       43.659        0.016      341.276       15.872      856.288
04/17/2014  23:44:00     -297.920      -97.995      -13.352      143.356      107.411       61.851    20550.909    11537.072     3825.579        6.722        1.796      313.623       62.597        0.040      341.230       15.796      856.281
04/17/2014  23:45:00     -442.442      -53.211      -44.310      136.792       92.304       64.221    18712.044     8520.039     4124.342       11.595        1.568      445.630       61.014        0.019      341.199       15.742      856.302
04/17/2014  23:46:00     -289.752     -124.338       -0.143      127.936      115.845       67.575    16367.656    13420.093     4566.381        6.688        1.718      315.303       60.111        0.036      341.210       15.763      856.279
04/17/2014  23:47:00     -271.165      -62.518      -10.310      119.708       92.113       47.775    14330.015     8484.889     2282.426        5.132        1.255      278.279       45.068        0.026      341.198       15.740      856.299
04/17/2014  23:48:00     -348.281      -88.260      -10.789      154.343      102.614       65.380    23821.650    10529.696     4274.528        8.391        1.931      359.290       71.548        0.040      341.175       15.701      856.300
04/17/2014  23:49:00     -385.172      -52.952      -23.831      114.662      110.165       56.489    13147.420    12136.324     3191.032        9.010        1.424      388.795       52.764        0.018      341.205       15.753      856.316
04/17/2014  23:50:00     -264.006      -98.953      -14.398      107.353       73.318       56.207    11524.672     5375.495     3159.278        4.987        1.003      281.941       64.065        0.052      341.177       15.704      856.319
04/17/2014  23:51:00     -358.817      -49.184      -14.676      121.829      106.362       58.806    14842.391    11312.899     3458.094        8.049        1.481      362.172       59.097        0.027      341.213       15.767      856.323
04/17/2014  23:52:00     -318.253      -80.243       -8.723      159.096      133.799       74.884    25311.492    17902.304     5607.617        7.830        2.441      328.213       74.505        0.052      341.269       15.861      856.319
04/17/2014  23:53:00     -343.945      -64.551       -3.692      180.092      110.876       63.500    32433.275    12293.552     4032.303        8.561        2.438      349.950       69.257        0.039      341.321       15.949      856.331
04/17/2014  23:54:00     -313.702      -61.638       -2.552      127.072       99.042       58.547    16147.390     9809.235     3427.734        6.579        1.469      319.700       56.848        0.032      341.308       15.927      856.332
04/17/2014  23:55:00     -369.308        4.314      -18.239      152.803       94.925       67.101    23348.811     9010.838     4502.517        8.679        1.843      369.334       74.126        0.040      341.333       15.971      856.347
04/17/2014  23:56:00     -276.869      -23.652       -5.786      108.377       86.063       52.336    11745.566     7406.838     2739.101        4.957        1.095      277.878       57.678        0.043      341.320       15.948      856.359
04/17/2014  23:57:00     -359.835      -56.058      -15.499      159.542       92.072       57.955    25453.611     8477.253     3358.822        8.507        1.864      364.176       71.634        0.039      341.238       15.808      856.375
04/17/2014  23:58:00     -367.949       -5.192      -37.065      133.279       89.934       68.311    17763.265     8088.185     4666.409        8.365        1.526      367.986       76.170        0.043      341.257       15.841      856.383
04/17/2014  23:59:00     -418.675      -13.899      -16.749      135.997      110.124       69.407    18495.250    12127.373     4817.277       10.559        1.772      418.905       69.119        0.027      341.233       15.800      856.388
